GFSMA_850_thetae_000.txt.gz
Theta_e
337 339 337 341 344 341 341 342 347 348 347 346 346 346 345 345 344 344 346 343 339 330 331 334 336 335 336 338 338 339 338 337 337 337 336 335 334 333 332 331 331 332 330
342 339 338 339 339 339 339 340 347 347 346 345 345 345 345 346 345 347 346 345 344 336 331 331 335 337 336 336 338 339 339 339 337 337 337 336 336 335 333 332 332 332 331
343 339 340 341 339 338 338 341 341 344 344 346 347 346 346 348 347 347 346 345 343 339 336 332 336 339 339 337 335 336 338 339 337 335 337 338 336 336 335 334 334 334 333
339 341 340 339 338 336 337 340 341 343 343 345 345 345 345 345 345 345 348 345 345 337 336 336 337 340 339 338 335 334 334 335 336 337 336 336 338 337 337 336 335 335 334
341 340 341 340 338 336 335 340 340 339 341 344 343 344 346 346 347 347 347 345 347 345 342 339 339 339 339 339 339 336 335 336 337 338 338 337 338 338 338 338 336 335 335
338 338 340 341 341 338 336 339 338 337 342 345 343 342 344 345 344 344 347 346 345 344 342 344 342 339 339 338 338 337 337 338 338 338 338 339 339 337 338 338 337 336 334
340 337 340 340 341 342 342 337 339 340 343 345 343 342 342 342 343 342 342 345 345 346 343 341 342 339 340 339 338 336 337 339 339 338 338 338 339 339 337 338 338 336 334
339 339 338 339 340 342 342 341 338 339 340 342 341 341 342 343 347 347 345 344 340 341 344 342 341 341 341 340 339 334 337 337 337 339 339 339 338 337 338 338 337 336 335
339 337 338 338 339 341 341 340 339 339 339 339 339 341 341 343 343 344 345 345 343 343 344 343 343 342 343 343 343 337 335 337 336 337 336 338 339 338 337 335 334 335 335
338 338 338 338 339 339 339 340 338 339 339 338 340 339 344 345 343 344 342 342 342 342 345 344 342 342 341 342 343 341 336 336 337 335 336 337 338 338 338 338 337 337 336
337 338 337 337 338 340 339 338 339 338 338 338 340 341 342 343 340 340 342 339 341 341 344 344 342 342 342 341 340 340 337 336 337 336 334 332 336 338 338 338 337 337 336
338 338 339 338 337 339 340 340 341 339 340 340 341 341 342 341 342 342 341 340 340 341 343 340 339 339 339 341 340 341 340 338 335 337 334 335 337 340 341 340 338 337 337
338 338 338 337 337 338 340 341 341 339 339 340 339 342 341 342 342 341 341 340 340 342 343 343 341 342 339 338 341 342 341 340 337 337 336 334 334 337 339 338 333 337 336
339 337 337 337 337 337 338 339 340 339 339 338 340 340 340 340 341 338 337 339 339 340 340 340 342 343 341 342 339 340 341 339 339 338 336 333 331 335 335 335 326 320 320
338 338 340 339 338 338 338 338 340 339 339 340 341 338 342 339 340 341 340 340 339 338 340 340 339 338 336 338 339 341 339 341 338 335 334 331 334 335 321 321 323 324 325
339 339 339 339 339 339 338 338 338 339 338 339 340 336 336 332 337 340 341 340 340 339 338 338 337 338 338 339 339 340 335 337 336 333 330 331 327 325 329 331 331 331 330
339 339 340 337 338 338 338 339 339 338 339 336 335 332 329 330 340 340 339 338 339 339 338 337 338 337 335 338 339 337 335 337 335 332 330 329 330 330 331 332 332 333 334
337 337 339 340 338 338 338 338 338 337 336 334 334 336 335 336 338 337 336 337 336 336 337 337 338 336 332 331 333 329 337 335 331 331 331 331 331 331 332 332 333 333 332
335 336 337 336 338 338 338 338 337 336 335 335 336 336 336 337 336 337 336 334 334 336 337 335 336 335 332 332 332 334 331 334 333 333 333 331 331 332 332 332 331 330 329
333 335 334 335 336 336 336 336 335 335 335 335 333 330 330 333 331 330 334 332 331 333 335 333 334 334 331 330 332 332 332 330 330 331 331 330 330 329 327 326 325 323 321
335 334 333 333 334 334 334 334 334 334 334 334 333 332 332 332 330 331 329 327 326 328 327 328 330 331 332 334 334 333 331 331 329 327 327 325 323 321 321 321 319 317 315
336 335 335 334 334 334 335 334 334 333 333 333 332 331 332 332 331 333 333 331 325 331 329 331 332 332 333 333 331 327 326 326 322 322 321 317 318 318 319 319 319 319 318
336 336 335 335 334 332 331 330 330 330 330 330 330 331 330 329 328 326 326 326 329 331 331 331 332 332 331 328 327 324 322 321 320 319 318 313 314 316 315 316 316 315 314
333 332 333 332 332 331 330 331 331 328 327 327 326 326 323 323 324 324 323 322 321 322 325 330 330 328 325 320 319 316 312 310 312 314 314 314 315 314 313 312 310 310 308
332 330 325 329 332 332 331 330 329 328 328 326 325 324 323 322 322 321 321 318 313 312 311 310 309 308 308 308 310 311 315 315 313 312 311 311 310 310 310 306 308 309 308
329 328 327 324 330 331 328 328 327 327 325 324 322 317 315 316 318 317 318 316 312 311 310 310 311 313 314 314 313 311 309 309 309 308 310 309 309 308 307 308 308 307 305

GFSMA_850_thetae_003.txt.gz
Theta_e
338 339 338 338 337 339 341 339 341 344 343 345 346 347 345 340 343 342 345 345 343 340 330 333 334 335 336 337 337 336 336 335 337 337 336 334 332 332 330 331 333 331 329
341 337 339 338 336 339 339 338 339 346 348 346 345 345 345 345 343 344 345 343 341 340 330 331 334 335 334 335 338 338 339 337 337 336 337 335 334 333 332 331 332 332 331
344 342 342 340 340 338 337 337 339 344 346 344 345 345 344 345 346 345 344 345 343 343 337 332 331 334 337 336 335 337 338 339 338 335 337 337 336 336 335 333 332 333 332
342 341 342 342 339 340 337 336 339 341 343 343 345 345 346 346 347 344 346 345 345 343 340 336 331 334 338 339 336 334 334 338 339 337 336 335 337 336 336 335 334 334 334
337 338 338 340 339 338 337 336 337 340 343 343 343 344 344 345 344 344 344 346 344 342 339 336 336 335 338 339 338 338 336 332 335 337 337 336 335 338 337 337 336 335 335
340 340 338 339 341 339 336 334 336 339 339 343 343 342 343 344 346 346 344 344 344 344 345 342 339 337 338 339 338 338 338 337 337 338 338 338 337 337 338 338 337 335 334
339 340 338 338 339 339 338 336 336 338 336 341 343 344 341 342 342 341 342 343 345 344 344 341 342 343 339 339 339 339 339 338 337 338 339 338 338 339 338 337 337 337 335
338 338 338 337 338 339 338 340 337 338 338 342 340 340 341 341 341 343 344 343 344 344 343 343 342 342 341 339 338 340 339 336 338 338 339 338 338 338 339 337 337 337 336
337 337 337 337 337 338 339 339 341 337 338 340 340 337 340 341 340 341 342 343 345 343 341 341 342 341 341 341 338 340 339 335 338 336 339 339 339 338 337 337 337 336 336
334 337 338 338 337 338 339 340 341 340 337 339 338 337 338 340 341 340 342 342 342 343 342 343 343 342 342 342 341 341 341 334 337 335 336 335 338 338 338 337 336 335 335
335 338 338 338 337 339 338 340 339 340 339 339 339 337 337 339 341 340 339 340 340 342 341 343 343 342 342 341 341 341 340 337 336 336 336 335 337 337 338 338 338 337 337
336 335 337 338 337 337 338 338 339 339 338 337 338 337 337 340 340 339 341 340 340 340 340 343 343 341 341 341 340 339 338 336 336 337 337 335 333 336 339 339 339 338 337
337 337 337 339 338 336 338 338 338 339 339 338 339 338 338 339 339 341 341 340 340 340 342 342 340 339 338 338 339 338 339 338 337 337 336 337 336 337 337 341 340 337 335
337 337 337 337 338 337 337 337 338 340 340 339 339 339 339 339 340 341 341 339 339 341 341 341 341 341 340 338 336 340 340 341 340 337 337 336 335 334 335 338 338 335 334
336 336 337 337 338 337 336 336 338 339 340 339 339 338 339 340 335 339 338 339 339 339 339 340 340 340 340 338 340 339 336 340 340 339 338 336 332 331 334 334 328 321 320
337 337 337 338 339 338 338 337 338 338 339 339 339 339 340 339 336 337 337 336 340 339 338 339 340 339 337 338 338 339 335 335 337 337 332 329 330 332 325 324 326 326 326
337 338 338 337 337 339 338 338 338 339 339 339 339 340 338 339 332 335 336 337 338 339 339 338 338 338 337 338 332 334 329 333 334 334 331 329 328 326 330 331 332 333 333
335 337 339 336 337 337 337 338 338 336 338 337 335 334 332 330 333 337 337 336 337 337 336 337 337 337 337 334 333 329 329 330 333 334 331 330 330 331 331 332 333 333 333
334 336 336 339 338 337 337 337 336 336 335 333 334 336 334 332 334 336 336 335 336 335 335 336 335 336 334 330 330 329 333 335 331 331 330 331 332 332 331 332 332 332 330
334 334 336 336 336 337 337 337 336 335 335 335 336 336 336 335 334 334 334 332 335 333 332 333 332 334 331 332 331 331 332 332 333 333 332 331 330 329 329 327 325 325 323
333 332 332 333 333 334 334 334 334 334 334 334 334 333 332 330 331 331 331 332 331 329 327 328 329 329 331 331 333 331 331 329 327 326 326 325 323 323 322 322 322 321 319
334 333 333 333 334 334 334 334 334 334 333 332 332 332 332 332 332 333 331 329 328 329 327 328 329 330 332 330 331 332 330 330 328 327 325 321 318 319 319 318 319 319 318
334 334 333 333 333 332 332 330 329 330 331 331 331 331 332 332 332 331 330 329 327 327 330 330 329 331 330 329 327 327 325 324 324 323 321 317 317 317 316 316 316 316 315
331 332 334 333 332 330 330 330 331 328 328 328 328 327 324 325 325 323 323 322 321 322 328 330 329 329 328 326 324 322 321 320 319 316 315 313 313 314 313 313 312 311 308
330 325 327 329 332 330 330 328 329 328 327 326 325 324 322 322 323 323 320 318 316 315 311 310 309 309 309 309 310 311 313 314 313 313 312 312 312 311 310 308 307 308 308
329 326 324 327 330 330 329 328 327 327 327 326 322 320 319 319 320 318 317 315 313 312 312 313 314 315 314 315 316 315 312 309 309 309 310 309 309 308 307 307 307 306 305

GFSMA_850_thetae_006.txt.gz
Theta_e
339 342 338 337 339 338 337 339 339 341 342 342 344 344 343 339 335 340 341 343 344 342 337 331 334 336 336 336 335 335 336 336 338 335 337 333 332 330 330 334 332 330 328
340 338 338 338 339 337 337 337 338 341 345 343 345 345 345 342 339 340 344 343 344 342 340 330 333 334 334 336 337 337 336 335 336 338 337 336 333 332 330 330 335 334 330
340 343 341 337 340 340 336 337 337 339 345 346 345 344 345 345 344 342 342 343 345 341 340 330 330 333 334 334 335 337 337 339 338 337 337 337 336 334 333 331 331 332 333
338 341 343 341 341 342 340 338 336 338 342 345 345 345 345 344 343 345 344 344 344 344 343 340 332 331 333 336 335 335 336 338 339 338 335 336 337 336 336 335 333 333 333
336 341 339 339 338 340 339 339 336 337 341 343 342 344 343 343 343 344 344 346 344 345 343 340 338 333 332 336 339 336 334 334 334 336 337 337 336 336 337 336 335 334 334
341 339 338 337 338 338 339 338 336 337 340 343 342 342 343 344 345 344 345 343 345 344 343 342 337 337 336 336 339 339 338 336 338 334 337 337 338 335 337 337 336 336 335
339 338 338 338 337 338 339 337 336 336 339 341 343 342 342 342 343 343 345 343 343 344 343 345 342 340 338 337 339 338 338 338 339 338 338 338 338 337 338 337 337 337 336
342 341 338 338 337 337 338 339 336 334 337 337 340 341 341 342 341 341 342 342 343 343 344 344 343 342 341 340 340 339 339 339 339 338 338 339 338 338 339 339 337 337 337
338 338 337 336 337 336 338 338 339 336 338 337 337 340 338 339 340 340 342 342 344 343 344 342 342 342 341 343 341 339 340 339 340 337 337 338 339 339 338 338 339 337 337
336 336 336 337 337 337 337 338 338 339 337 339 339 341 338 341 340 339 339 343 342 341 342 343 342 341 341 342 341 341 340 338 340 336 338 336 339 339 339 338 337 337 337
337 337 334 336 338 337 336 337 339 339 340 338 338 339 338 339 339 340 338 334 335 339 339 341 341 342 343 342 342 341 341 340 341 337 337 336 337 335 338 338 338 337 336
337 336 335 337 338 338 337 337 338 339 340 341 340 339 338 337 338 339 338 335 334 339 339 340 341 343 343 342 341 340 341 341 340 335 335 337 336 335 334 337 338 338 337
337 335 335 336 337 337 337 338 338 338 339 340 340 339 338 337 339 339 338 335 337 340 339 341 342 342 340 341 340 340 340 341 339 336 336 337 337 335 334 335 337 339 338
337 337 337 337 338 338 337 337 337 337 338 339 339 338 338 338 338 338 338 337 339 339 340 339 341 339 339 338 338 339 339 339 338 336 337 337 336 337 336 336 337 339 338
336 336 336 336 336 337 338 337 336 336 337 339 340 339 339 339 338 338 337 338 339 339 338 339 340 339 339 337 337 340 339 338 340 339 338 336 335 335 334 334 336 337 337
337 337 338 338 338 338 337 336 336 337 338 339 339 339 339 338 339 339 337 338 337 337 338 338 339 339 340 337 336 338 336 332 332 336 339 337 335 332 331 334 333 326 322
337 338 337 337 337 338 338 337 336 338 338 339 339 339 338 339 339 337 336 335 334 337 338 337 338 338 339 337 337 336 334 333 331 329 334 331 329 330 327 324 326 328 329
336 338 337 337 338 338 337 338 338 338 339 339 339 339 339 339 337 335 335 336 335 336 337 337 336 337 337 337 336 334 330 327 331 330 331 331 329 328 329 330 332 333 333
335 336 338 337 337 337 338 338 337 337 337 338 337 335 335 334 332 333 335 336 337 336 336 336 337 336 335 334 332 330 327 328 328 328 332 332 331 331 333 333 332 332 331
334 335 335 336 337 337 337 337 337 336 336 335 337 337 336 334 334 335 336 334 334 332 331 332 332 334 333 331 331 330 331 333 333 333 334 333 332 331 330 329 329 329 325
332 332 332 333 334 334 334 335 335 334 334 335 335 334 333 333 333 334 334 333 331 331 331 330 329 329 330 331 329 329 330 328 327 329 328 328 327 326 325 324 322 321 320
332 332 333 333 333 333 333 333 333 333 333 333 333 333 333 332 331 331 331 331 331 330 330 328 328 327 326 329 331 331 330 326 324 323 323 325 323 321 320 320 320 320 319
333 333 333 332 332 332 331 330 329 331 332 332 332 332 332 333 332 332 332 331 329 329 328 327 328 329 330 330 330 330 330 329 328 326 324 321 320 319 319 318 317 316 315
331 331 330 332 332 331 330 331 329 327 328 328 329 326 325 326 326 324 323 322 322 326 329 330 330 329 328 328 328 326 325 324 323 321 319 317 316 316 316 314 312 311 309
328 325 327 329 330 330 329 327 327 326 327 327 326 324 323 322 321 317 314 316 314 311 311 315 319 319 316 315 316 315 316 316 315 315 314 314 313 313 311 309 308 308 308
330 325 323 325 329 329 327 327 327 325 326 324 321 320 318 319 318 315 315 313 313 313 312 313 313 313 313 314 313 312 311 313 313 312 311 310 310 310 310 308 308 308 308

GFSMA_850_thetae_009.txt.gz
Theta_e
338 337 340 337 337 338 338 338 338 338 340 341 341 341 340 336 336 342 343 342 342 343 342 335 335 335 335 335 335 336 336 334 335 334 333 334 332 331 333 335 330 328 325
339 339 341 339 337 337 338 337 337 337 338 342 341 342 343 341 337 338 340 342 340 343 342 338 332 335 336 336 336 336 335 336 336 338 336 337 333 332 330 331 335 331 329
340 339 339 339 339 338 339 336 337 337 338 344 343 345 343 344 341 338 335 341 342 343 342 341 333 333 334 334 335 337 336 336 336 336 337 337 337 335 332 330 333 336 333
337 333 338 342 340 338 340 339 336 337 337 344 344 344 344 344 344 343 340 340 341 343 343 341 337 330 333 334 334 335 336 337 338 338 337 337 337 337 336 333 331 332 332
337 336 336 341 342 340 340 341 339 337 336 340 344 344 344 343 342 343 344 340 343 343 344 343 342 334 332 332 335 336 334 334 336 337 336 337 336 336 337 336 335 333 333
340 339 337 340 338 337 336 339 339 338 336 340 343 343 343 342 343 343 344 343 344 344 344 344 342 341 337 332 333 338 338 336 335 336 336 337 337 337 336 337 337 336 335
340 339 339 337 337 336 335 338 339 338 336 340 342 340 340 343 344 344 344 345 343 343 344 344 343 341 338 337 336 336 339 338 337 337 338 337 337 337 338 335 337 337 336
340 340 339 337 337 337 336 339 338 337 336 340 341 339 340 342 342 342 343 344 342 342 342 343 343 344 342 342 340 337 338 339 339 339 339 338 338 338 338 337 338 338 337
339 340 340 339 338 337 336 336 339 337 335 337 339 339 340 340 340 341 340 342 343 343 343 343 342 343 343 344 341 341 339 340 340 340 340 338 337 338 338 338 338 339 337
337 338 338 337 337 336 336 336 337 339 335 335 337 338 339 338 339 340 340 342 342 342 339 340 342 343 343 342 341 341 342 341 340 341 340 339 337 337 339 339 339 338 339
336 336 336 336 335 336 337 336 337 339 339 336 337 337 339 339 340 339 338 338 339 336 338 339 339 342 342 341 341 342 341 341 341 339 339 340 337 338 337 338 338 338 338
338 337 337 337 335 336 337 337 336 338 337 338 337 338 338 338 338 336 337 338 336 334 339 339 338 340 341 342 342 342 342 341 341 340 340 340 337 337 335 334 335 337 338
337 336 335 335 336 337 338 337 336 337 338 339 339 338 338 338 338 337 337 338 337 335 338 339 339 340 342 342 341 341 341 340 341 341 340 336 335 337 337 335 334 337 336
337 337 335 335 336 337 337 337 337 337 338 338 339 339 339 339 338 337 338 338 336 336 338 339 338 339 337 339 339 339 339 339 339 339 339 337 337 338 336 336 334 336 336
335 335 336 336 336 338 338 336 336 336 337 337 338 338 339 339 338 337 338 338 336 338 338 338 338 339 339 338 337 339 339 339 338 339 337 337 337 336 337 336 335 335 336
338 337 336 337 337 337 337 338 336 336 336 336 337 338 339 339 338 339 339 337 337 338 338 338 337 338 339 339 339 336 340 338 336 337 338 338 336 336 335 334 333 334 335
337 336 336 336 337 338 338 337 336 336 337 337 338 339 339 339 339 339 339 338 337 338 336 336 336 337 338 339 339 337 337 335 334 333 333 332 335 331 330 331 333 329 324
337 338 336 337 338 338 338 337 336 336 337 338 339 338 339 338 338 338 338 337 336 336 334 336 337 337 336 337 337 335 336 334 329 329 328 328 329 329 330 326 326 329 331
336 337 337 336 337 337 338 338 338 338 339 339 339 339 338 338 339 338 337 335 336 336 335 335 336 336 336 335 333 332 330 328 327 327 330 332 331 330 330 330 331 332 332
334 335 336 337 337 337 337 337 336 336 336 337 336 336 336 335 333 333 333 334 335 336 334 333 334 334 334 333 332 330 330 330 331 328 327 331 332 332 332 332 331 330 330
332 332 333 333 334 334 334 334 335 335 335 335 336 336 334 332 332 333 333 334 333 332 330 330 330 330 330 331 330 331 330 330 329 328 327 328 327 328 326 325 324 323 321
331 332 333 332 333 332 332 332 333 333 333 333 333 333 333 332 332 332 331 331 331 331 331 330 330 329 329 328 328 329 328 330 326 322 323 325 326 322 320 320 320 320 320
333 333 332 332 331 331 330 330 330 331 331 332 331 331 331 331 331 331 331 331 328 328 329 328 327 328 329 329 330 329 330 329 324 323 321 321 321 319 319 319 319 318 316
331 331 331 331 331 330 330 328 327 327 328 329 328 326 326 326 325 323 322 322 324 327 329 330 328 328 328 327 327 326 327 327 325 325 322 318 319 319 319 318 315 311 310
327 324 325 328 330 329 327 326 326 326 327 326 324 323 322 322 318 314 314 315 316 317 321 321 322 316 312 315 315 314 315 316 317 316 314 314 315 314 311 309 309 308 307
329 325 323 325 329 328 326 325 324 324 325 324 321 320 318 317 315 314 315 313 313 313 313 313 313 313 313 313 314 314 312 312 312 311 311 310 310 309 308 308 308 308 308

GFSMA_850_thetae_012.txt.gz
Theta_e
335 334 334 339 338 338 338 338 337 338 340 341 343 341 340 337 336 337 343 340 338 341 338 337 336 335 334 333 334 333 333 333 333 333 331 333 332 333 331 330 328 326 325
339 338 337 338 338 337 338 338 337 337 338 340 342 341 341 340 337 335 339 343 340 341 342 342 337 334 335 335 336 335 336 335 335 336 334 334 334 332 331 334 334 330 328
340 339 339 339 340 338 337 338 337 336 337 338 343 342 342 342 342 338 336 341 342 341 341 343 341 333 334 336 337 336 336 336 336 336 337 336 336 336 333 330 331 335 332
343 341 340 339 340 339 339 338 339 336 336 337 343 344 344 344 343 343 339 336 337 342 342 343 341 341 332 334 335 335 336 337 336 337 337 337 337 337 336 333 331 331 335
340 342 338 333 337 341 340 338 340 339 336 336 343 343 344 344 344 343 343 339 337 339 341 343 342 342 335 331 333 334 334 335 336 337 338 338 337 336 336 336 335 333 332
338 338 339 338 336 340 341 340 339 340 339 336 339 344 343 344 343 343 343 344 344 342 342 343 344 343 342 334 331 332 335 338 335 335 336 336 337 337 336 336 336 336 335
336 337 340 338 337 340 338 337 336 339 339 336 339 342 342 341 341 343 343 343 343 344 344 344 344 344 342 341 338 332 334 336 339 337 337 337 337 337 337 337 336 336 336
339 339 338 339 338 337 336 336 336 337 339 337 338 341 340 340 342 343 344 344 344 343 343 343 343 343 343 342 338 338 338 336 338 339 338 338 338 337 337 337 338 336 337
338 338 337 338 339 337 337 337 336 337 338 337 338 340 339 339 340 340 341 342 342 342 341 341 342 342 342 343 343 342 343 341 337 339 339 340 339 339 337 338 338 338 339
336 336 338 338 339 338 337 336 336 337 338 337 336 339 339 338 339 340 341 340 341 342 341 341 341 341 342 343 342 342 342 341 341 339 340 341 340 339 337 338 339 339 339
333 335 336 336 337 336 336 336 336 336 338 338 336 336 338 339 339 338 338 338 339 341 341 337 338 338 340 342 342 341 341 340 341 342 341 340 340 340 337 336 338 338 338
337 337 336 336 336 336 335 336 336 336 336 338 337 336 338 337 339 339 338 337 337 336 335 335 338 338 340 341 340 341 342 342 341 341 341 341 338 340 338 337 336 336 336
336 336 337 337 337 337 334 337 337 336 336 338 337 337 337 338 338 338 338 337 336 337 337 336 339 339 340 341 342 342 341 341 341 341 341 341 340 340 338 337 336 335 335
337 336 334 334 335 336 336 337 337 336 335 336 337 337 337 337 338 338 338 337 337 338 337 337 339 339 340 340 339 340 340 339 339 340 341 341 340 337 335 337 337 335 335
336 336 336 337 336 336 337 338 337 336 336 336 337 338 338 338 338 338 338 337 338 337 337 337 338 338 339 340 338 338 338 338 338 338 338 339 338 336 337 337 336 336 335
337 337 336 336 336 336 337 337 337 336 336 336 336 337 337 337 339 339 338 337 338 338 338 337 337 337 338 339 339 339 337 337 338 337 338 338 336 337 336 335 335 335 335
337 337 336 336 337 337 337 337 337 336 336 336 336 336 336 338 339 339 338 338 338 338 337 337 336 337 337 338 338 339 337 337 336 333 332 335 334 334 335 333 333 332 334
338 336 337 337 337 338 337 337 336 335 336 337 337 337 338 339 339 339 339 338 338 338 337 336 335 336 337 336 337 337 336 334 332 331 329 329 333 333 330 330 330 329 325
335 337 337 337 337 337 338 338 338 338 338 338 338 338 338 338 338 338 338 337 337 336 336 335 335 335 336 336 335 332 330 329 327 328 328 330 330 330 328 328 328 328 331
333 334 336 336 336 336 336 336 336 336 336 336 337 337 337 337 337 336 335 335 335 335 336 334 334 334 333 331 331 332 330 327 327 329 326 329 332 328 323 323 331 331 330
332 332 332 332 333 332 332 333 333 335 335 335 336 336 335 334 334 333 333 333 333 334 331 330 330 331 332 331 331 331 330 329 330 330 328 326 328 329 328 327 328 327 321
332 332 332 332 332 332 332 332 332 332 332 333 333 332 332 331 331 331 331 331 331 331 331 330 330 329 329 329 329 328 328 329 328 326 325 321 319 316 315 315 315 316 317
332 332 331 331 330 330 329 329 330 330 331 331 331 330 330 331 330 330 328 328 326 327 328 328 328 327 328 329 328 328 325 325 325 322 322 320 319 320 319 319 319 319 317
331 330 329 330 330 329 327 327 327 327 328 328 327 325 325 324 321 320 321 323 324 326 327 327 325 325 325 325 326 325 325 324 323 322 322 320 320 319 317 317 317 317 313
328 324 324 327 329 327 325 325 325 326 326 324 323 322 321 318 314 313 315 315 314 314 312 313 314 314 312 311 311 312 313 315 316 316 316 316 316 316 317 317 314 312 308
330 325 324 325 327 325 324 323 323 323 324 323 321 320 317 316 314 314 315 314 315 314 314 314 313 312 312 313 313 313 313 313 312 311 310 310 310 309 308 307 308 307 307

GFSMA_850_thetae_015.txt.gz
Theta_e
337 339 334 337 339 339 338 338 338 339 340 341 342 342 340 340 340 336 340 342 340 341 335 337 336 334 334 334 333 332 334 334 331 331 331 333 334 335 331 330 329 327 324
339 338 337 336 338 338 338 338 338 338 338 339 341 342 342 341 339 338 336 339 340 338 340 338 339 335 335 335 334 334 333 333 333 333 333 332 334 332 333 332 331 328 326
338 339 340 339 337 339 338 337 338 337 337 337 338 341 341 340 341 338 336 336 342 342 339 341 342 342 334 335 335 336 335 335 336 335 336 335 335 336 333 331 333 334 330
339 341 341 340 339 339 340 338 339 338 337 336 336 339 343 341 342 343 342 336 337 342 342 341 342 343 340 334 335 336 336 337 337 336 336 337 337 337 337 334 332 331 334
339 341 340 342 340 339 340 340 340 339 339 337 336 337 343 343 344 344 343 343 338 338 338 340 342 343 341 340 333 334 336 335 336 337 337 337 337 337 337 337 335 333 331
338 338 338 340 338 334 334 337 340 341 339 339 337 336 341 344 344 344 343 343 342 338 337 337 341 342 343 343 339 331 334 335 336 335 336 337 338 338 337 337 337 336 335
338 337 337 338 339 340 337 336 339 340 340 340 339 336 338 343 343 344 343 343 343 343 343 343 342 342 343 344 342 340 332 333 334 338 337 335 336 337 338 338 337 337 337
339 339 339 337 337 339 338 337 338 338 339 339 340 336 341 340 341 341 342 343 342 343 343 344 344 344 344 343 342 341 341 336 337 337 339 339 338 338 338 337 337 338 338
336 338 339 338 339 339 338 336 336 336 340 339 339 337 340 340 341 339 340 342 343 343 344 343 343 343 343 343 343 343 341 339 340 341 338 339 339 339 339 338 337 338 338
336 335 335 338 338 337 338 338 336 337 337 339 338 337 339 338 339 339 339 339 341 341 342 341 341 341 341 342 343 342 342 343 342 343 341 338 339 340 340 340 338 338 339
336 337 334 335 336 338 338 338 336 338 336 338 338 340 337 339 339 339 341 340 340 339 340 341 340 338 338 339 340 342 343 343 342 341 341 341 340 341 340 340 338 337 338
335 337 337 336 336 336 337 337 336 336 337 336 339 340 336 337 338 338 338 338 339 338 338 339 337 335 337 339 339 340 341 342 341 341 341 341 342 341 341 340 338 337 336
335 336 336 337 336 336 336 336 336 337 337 336 336 338 339 335 337 337 337 340 340 339 336 336 336 336 339 339 340 340 342 342 342 341 341 341 341 341 339 339 339 337 337
336 336 335 334 336 337 336 335 335 337 337 336 336 337 338 337 336 338 338 337 338 340 339 338 337 338 339 339 340 341 340 341 341 340 340 340 340 341 340 339 338 337 337
337 336 336 336 335 335 336 336 336 337 337 336 335 336 337 337 337 335 338 338 338 338 340 341 337 338 338 339 340 339 339 338 338 338 338 338 339 340 339 338 335 337 337
336 337 337 337 337 336 336 338 338 337 337 336 336 336 337 338 338 338 337 338 339 338 338 338 338 337 337 337 338 340 339 338 338 338 338 338 339 338 337 336 337 337 337
337 336 337 337 337 338 337 337 338 337 336 336 336 336 336 337 337 337 339 339 338 337 337 338 337 337 337 336 337 338 338 337 338 336 334 337 338 337 337 336 335 335 334
337 336 337 337 338 338 337 337 337 337 336 336 336 336 336 337 337 338 339 340 338 337 337 338 337 336 335 337 337 337 337 336 334 334 332 330 332 335 334 332 331 331 331
335 337 337 337 337 337 338 338 338 337 337 338 338 338 338 338 338 339 339 339 337 335 336 336 336 335 334 336 335 333 331 329 329 330 330 329 330 330 330 330 329 327 327
333 334 335 335 335 336 336 336 337 336 335 335 335 336 337 336 336 336 335 334 336 336 335 333 334 333 333 332 331 331 331 330 329 328 328 327 330 330 328 327 327 329 328
332 332 332 332 332 332 332 332 333 334 335 335 335 335 335 335 334 333 333 333 333 332 331 331 330 331 331 330 330 331 331 330 329 328 328 326 325 327 325 323 323 321 321
332 332 331 331 332 331 331 331 332 332 333 333 333 332 331 331 331 331 331 331 331 330 330 330 330 329 329 329 328 328 328 328 326 325 324 322 322 325 323 319 317 317 318
331 330 330 330 330 330 328 328 330 330 330 331 331 330 331 330 329 328 327 326 326 327 328 328 328 327 327 327 327 327 326 325 325 323 322 321 321 320 320 320 318 318 319
330 328 327 328 329 328 326 327 327 327 328 327 325 325 324 321 320 320 322 322 323 322 321 322 322 321 322 323 323 322 324 323 322 321 320 319 318 318 317 317 317 317 316
329 327 327 326 326 325 324 325 324 326 324 323 322 320 318 316 314 314 314 314 314 314 314 314 314 314 314 314 313 312 312 315 314 314 315 315 316 316 315 315 315 313 311
329 326 325 326 326 324 323 323 323 323 324 322 320 318 317 316 314 315 316 315 316 315 313 313 312 311 311 311 312 312 311 311 313 313 311 310 310 309 309 308 308 308 307

GFSMA_850_thetae_021.txt.gz
Theta_e
344 340 337 331 334 339 343 346 347 344 347 349 345 348 346 342 342 345 347 345 345 341 340 340 338 334 333 335 334 333 335 332 331 331 332 331 332 332 331 333 329 328 329
342 340 337 335 332 335 341 346 349 346 347 348 346 344 346 346 347 347 344 346 345 344 341 340 339 338 335 334 335 335 333 333 334 335 330 331 332 333 333 332 330 327 328
346 341 341 340 334 334 338 335 347 347 349 347 347 349 347 347 346 346 344 344 347 345 343 341 338 337 334 334 336 337 336 335 335 335 335 333 333 332 334 333 333 330 329
346 346 346 344 341 337 333 338 346 345 345 348 347 347 347 346 347 347 347 348 345 345 345 342 339 337 336 337 338 336 338 337 336 336 335 336 335 335 333 335 334 333 333
349 348 346 346 343 342 345 343 345 347 345 345 347 347 346 345 346 347 346 347 344 345 346 344 345 343 340 341 340 340 334 337 338 338 337 337 337 337 338 337 338 336 333
346 343 342 343 342 347 346 343 344 346 344 344 342 343 345 346 348 348 347 344 344 344 346 347 347 343 341 342 340 341 341 337 336 338 337 337 338 338 338 338 338 337 337
348 348 346 347 345 343 346 347 346 344 345 345 345 345 342 342 343 348 348 345 345 345 343 345 347 347 343 339 339 340 342 342 338 334 336 332 334 335 336 337 338 338 338
346 345 343 343 343 342 343 344 346 344 343 343 344 343 341 338 340 347 344 344 346 344 346 344 346 346 342 339 345 346 344 343 343 341 335 335 334 334 337 338 337 337 338
345 344 344 342 340 341 341 342 341 340 341 342 343 343 340 338 338 345 348 345 349 347 344 345 346 345 344 344 345 345 344 344 344 342 342 337 334 335 336 338 339 337 338
342 343 341 341 340 341 339 341 340 342 340 339 344 345 342 342 344 342 347 347 346 345 343 343 344 344 345 344 346 346 345 344 344 344 343 342 341 339 338 339 339 339 338
345 341 343 341 341 340 339 339 341 341 342 342 341 340 344 342 343 344 346 340 346 347 348 348 345 347 347 350 348 347 347 348 347 346 343 343 342 342 341 343 342 339 339
342 341 342 340 342 339 339 337 340 341 340 340 338 338 341 342 341 344 341 340 340 343 346 347 347 348 348 348 348 346 345 344 344 344 344 342 343 343 343 342 341 341 339
343 340 341 340 340 338 338 338 339 340 340 338 337 337 340 341 341 342 342 340 342 342 340 337 343 344 345 346 346 345 347 343 340 341 341 341 342 342 342 342 342 342 341
342 341 343 343 344 342 340 341 340 339 341 338 336 337 338 338 342 341 341 340 342 342 341 339 343 346 344 343 343 343 339 338 339 340 340 341 342 341 341 342 342 342 341
340 339 342 343 343 342 342 341 342 341 339 339 338 338 339 339 342 342 341 342 341 341 340 340 337 340 343 341 338 337 337 338 338 339 339 339 339 339 339 340 340 341 341
340 338 338 339 343 341 341 341 339 339 340 340 340 340 339 338 340 340 342 343 342 341 340 337 337 338 339 338 338 337 337 337 337 338 338 338 337 338 339 339 339 339 339
340 341 338 338 338 340 341 340 339 339 340 339 336 338 338 337 338 342 343 343 341 341 340 339 340 340 339 337 337 337 337 337 337 338 338 337 337 338 338 337 337 337 337
340 338 341 341 339 338 338 338 337 342 343 340 341 342 343 343 339 338 339 340 341 339 340 340 340 338 335 337 335 335 333 334 334 333 332 332 332 332 333 333 334 334 334
337 342 339 338 338 338 338 338 338 337 337 338 339 337 341 339 339 339 339 338 338 338 338 337 337 335 336 335 335 332 332 331 331 331 330 329 330 330 330 330 330 331 331
335 334 339 341 337 338 336 336 336 336 336 336 336 336 336 336 335 336 336 335 335 335 335 335 335 334 333 332 331 330 331 331 330 329 329 329 328 328 330 330 328 328 327
333 330 333 338 336 333 333 333 333 334 334 334 334 335 334 334 333 333 333 333 334 333 332 332 332 331 331 330 330 330 330 329 328 327 326 326 326 326 326 324 323 324 323
332 329 329 330 331 330 331 331 334 332 332 332 331 331 331 331 331 331 331 331 331 331 331 330 330 330 329 329 328 328 327 326 326 323 323 323 322 323 323 322 321 320 320
332 329 326 329 329 327 327 329 330 330 330 330 329 329 328 327 326 326 326 327 328 329 329 328 328 328 327 327 327 326 324 324 324 322 322 322 320 320 320 320 319 319 319
332 330 327 328 327 326 326 326 327 329 329 328 328 325 324 323 322 321 321 322 324 324 322 322 325 324 323 322 323 323 322 322 322 321 321 320 319 319 319 318 318 317 316
332 330 330 330 326 325 324 325 327 327 326 324 324 322 319 317 317 320 319 318 318 318 317 317 317 317 316 316 319 321 320 321 318 318 317 318 316 315 315 314 313 312 311
332 330 330 327 326 325 323 324 325 325 324 321 319 318 318 317 318 321 322 321 319 318 317 315 315 314 313 313 314 315 314 317 318 317 314 316 313 313 313 312 311 309 307

GFSMA_850_thetae_024.txt.gz
Theta_e
345 346 345 345 344 343 338 344 345 343 345 346 343 348 344 343 348 347 348 348 345 344 341 337 336 336 333 334 333 332 332 334 332 331 332 332 333 332 332 331 330 327 329
341 342 341 339 337 336 335 338 338 334 341 346 344 343 346 347 345 342 346 347 345 343 343 340 339 337 335 334 334 334 333 332 333 333 333 330 331 333 332 333 331 331 329
345 342 344 341 342 342 335 338 339 335 332 345 347 345 346 341 345 345 344 342 344 345 345 342 340 339 338 336 334 334 335 336 334 333 335 335 333 332 333 334 333 332 329
347 345 346 347 345 343 337 334 337 336 335 346 347 347 347 347 344 346 345 345 345 347 346 344 343 340 336 336 334 337 336 338 336 335 336 335 335 334 334 333 334 334 333
345 344 346 344 348 346 342 342 339 339 339 343 342 346 345 346 344 346 342 344 345 347 347 346 344 344 339 337 336 337 338 339 337 337 336 336 336 337 337 337 335 336 336
346 346 343 341 341 342 340 344 341 342 344 346 340 342 343 345 345 344 344 342 343 343 344 347 347 344 344 344 341 340 340 340 337 335 336 335 336 337 338 337 337 338 338
346 345 344 344 342 341 344 341 344 344 337 343 346 342 344 345 344 344 342 339 339 343 343 344 345 347 346 344 339 339 340 339 341 339 335 336 335 333 334 336 337 337 338
343 342 342 342 343 343 341 341 342 345 344 345 344 344 342 340 342 343 342 343 343 340 344 344 343 344 345 345 344 340 340 342 342 342 341 334 335 333 333 334 336 337 337
342 340 340 340 340 341 340 340 339 341 343 343 341 341 343 341 342 344 343 343 346 346 345 345 344 344 345 345 342 341 343 345 343 343 343 343 340 336 334 334 334 336 338
345 344 341 340 340 340 340 340 339 340 340 340 339 340 342 344 343 342 344 346 345 344 344 343 343 344 344 345 344 342 339 343 344 343 342 342 342 342 341 338 336 336 337
344 344 342 340 340 340 340 339 339 339 340 341 339 339 342 339 342 341 344 342 343 343 346 342 344 342 341 339 342 343 346 344 346 347 345 344 342 342 342 342 341 340 341
344 340 339 340 340 341 338 340 338 338 340 341 341 341 339 339 341 342 341 339 342 340 344 346 346 345 344 346 345 334 344 345 345 343 340 342 344 342 342 342 342 342 342
342 340 340 341 341 341 339 339 338 338 339 339 339 338 338 337 340 342 340 341 339 342 341 341 342 342 340 344 339 343 336 339 340 339 338 340 341 341 341 342 342 342 342
342 340 341 341 341 342 341 339 338 339 339 339 339 335 337 337 339 342 340 340 339 342 341 341 341 342 345 344 341 338 337 337 337 338 338 338 339 340 341 341 341 341 341
341 340 338 341 341 340 341 341 342 341 339 339 338 337 337 338 338 343 342 341 340 340 341 340 341 337 334 337 338 337 337 337 337 337 337 338 338 338 338 338 338 339 340
341 340 338 340 340 341 341 340 341 339 339 341 340 340 340 340 339 340 341 343 342 341 340 340 339 338 337 337 338 337 337 336 336 337 337 338 338 338 337 337 338 338 338
340 342 340 341 338 340 341 340 341 340 340 340 338 340 340 339 337 337 337 337 340 339 338 340 341 339 339 338 336 335 334 335 335 335 335 336 336 337 337 337 337 336 336
340 339 339 338 338 339 338 337 337 339 337 338 338 339 339 339 339 339 340 340 341 340 340 338 341 340 339 335 335 334 334 333 333 332 331 330 330 329 329 329 329 330 330
337 337 337 336 337 338 339 336 337 337 337 338 338 338 338 337 338 342 339 338 338 338 339 339 338 337 335 335 334 332 331 330 330 330 330 330 331 329 328 330 330 330 329
337 333 337 335 334 334 338 336 335 335 335 335 335 335 335 335 335 335 335 335 334 334 334 335 336 335 333 330 330 330 330 330 329 328 329 328 328 327 327 326 325 324 326
331 327 335 334 333 331 332 337 336 333 333 332 332 332 332 332 332 333 333 334 333 333 333 333 331 331 331 330 330 330 329 327 327 326 325 325 324 324 325 324 323 322 322
330 333 330 329 328 329 330 331 334 335 332 331 330 330 330 329 330 331 331 331 331 331 330 330 330 330 329 329 328 327 326 325 325 323 323 323 322 322 322 321 321 320 319
333 329 328 326 327 325 326 327 331 331 330 329 328 327 326 326 325 325 326 327 328 329 329 328 328 327 327 327 326 325 324 324 324 323 322 322 321 321 320 320 319 318 317
333 330 327 324 326 325 326 326 328 328 327 326 326 326 324 323 321 320 320 321 321 320 320 321 324 323 324 323 321 319 320 320 318 318 319 318 317 317 316 315 315 315 314
334 332 329 328 325 325 324 327 327 326 325 324 323 322 320 318 320 321 321 319 318 318 317 317 317 316 316 318 319 321 321 320 319 318 317 317 315 312 311 310 308 308 309
334 332 330 327 326 325 324 326 326 325 324 322 319 318 318 318 321 323 322 321 319 318 317 312 310 308 309 313 316 317 315 316 318 317 315 316 314 313 314 313 310 307 308

GFSMA_850_thetae_027.txt.gz
Theta_e
341 344 344 344 343 342 339 343 343 344 342 342 344 344 344 340 343 346 347 346 345 345 341 338 335 334 331 332 332 330 332 333 332 330 330 332 332 333 333 329 328 333 329
343 341 340 341 342 341 337 336 335 339 342 339 336 343 344 343 341 345 346 346 346 344 343 342 339 337 335 333 334 333 332 332 333 333 332 330 330 331 333 332 331 331 328
347 344 344 343 341 341 341 340 335 340 336 334 338 342 343 342 342 342 345 345 346 344 343 344 341 339 339 336 335 334 334 334 333 333 333 335 333 332 332 332 333 332 331
345 346 344 342 343 341 341 338 335 336 337 337 335 335 343 344 343 342 342 342 342 342 344 344 344 341 339 338 337 335 335 336 335 335 334 334 334 334 334 333 333 334 334
347 346 345 344 343 343 345 344 341 341 336 336 336 338 339 345 346 344 343 344 343 344 343 345 345 344 343 340 337 336 334 337 337 337 336 335 335 336 336 336 335 333 335
339 345 346 345 343 342 342 341 340 342 340 337 340 342 341 341 338 345 343 342 342 341 344 345 346 345 344 344 340 337 336 337 339 340 336 337 336 336 336 337 337 337 337
341 341 340 340 341 342 343 341 341 342 341 341 342 341 341 344 344 343 342 344 343 342 342 342 342 346 346 344 343 343 341 340 340 340 340 335 336 337 336 336 337 337 337
342 342 340 340 339 340 340 341 340 341 340 341 341 336 335 342 342 340 341 344 342 339 342 343 343 344 344 345 346 344 344 339 340 340 341 340 336 336 337 335 333 335 337
343 343 343 342 340 339 339 339 339 340 340 341 341 343 341 339 339 341 343 344 341 341 343 344 342 343 344 344 344 345 344 342 341 342 342 342 342 340 336 335 335 334 333
342 345 343 341 341 340 339 339 339 339 339 339 341 342 340 339 340 341 342 344 341 343 344 343 342 341 342 344 345 343 343 342 340 344 344 341 342 342 342 342 340 338 336
343 343 339 339 340 341 341 338 339 339 339 339 340 340 339 339 342 341 341 341 341 344 344 345 342 343 342 343 344 343 343 342 340 343 343 342 342 342 342 342 341 342 341
343 341 340 341 340 341 340 339 339 338 338 339 340 340 339 339 340 338 341 339 338 339 340 343 343 341 344 342 340 336 335 335 338 341 343 341 340 341 341 342 341 342 342
341 340 340 341 341 341 340 338 338 338 338 339 340 340 339 338 339 338 340 340 338 339 343 341 340 340 342 340 335 336 338 334 333 333 336 337 337 338 339 341 341 341 342
340 339 339 341 340 340 341 341 340 339 338 338 338 338 336 337 337 338 341 340 339 340 341 340 341 340 339 338 338 338 337 336 337 337 338 338 338 338 338 339 340 340 340
340 338 339 340 340 340 341 340 341 341 340 339 339 338 337 336 337 338 341 341 340 339 339 340 340 339 337 337 338 337 337 337 337 337 337 337 338 338 338 338 338 338 338
341 340 340 338 340 341 341 341 341 341 340 340 341 340 339 339 339 339 341 341 340 339 340 340 339 339 338 338 337 337 335 334 334 336 336 336 337 337 338 338 338 337 337
335 341 339 338 337 338 337 337 337 338 339 339 338 340 340 339 339 339 339 338 337 340 340 340 339 339 338 337 335 334 333 334 334 333 334 334 334 332 332 332 333 334 334
335 337 336 334 335 335 337 336 336 336 337 336 338 338 337 338 338 338 337 337 336 337 337 339 339 336 337 335 335 333 333 333 331 331 330 330 330 329 329 330 329 330 329
335 332 333 333 333 332 335 335 336 336 336 335 335 336 336 335 336 337 336 337 337 337 337 338 337 335 335 333 332 331 330 330 330 329 329 329 330 328 328 329 329 328 327
332 333 332 331 331 330 331 332 333 333 334 334 334 334 334 334 334 334 334 335 334 334 334 335 335 333 333 329 329 329 328 327 327 327 327 327 326 326 326 325 324 323 324
329 332 329 330 329 329 328 328 330 331 331 331 331 331 331 331 332 333 333 333 332 333 332 332 331 331 330 329 329 328 328 326 325 324 323 324 323 324 324 322 321 321 321
335 329 326 328 326 327 329 329 328 330 330 328 328 328 328 329 329 329 330 330 331 330 330 330 328 328 328 327 327 326 326 324 323 322 321 321 320 320 320 320 319 319 319
337 329 325 326 325 325 326 327 327 326 326 327 326 326 326 324 323 324 326 327 327 327 327 326 326 325 325 325 325 324 324 323 323 322 320 319 318 318 317 316 315 315 315
334 331 326 326 325 325 326 327 327 326 326 326 326 324 323 321 320 319 319 320 320 320 320 321 322 323 324 322 320 320 319 319 318 318 317 316 312 312 310 308 307 309 308
336 333 330 326 325 325 327 328 327 325 324 324 323 320 320 320 321 322 321 320 319 318 317 316 316 316 317 318 319 321 318 320 319 318 317 314 312 312 311 309 307 307 306
335 333 331 328 325 324 325 326 326 325 323 322 320 320 318 319 322 322 322 321 319 313 311 309 309 308 308 307 314 317 314 318 320 317 316 312 314 313 313 311 307 307 306

GFSMA_850_thetae_030.txt.gz
Theta_e
338 341 341 342 339 342 340 338 340 340 343 341 341 342 339 337 338 344 344 346 347 343 343 341 337 336 332 330 330 330 332 330 330 329 332 332 331 331 331 328 325 327 336
343 342 342 340 340 341 340 339 337 336 335 342 341 339 340 341 338 342 344 345 345 344 345 342 339 337 335 331 332 332 331 332 333 332 330 331 332 331 332 332 330 330 331
344 347 345 343 344 343 342 340 340 340 337 338 340 339 341 341 342 340 343 344 345 345 344 343 342 341 338 337 334 334 333 332 332 332 332 332 331 330 330 332 332 332 330
346 345 345 345 343 343 342 342 340 335 339 338 334 335 335 337 341 341 340 341 343 342 343 342 342 344 342 340 339 337 334 334 334 334 334 333 334 335 332 332 332 333 334
346 346 346 346 344 343 341 340 341 341 339 339 336 336 336 337 341 344 342 341 341 342 342 342 342 343 344 343 340 339 337 335 335 336 336 336 334 334 335 335 334 333 333
340 339 343 344 343 342 342 341 340 340 340 341 337 336 339 337 338 338 339 344 342 343 342 342 343 343 344 344 344 342 339 337 335 337 338 339 337 335 336 336 336 336 336
343 342 342 339 338 339 342 342 341 340 340 341 341 337 340 341 341 339 341 343 343 341 341 344 342 343 343 344 345 344 343 339 339 338 340 340 339 337 337 336 336 336 337
343 341 340 341 342 339 339 340 341 341 341 341 341 340 341 339 339 342 342 343 343 342 340 340 341 342 342 342 345 345 344 344 343 343 340 340 340 338 335 336 337 336 335
341 342 343 343 341 340 339 339 340 340 341 340 340 340 338 334 335 339 339 340 340 341 341 340 341 342 342 342 343 343 344 345 345 345 341 341 341 342 342 341 337 337 336
342 343 343 339 339 339 339 339 339 339 339 340 340 341 338 338 338 340 340 338 341 344 342 341 342 341 341 342 342 344 344 343 343 342 341 343 344 343 341 342 342 342 341
342 341 340 340 340 340 339 339 338 339 339 339 339 340 341 342 340 340 337 340 341 342 343 341 344 343 341 341 342 342 342 340 341 340 339 341 342 340 341 342 341 341 341
340 340 338 340 340 340 339 339 339 339 338 338 339 339 340 340 339 339 340 338 339 338 339 339 342 341 340 341 341 338 336 335 336 335 337 337 338 338 337 337 337 340 343
338 337 337 339 340 339 339 338 338 338 338 339 339 340 340 340 339 339 339 337 339 338 338 341 340 339 340 340 335 335 337 336 336 336 338 334 334 334 336 336 336 337 340
337 337 339 340 340 339 340 339 339 338 338 338 339 338 339 339 338 339 339 338 339 339 341 340 340 340 339 337 337 336 337 338 334 332 336 335 336 337 337 338 338 338 339
337 339 338 340 340 339 339 339 339 340 338 338 338 338 337 336 337 338 338 339 339 339 339 340 339 338 338 337 337 337 337 337 337 337 337 337 337 338 338 338 338 338 338
336 338 337 337 339 339 339 340 340 340 340 340 340 339 339 338 337 337 338 340 339 339 340 339 339 338 338 337 337 337 336 336 335 336 336 336 336 337 337 337 337 337 338
334 337 334 335 337 336 336 336 337 337 337 337 339 340 340 339 339 339 339 339 340 338 337 338 338 337 337 336 335 334 334 336 335 333 334 334 334 333 331 331 330 331 332
326 331 333 334 333 336 336 336 335 336 336 335 335 336 336 338 338 338 337 337 336 336 337 338 336 335 335 334 334 333 333 332 332 331 331 330 330 329 329 329 329 330 329
327 330 331 331 330 332 334 334 334 335 335 335 335 335 334 335 335 335 335 336 336 337 337 337 337 334 334 332 332 331 330 330 330 329 329 328 328 327 327 328 328 327 326
324 328 329 329 328 328 331 331 332 332 331 331 332 332 333 333 333 334 334 334 334 334 335 337 334 332 332 329 329 329 330 329 328 328 327 326 326 326 326 325 324 323 323
326 327 328 327 327 327 326 327 328 328 329 329 330 330 330 331 332 333 333 332 332 332 333 335 331 331 329 329 328 328 328 327 326 325 323 323 323 322 322 320 320 320 320
330 326 326 326 326 326 325 326 326 326 326 327 328 327 326 326 326 327 328 329 329 329 330 329 329 329 328 327 327 327 326 325 323 322 321 321 320 320 320 319 318 318 317
336 329 325 326 325 325 325 326 326 325 325 325 325 325 322 321 322 324 324 325 325 326 325 325 326 325 325 325 325 323 323 323 322 321 319 318 318 317 316 315 315 314 313
338 332 326 326 325 326 325 326 326 325 325 325 324 323 321 320 320 319 319 319 319 319 319 322 323 324 324 323 322 321 322 320 318 317 316 312 311 309 307 306 308 307 305
338 334 330 325 325 326 326 327 326 325 323 324 321 320 320 320 322 322 321 319 318 315 313 314 316 316 316 318 319 320 319 318 318 317 315 312 311 310 308 306 306 305 305
336 333 333 327 325 325 326 326 326 325 324 322 321 319 319 320 321 321 320 319 314 311 309 309 308 308 308 307 305 317 314 317 319 318 316 313 313 313 312 307 306 306 306

GFSMA_850_thetae_033.txt.gz
Theta_e
338 339 341 344 342 341 343 340 337 338 339 342 341 340 338 337 334 334 342 342 343 344 342 342 342 335 334 328 331 331 330 329 329 329 329 335 330 331 330 329 325 327 329
343 341 341 342 340 339 339 340 339 338 338 337 336 342 342 339 341 336 339 342 343 344 345 343 343 339 336 334 330 330 330 332 331 330 330 335 334 332 332 332 328 326 328
343 341 344 345 341 342 342 342 342 340 340 341 339 337 340 338 341 341 338 340 342 343 343 344 343 342 339 337 336 333 333 332 331 333 333 331 330 331 331 333 332 331 330
338 343 346 345 344 343 341 342 342 341 340 337 338 337 340 339 338 340 342 340 341 344 345 343 342 341 342 341 339 338 337 335 334 332 333 333 333 333 332 331 332 333 332
342 340 341 344 344 343 343 342 341 340 341 339 337 337 334 335 335 337 342 341 340 340 341 341 341 341 341 342 343 340 340 338 335 335 335 335 335 334 334 335 334 333 333
342 341 341 343 343 344 342 342 342 341 340 340 340 341 337 336 335 338 340 344 344 342 342 343 342 344 343 343 342 343 342 340 338 336 336 336 336 337 336 336 336 335 335
343 343 343 343 340 339 339 339 340 341 340 340 340 341 338 336 340 337 338 339 338 342 342 342 341 344 343 342 343 343 343 344 342 338 337 336 339 341 339 337 337 336 336
343 341 341 341 341 342 341 340 339 339 339 340 340 341 340 338 339 340 341 339 340 340 342 340 341 340 340 341 342 342 343 345 345 344 341 339 339 340 341 339 337 337 337
341 340 341 341 341 340 339 339 339 339 339 340 341 341 339 338 339 338 336 338 341 340 340 341 341 339 340 341 342 343 343 343 343 344 345 345 343 340 341 341 339 338 337
341 341 340 340 339 338 339 339 340 339 339 339 341 340 340 338 337 336 340 339 339 339 339 341 342 340 342 340 341 341 342 343 343 343 342 343 341 342 344 343 342 342 342
340 339 339 337 339 339 340 339 339 338 339 339 339 340 340 339 338 339 337 338 339 340 342 342 342 342 341 341 340 341 341 338 337 335 338 341 341 342 342 340 340 341 341
338 336 336 338 339 339 339 338 338 337 339 338 339 339 339 340 340 340 340 339 337 339 338 338 339 341 340 340 341 337 339 335 335 336 337 337 338 338 339 339 337 337 337
335 336 338 339 339 339 339 338 338 337 337 338 338 338 339 340 341 340 339 339 338 337 339 338 340 339 339 339 340 338 337 336 336 336 335 336 337 336 336 335 335 335 336
336 337 339 340 338 339 340 339 339 338 338 338 339 339 340 340 340 339 339 339 337 338 338 340 340 339 339 338 336 336 336 337 336 334 334 335 336 335 336 337 337 338 338
340 339 336 339 340 340 340 339 339 339 338 338 338 337 338 337 336 336 338 338 338 338 339 340 340 339 338 337 337 336 336 337 337 337 336 337 337 337 337 337 337 337 337
333 331 335 336 337 337 338 338 339 339 339 340 339 339 339 338 336 337 338 337 338 339 338 339 339 338 337 336 337 337 336 336 335 334 334 334 334 335 336 336 336 335 334
326 331 332 334 336 336 335 335 335 336 336 337 339 339 339 339 339 339 338 338 340 338 338 338 339 337 337 336 335 334 335 333 333 333 332 333 333 333 331 330 330 330 330
328 330 330 331 334 335 335 335 335 335 335 335 335 335 335 338 338 338 338 338 338 338 338 337 336 335 334 334 334 333 333 333 332 331 330 330 329 329 328 328 328 328 328
326 328 328 327 330 332 332 333 333 333 334 334 334 334 334 334 335 335 336 337 337 336 336 336 336 334 334 333 332 331 330 330 330 329 328 328 328 327 326 326 327 325 325
324 327 327 327 327 328 329 330 329 329 329 330 330 331 332 333 333 333 333 334 334 335 336 336 335 334 333 331 330 329 328 328 328 327 327 326 326 326 326 325 324 323 322
326 324 326 325 326 326 326 327 327 327 328 328 329 330 330 331 331 332 331 332 331 332 335 332 332 332 330 329 328 328 327 327 326 325 323 322 322 322 322 321 320 320 319
331 326 324 325 326 325 326 326 325 325 325 327 326 325 324 325 325 326 326 327 328 328 329 329 329 329 328 328 327 327 326 324 323 321 320 321 320 320 320 319 318 317 316
335 331 326 325 325 325 326 326 325 325 325 325 324 320 320 321 321 321 321 322 323 324 324 326 325 325 326 326 325 324 323 323 322 321 320 319 319 317 316 315 314 312 310
337 333 330 326 325 325 326 327 325 324 324 324 323 320 321 321 321 320 319 320 319 320 321 324 324 324 322 322 322 322 321 322 320 317 316 312 311 309 307 307 307 305 304
339 335 331 326 325 325 326 327 326 324 323 323 321 320 320 321 321 321 320 319 317 317 316 316 316 315 312 314 318 319 319 318 318 317 316 312 310 309 307 306 304 304 305
336 335 332 328 325 325 326 326 326 325 322 322 322 320 319 320 321 321 320 318 312 312 310 309 309 308 308 307 304 311 317 314 316 317 316 314 311 311 310 307 305 305 305

GFSMA_850_thetae_036.txt.gz
Theta_e
340 339 338 340 344 343 342 343 338 338 338 340 342 340 337 338 338 333 331 343 343 342 341 342 340 339 334 330 329 335 332 328 328 328 328 333 332 332 330 328 332 326 328
342 342 340 341 341 340 339 339 340 339 338 338 337 338 340 340 338 338 335 336 341 341 343 344 342 342 340 335 333 329 330 331 330 330 329 329 335 333 331 331 330 326 326
342 343 342 342 343 342 342 342 342 342 342 339 340 340 339 340 342 338 341 338 339 342 342 344 343 344 342 339 337 335 331 331 331 333 332 330 330 332 334 332 331 331 329
343 340 339 343 345 343 342 341 341 342 341 341 338 337 336 337 341 339 341 342 339 339 341 343 342 342 341 341 341 338 337 336 334 334 332 333 333 332 331 331 332 332 332
342 342 341 341 342 342 343 342 343 342 341 340 340 337 336 336 337 338 337 338 341 340 341 342 342 342 341 341 341 342 342 340 338 337 335 334 335 334 334 333 334 332 332
343 340 340 341 340 341 342 341 340 341 340 341 341 340 339 339 336 334 335 337 342 342 341 340 341 342 342 342 343 343 343 344 342 340 338 335 336 337 336 336 334 335 335
342 342 342 341 341 340 339 341 339 338 338 340 341 340 339 339 338 336 336 338 340 343 343 342 342 340 341 344 343 341 341 343 343 344 342 338 337 336 338 339 339 337 336
342 342 340 340 342 342 342 342 340 340 338 339 341 340 339 340 340 336 339 337 338 340 339 342 340 339 339 339 340 342 341 342 342 344 344 342 341 337 337 340 341 339 337
340 340 340 339 339 338 338 339 339 339 339 339 340 341 340 339 339 339 339 338 339 340 341 341 341 340 339 339 340 340 342 342 342 342 343 343 343 342 341 339 340 340 339
341 339 338 339 338 339 339 339 340 340 340 339 339 340 341 339 337 337 338 338 338 339 338 339 340 340 341 341 341 340 341 341 343 344 343 343 337 341 340 341 341 341 341
338 337 335 336 338 339 339 339 338 339 339 339 339 339 340 340 340 338 337 338 338 339 340 340 341 341 341 342 340 340 341 342 338 336 336 337 338 342 341 341 341 341 340
336 335 336 338 338 339 339 338 338 338 338 339 339 339 340 340 339 339 339 337 339 338 338 338 339 339 340 340 340 340 340 338 336 336 335 336 337 337 338 339 339 339 338
333 335 338 339 339 338 339 338 338 338 337 338 338 338 339 339 339 340 340 340 339 338 337 338 339 339 339 339 339 340 339 337 336 335 335 335 336 336 336 335 335 334 335
333 334 337 339 338 339 340 339 338 337 338 338 339 339 339 339 340 340 340 339 339 337 337 339 338 338 338 338 337 336 336 336 336 337 335 334 334 336 336 337 337 337 337
327 333 336 337 338 339 339 339 339 338 338 338 338 338 339 339 339 339 339 339 339 337 338 339 340 339 339 337 337 337 336 336 336 336 336 335 335 335 335 335 335 336 335
330 331 333 335 336 336 336 337 337 338 339 340 339 339 338 338 336 336 337 338 338 338 338 338 338 338 338 337 336 336 336 335 334 332 332 332 333 334 333 332 332 331 330
330 331 331 334 335 335 335 335 335 334 334 335 337 338 339 339 339 337 337 338 338 339 338 337 337 338 337 335 334 334 334 333 333 332 332 331 331 330 329 329 328 329 329
329 329 328 331 333 333 334 334 334 334 334 334 334 335 336 337 337 338 338 339 339 339 338 338 338 337 335 333 333 333 332 331 332 332 330 329 329 328 327 326 326 326 326
327 326 326 328 330 330 331 330 330 330 330 331 332 333 333 334 334 334 335 337 337 337 337 338 336 335 333 333 332 331 331 330 329 329 328 327 327 326 326 326 325 324 324
324 325 325 326 326 327 328 327 327 327 328 329 330 331 332 332 333 333 333 334 335 336 337 336 335 334 333 332 330 329 329 328 327 327 326 326 325 325 325 324 322 321 321
328 324 325 325 325 326 326 326 325 326 327 327 326 327 328 328 329 330 330 330 330 332 332 332 333 333 332 330 328 327 327 326 325 324 322 321 321 320 320 320 319 319 319
332 329 325 325 325 325 326 326 325 325 325 323 322 322 323 324 324 324 325 325 324 325 328 328 328 329 328 327 327 326 325 323 322 321 320 320 320 320 319 319 318 317 314
335 332 328 325 325 325 326 326 325 325 324 323 321 320 320 320 320 320 321 322 322 323 324 325 325 324 324 325 324 324 324 323 322 321 320 319 318 318 316 315 314 312 309
336 334 330 326 325 325 326 326 325 323 323 322 321 321 321 321 322 321 320 320 319 320 321 322 323 321 321 321 321 321 322 322 321 319 316 314 311 309 308 307 306 304 303
338 336 331 328 326 325 326 326 325 323 322 321 320 319 321 321 321 320 319 317 315 314 314 314 312 308 307 306 309 319 319 318 318 318 317 314 311 309 308 306 304 304 304
336 335 332 330 326 325 326 326 326 324 322 322 322 320 319 320 321 320 320 318 313 312 310 309 309 308 307 307 304 303 312 314 314 315 316 316 312 311 310 308 305 305 305

GFSMA_850_thetae_039.txt.gz
Theta_e
341 340 339 338 343 343 343 343 341 339 339 339 341 340 338 337 337 336 333 333 341 342 342 340 343 339 334 333 328 329 332 330 327 329 334 335 336 332 334 326 328 329 327
340 340 341 339 342 342 341 339 340 340 339 338 337 339 340 340 339 338 337 334 333 342 340 341 341 340 338 339 335 331 330 331 330 329 329 332 328 336 331 331 329 336 326
340 342 343 342 342 343 342 341 341 340 341 341 339 339 339 339 339 341 339 340 337 337 340 341 342 343 343 340 339 337 335 331 331 331 332 331 330 330 333 334 332 331 331
342 343 342 342 341 345 344 343 341 341 342 342 341 341 339 337 338 340 341 339 341 339 341 341 341 343 342 343 341 341 340 338 335 332 333 333 333 332 332 332 332 332 332
343 342 342 341 343 343 343 343 342 342 343 341 341 340 339 336 337 337 340 339 339 341 341 340 342 342 342 342 341 341 341 341 341 339 337 336 334 334 335 334 333 332 333
343 343 340 341 341 340 341 341 340 339 340 342 341 340 341 339 338 336 337 336 335 336 340 341 341 341 341 341 342 342 343 343 342 343 341 339 338 336 337 337 336 335 334
341 341 341 342 341 339 339 338 339 341 339 338 340 341 340 340 339 339 338 336 335 338 343 343 342 342 342 341 341 342 342 340 339 341 342 343 339 338 337 337 337 337 337
342 342 341 339 339 341 341 342 342 341 340 339 340 341 342 342 339 339 337 337 337 338 341 339 340 342 341 339 339 339 340 341 341 341 342 343 343 340 342 339 337 339 340
341 340 339 338 339 339 339 338 338 339 339 339 339 340 343 342 341 339 336 339 338 338 339 339 340 342 340 340 339 340 339 341 342 342 342 343 344 344 341 341 338 338 339
339 338 337 336 337 338 339 339 339 339 340 340 339 339 340 338 342 341 339 339 337 339 337 341 341 341 342 341 341 342 340 341 341 342 343 342 344 342 340 342 343 341 338
338 335 335 335 337 339 339 339 338 339 339 341 340 339 339 340 340 339 340 338 338 339 339 339 339 340 341 342 341 341 341 341 341 338 336 335 335 336 338 341 341 341 342
335 335 337 338 338 339 339 338 339 337 338 339 340 340 339 340 341 341 339 338 338 338 339 340 341 341 341 339 340 340 340 339 338 336 336 335 335 336 335 336 338 337 338
335 336 339 339 338 339 339 338 338 338 338 338 339 339 339 339 340 339 339 340 337 338 338 338 337 338 338 339 339 339 340 337 336 336 336 335 335 335 336 337 336 336 335
335 336 338 339 339 339 339 339 339 338 338 338 339 339 338 339 339 340 340 339 339 338 338 338 338 338 338 338 337 336 336 336 336 336 336 336 336 336 336 336 336 336 337
331 333 336 336 337 337 338 338 339 338 338 338 338 338 339 340 340 340 340 339 339 338 337 338 338 339 340 340 338 337 336 336 335 334 333 332 333 334 334 333 333 333 332
331 332 334 335 335 335 335 336 335 336 338 339 339 339 338 338 337 336 336 337 339 338 338 338 338 337 338 337 336 335 334 334 333 332 332 331 332 331 331 330 330 330 330
328 328 332 334 334 335 335 335 334 334 334 335 335 338 339 339 338 337 337 338 338 338 339 338 337 336 336 335 334 333 333 333 332 332 331 330 330 329 328 327 327 328 328
326 326 329 330 332 333 333 332 332 333 333 334 334 335 336 336 337 338 339 339 339 339 339 337 336 336 335 334 334 332 332 331 331 330 329 328 327 327 326 326 326 325 325
325 325 327 328 329 328 327 328 328 329 329 331 333 333 333 333 334 335 335 337 337 337 338 338 337 336 334 333 332 331 330 329 328 328 328 327 326 325 325 325 325 324 323
325 325 326 326 326 326 326 326 327 327 329 329 330 331 332 332 332 332 333 334 336 337 338 336 335 335 333 331 330 329 328 327 327 326 325 323 322 321 321 321 320 320 320
328 325 325 325 326 326 325 325 325 326 325 324 324 325 325 325 326 326 327 327 329 332 332 333 333 332 331 329 327 327 326 325 325 323 322 321 320 320 320 320 320 319 318
332 329 326 325 325 326 326 325 325 324 322 321 321 321 321 321 321 322 323 323 323 327 328 328 329 328 328 327 326 326 325 324 323 322 321 320 320 319 319 318 318 317 315
334 331 329 326 325 326 326 325 325 324 323 321 321 321 321 321 321 321 320 321 321 323 324 325 324 324 324 323 323 323 323 323 322 321 320 318 316 316 314 313 312 309 306
336 333 329 327 326 326 326 326 324 324 322 321 321 321 322 322 322 321 320 319 319 319 319 319 318 318 318 319 320 320 320 320 319 318 317 314 311 309 308 307 305 304 303
337 336 331 327 327 326 326 326 324 323 322 321 321 321 321 322 321 320 319 316 314 313 311 309 309 308 308 306 305 316 318 320 320 318 317 316 312 311 308 308 305 305 304
337 335 333 330 326 326 326 326 325 323 323 323 323 322 321 321 320 320 319 316 313 312 310 310 309 308 307 306 303 303 308 313 315 317 316 316 316 313 314 311 307 306 305

GFSMA_850_thetae_042.txt.gz
Theta_e
339 343 341 339 337 343 345 344 347 347 347 347 347 347 347 347 346 345 344 341 337 340 342 342 341 341 334 332 330 328 330 328 329 328 331 333 328 336 332 331 325 327 327
339 340 339 340 345 347 344 344 344 346 347 347 346 348 347 347 347 346 346 345 337 332 341 342 340 341 342 335 336 333 330 331 335 331 328 329 334 331 334 332 332 328 335
341 340 342 349 347 349 345 345 345 345 347 347 347 346 347 347 346 347 348 347 347 339 334 340 340 342 341 341 341 338 337 336 333 334 333 331 330 331 329 335 334 332 331
343 340 342 342 345 344 345 346 346 345 346 348 348 346 347 347 346 346 346 347 346 346 346 338 339 341 343 343 343 339 340 339 339 338 336 334 333 333 332 330 333 334 334
342 343 342 346 345 347 347 346 347 344 345 346 347 348 346 346 345 344 344 346 347 346 347 347 343 340 341 342 342 342 341 340 339 340 340 339 337 336 334 334 334 333 333
343 343 346 342 341 346 345 344 346 346 346 346 346 346 347 346 345 342 342 344 346 346 345 346 348 346 342 342 341 341 342 342 342 341 341 341 340 339 338 335 336 337 336
342 341 344 346 344 345 347 346 346 345 343 344 342 344 344 345 346 344 343 341 341 342 343 346 346 346 348 346 341 342 342 342 341 340 339 339 340 340 340 338 337 337 338
343 343 344 345 345 344 342 343 343 342 345 345 343 344 343 343 343 345 344 344 344 343 344 348 345 344 342 341 341 339 339 340 341 342 342 341 341 340 338 339 340 341 339
341 340 340 341 342 340 343 345 343 342 344 343 340 344 345 342 344 345 345 345 345 342 344 347 348 347 345 345 342 340 339 340 340 341 342 342 342 343 343 344 344 340 341
340 338 338 341 342 343 343 343 343 340 340 340 341 340 340 343 346 345 344 345 339 339 338 343 346 345 344 343 342 341 340 340 340 341 342 341 338 340 341 343 341 340 342
337 338 338 341 341 341 342 340 340 339 340 340 340 341 341 341 342 343 345 343 340 338 338 338 339 343 342 343 343 340 338 339 340 341 337 336 336 335 336 337 340 339 339
342 340 340 339 340 340 341 342 339 340 339 340 341 342 342 341 343 342 343 343 342 338 340 342 342 342 343 343 341 339 340 340 339 338 336 335 335 335 336 336 336 336 336
340 340 340 339 339 340 340 340 340 341 342 340 340 339 340 340 340 341 342 341 338 339 338 338 338 338 338 339 338 338 339 337 336 336 336 336 336 335 335 336 337 336 337
338 337 340 340 340 342 342 339 339 338 338 341 340 340 340 339 340 340 341 341 340 339 339 338 337 337 337 338 337 337 336 336 336 336 336 335 334 334 334 334 333 334 335
337 334 336 336 337 338 337 337 338 339 340 339 339 339 340 340 341 341 341 340 339 340 339 338 337 337 338 339 338 337 335 335 333 333 332 332 332 333 332 331 332 332 332
331 334 335 335 335 335 335 338 339 336 339 340 340 340 340 340 341 341 338 339 339 339 339 338 338 337 337 337 336 335 334 333 332 331 332 331 331 330 329 328 328 329 329
327 330 333 334 334 335 334 336 335 335 335 335 336 338 339 339 340 339 338 339 339 338 338 338 338 336 336 335 335 333 332 332 331 331 330 329 329 328 328 327 327 326 326
327 329 329 331 332 330 332 332 333 332 333 334 335 335 336 336 337 338 340 339 340 340 339 338 335 336 335 334 333 332 331 331 331 329 328 328 327 327 326 326 326 325 325
326 328 327 328 327 327 327 327 329 330 331 332 333 333 333 333 334 335 336 337 339 340 339 338 336 334 333 332 332 331 330 329 328 328 327 326 324 324 323 324 323 323 322
326 326 327 326 326 326 326 327 327 328 329 330 330 330 330 330 331 333 333 334 335 335 335 336 335 333 332 330 329 328 328 327 327 326 324 323 321 321 320 320 320 320 320
328 326 326 328 329 330 329 327 325 325 325 324 326 324 324 324 324 325 330 333 333 332 333 334 332 331 329 328 327 326 326 326 325 323 321 320 319 318 319 319 319 318 318
330 329 327 328 330 327 326 325 324 323 321 321 321 321 321 322 322 322 322 322 326 332 331 328 329 328 327 326 324 324 324 324 325 322 321 321 320 318 316 316 317 315 313
332 330 330 332 328 326 327 326 325 323 322 322 322 322 323 322 324 324 321 321 322 323 325 326 327 328 325 324 323 323 322 323 322 322 320 320 315 316 314 310 307 306 304
335 331 329 330 327 326 327 326 324 323 322 322 322 322 323 322 322 322 320 318 318 318 318 317 314 315 315 318 320 320 321 320 320 319 318 320 317 317 316 314 307 305 304
336 334 330 328 327 326 327 327 326 324 323 322 322 322 322 322 321 321 319 316 314 313 311 310 309 308 307 306 305 315 320 318 321 319 319 319 317 316 315 314 312 306 306
336 334 333 329 327 326 326 326 325 325 324 323 323 322 322 321 321 320 319 319 318 316 316 315 313 310 309 307 305 304 311 312 314 318 318 318 317 316 315 314 313 311 307

GFSMA_850_thetae_045.txt.gz
Theta_e
337 341 343 339 340 339 342 346 350 348 348 348 348 348 347 346 346 345 345 344 344 339 340 341 342 342 340 333 332 329 330 329 328 329 329 331 333 328 333 332 329 325 326
335 336 342 340 339 345 344 342 345 347 348 348 348 347 346 346 346 345 345 346 345 341 333 340 342 341 340 342 335 334 331 330 331 334 332 329 329 333 334 333 333 333 328
338 339 340 340 344 349 347 346 345 346 348 347 347 347 348 348 346 346 345 345 347 346 343 332 339 340 341 341 338 340 338 337 337 335 334 335 333 330 331 331 331 335 332
340 342 342 342 348 350 351 347 345 344 344 346 347 347 347 345 345 345 345 345 346 347 347 346 338 337 340 342 342 343 339 335 336 337 337 336 335 334 333 333 332 330 333
341 342 343 348 346 348 348 347 347 349 348 342 343 345 348 346 346 345 345 344 344 346 347 348 347 344 340 340 342 342 343 341 339 339 340 340 339 338 336 335 334 334 333
341 345 345 347 346 348 348 346 346 346 347 347 347 344 345 347 346 345 345 344 342 345 346 347 347 347 345 340 340 340 340 340 340 340 338 338 337 338 339 339 338 335 335
347 347 345 345 344 348 348 347 347 347 346 347 348 346 345 344 344 344 345 343 342 344 347 347 348 347 348 347 343 341 341 342 342 342 340 339 337 338 340 339 340 340 339
346 345 346 347 346 345 346 345 345 345 343 342 343 345 346 345 344 345 344 344 343 343 343 345 345 347 349 344 344 337 338 340 340 340 340 341 341 340 341 339 338 338 338
346 347 348 347 345 344 344 344 346 343 345 346 345 345 346 345 343 345 343 343 344 344 345 346 345 342 343 343 343 342 339 338 339 340 339 341 341 342 343 343 343 343 343
347 345 345 346 347 343 344 346 343 344 343 343 342 342 344 344 344 342 345 345 345 345 341 344 342 342 343 346 345 342 339 339 337 340 341 342 339 337 340 341 341 344 341
343 344 346 344 342 343 341 341 343 343 341 340 341 341 343 345 345 344 344 344 342 340 338 339 340 341 343 342 340 340 339 338 339 340 340 337 335 335 335 336 337 337 337
342 342 343 340 339 341 341 342 341 344 342 341 342 345 345 342 344 345 345 343 342 342 340 339 338 339 340 342 341 339 339 339 339 338 337 335 336 335 335 335 336 337 337
342 343 344 342 343 341 342 341 342 343 344 343 341 341 342 341 341 342 342 343 342 340 339 339 340 340 340 339 338 338 338 338 337 336 336 336 336 336 336 336 336 336 336
340 339 341 342 343 342 343 339 341 341 341 341 343 343 342 343 341 342 343 343 340 339 339 338 337 337 337 337 337 337 336 336 336 336 335 334 333 333 333 332 332 332 333
342 340 337 337 342 347 345 343 343 345 342 342 341 342 342 342 343 343 341 341 342 339 339 338 337 337 337 337 337 336 335 334 333 332 332 332 332 331 331 331 330 330 330
341 339 336 338 339 340 341 341 341 338 337 339 340 341 341 340 341 340 341 341 340 340 340 337 337 336 336 336 337 335 334 332 332 331 332 331 330 329 328 328 327 328 328
342 341 341 339 340 336 333 338 338 336 341 343 343 342 342 341 341 339 340 340 340 340 340 337 337 335 335 335 334 333 332 331 331 331 331 329 328 327 327 327 326 326 325
339 339 339 339 338 337 337 337 337 337 335 335 334 337 338 337 338 340 340 340 341 340 338 338 336 334 334 333 332 332 331 331 331 330 329 328 326 325 324 325 325 325 324
337 338 337 337 337 336 336 335 336 336 335 333 334 333 333 335 336 338 339 340 339 339 338 338 335 333 332 331 331 330 330 330 329 328 327 325 323 322 322 322 321 321 321
338 337 336 335 335 335 334 333 334 333 334 332 328 327 326 328 334 335 336 335 335 336 337 336 334 333 331 330 329 329 328 327 326 325 323 322 321 320 320 320 320 320 320
338 337 336 335 334 333 332 330 333 333 331 332 328 323 322 323 324 329 333 333 332 333 335 334 332 331 329 329 328 327 326 325 324 322 321 321 321 320 318 317 317 317 317
339 338 337 336 333 328 326 326 329 329 328 328 328 328 325 325 322 322 323 328 332 332 330 329 328 327 326 325 324 327 324 323 325 323 322 321 321 319 318 315 311 308 306
339 337 337 336 334 327 327 326 326 328 328 326 327 327 327 327 328 326 322 322 323 325 329 328 328 328 326 326 325 325 325 325 325 324 321 322 321 320 318 317 308 306 305
337 333 336 335 333 327 327 325 326 329 329 328 328 325 322 322 323 324 318 317 316 318 319 317 316 316 313 314 323 321 319 319 321 321 320 322 320 318 317 316 313 307 306
338 335 334 335 331 327 327 326 329 330 329 328 325 324 323 322 321 321 320 317 315 313 311 310 309 308 307 305 305 316 322 316 320 324 321 320 319 318 316 316 315 314 310
338 336 335 335 332 327 327 327 328 328 327 326 325 323 322 322 321 320 323 322 321 320 319 318 316 314 314 312 311 306 313 314 315 319 320 319 320 317 318 317 316 313 313

GFSMA_850_thetae_048.txt.gz
Theta_e
341 339 338 340 342 340 340 344 337 341 347 347 347 346 346 345 344 346 345 345 344 343 342 338 340 341 340 334 331 329 330 330 332 329 329 329 331 333 328 332 332 329 325
337 336 335 341 340 339 339 341 341 348 348 350 346 348 347 348 344 345 346 346 345 345 344 336 337 341 341 341 337 333 332 329 330 331 333 332 330 329 331 333 332 333 333
338 336 336 336 338 340 340 342 345 343 343 345 346 347 345 344 346 344 345 344 345 345 346 344 336 335 340 340 342 340 338 337 336 335 332 332 333 333 332 330 332 331 332
338 339 338 338 342 339 335 342 347 344 344 343 345 346 347 347 344 343 346 344 344 343 343 345 346 340 336 339 341 339 341 339 339 333 337 338 337 337 336 334 333 332 331
339 339 340 341 342 346 347 348 346 345 348 346 341 342 343 344 346 346 344 343 344 345 343 344 347 345 341 338 340 342 343 342 340 338 338 338 340 338 339 339 336 335 334
338 337 341 343 343 345 346 345 346 345 347 346 343 348 346 343 343 346 346 345 345 345 342 342 347 341 346 344 340 340 340 339 340 338 338 338 338 337 338 338 339 339 339
340 342 344 344 344 343 346 346 343 342 345 344 347 346 346 346 346 343 345 343 344 343 342 341 344 345 345 347 346 341 340 340 341 342 341 340 340 338 336 338 339 337 339
343 343 345 344 345 344 343 341 340 341 345 343 342 341 342 341 342 345 344 345 344 344 343 345 346 344 343 345 347 344 340 339 338 339 340 340 340 340 340 340 341 341 340
338 345 344 344 345 343 343 345 345 346 344 342 344 344 344 344 343 344 345 340 345 344 346 345 344 344 342 339 342 343 340 337 338 339 340 340 339 340 341 342 343 343 343
343 343 344 342 344 342 345 345 344 344 341 342 343 343 344 341 344 343 344 344 344 344 344 344 344 343 341 338 338 341 340 337 339 338 335 339 341 339 338 340 341 339 340
343 340 340 342 342 342 342 340 340 341 342 342 340 341 342 341 342 343 342 344 345 344 344 343 340 340 341 342 341 336 338 339 339 338 339 340 338 335 335 335 335 336 337
343 338 342 343 339 340 341 341 342 342 342 342 341 342 342 342 342 345 343 343 342 343 342 338 339 339 339 339 340 339 339 339 339 339 338 337 335 335 335 335 335 335 336
342 339 343 342 342 342 342 342 342 342 343 342 343 342 342 342 342 342 342 343 342 340 342 342 341 341 340 338 337 338 338 338 337 336 336 336 336 336 335 335 334 333 333
341 336 341 341 342 342 342 341 341 341 342 342 342 342 343 343 343 342 342 341 342 340 339 339 337 337 337 337 337 337 337 337 336 335 334 334 333 333 332 332 332 332 331
341 340 342 343 343 343 341 342 340 341 342 342 342 341 341 342 343 343 342 342 342 340 339 337 336 336 336 337 336 336 335 334 333 332 332 332 332 331 330 329 328 328 329
340 336 340 344 342 339 341 340 337 338 338 338 339 341 342 341 340 340 342 341 342 341 339 337 336 335 336 336 336 335 334 333 331 331 331 331 330 328 328 327 327 326 326
341 339 339 339 339 338 337 339 338 334 335 337 338 340 340 341 341 340 341 340 341 340 340 337 336 335 335 335 335 334 332 331 331 331 331 329 328 327 325 325 326 325 325
338 339 339 337 336 336 337 337 335 333 333 336 336 337 338 336 337 338 340 341 340 341 339 337 336 335 334 334 333 332 331 331 331 330 329 328 325 324 323 323 323 323 322
338 337 336 337 336 336 336 336 336 334 332 332 331 333 337 337 337 337 337 338 339 339 339 338 336 333 332 332 332 331 331 330 329 328 327 324 322 322 321 321 321 320 320
338 336 336 336 336 336 334 334 333 334 332 324 323 324 329 333 334 334 335 333 336 336 335 335 335 333 332 331 330 330 329 328 327 324 323 322 321 320 320 319 319 318 318
338 336 336 336 334 333 329 334 333 331 332 325 323 323 322 323 328 328 332 333 332 334 334 334 333 332 331 329 328 327 326 325 324 323 322 321 321 320 319 315 311 309 308
335 337 338 337 333 327 326 330 329 327 327 327 326 326 327 325 323 324 330 333 333 330 329 329 328 327 326 325 324 324 323 323 323 323 322 321 321 319 319 317 315 307 306
336 337 336 336 332 327 327 326 328 328 327 327 328 327 328 328 325 322 322 322 325 327 327 328 329 328 328 326 325 325 325 326 324 320 321 322 321 320 319 316 315 311 307
338 336 336 336 333 327 327 326 328 329 327 327 325 323 323 323 323 320 318 317 317 319 318 323 320 319 313 317 322 319 322 322 321 321 319 322 320 320 318 316 315 314 311
339 336 336 335 334 327 327 327 330 331 329 328 326 324 323 322 322 322 320 318 316 316 313 312 311 310 310 307 308 316 318 316 317 324 322 320 319 317 316 317 315 314 313
340 339 335 335 334 328 327 327 329 330 329 327 324 323 323 322 321 322 324 323 322 320 320 316 316 314 314 313 313 305 313 313 314 322 321 318 317 319 316 317 317 316 315

GFSMA_850_thetae_051.txt.gz
Theta_e
341 336 341 340 342 343 340 341 340 336 343 346 346 346 345 343 344 346 346 346 344 344 343 341 340 339 340 333 330 328 329 328 329 329 328 328 328 331 330 327 331 329 328
340 339 339 339 341 341 338 338 338 338 335 343 346 344 345 345 345 346 345 346 345 345 344 344 338 336 339 341 339 332 330 328 328 330 329 329 328 328 329 331 333 332 332
337 338 336 336 338 340 340 339 341 340 342 344 345 344 345 344 346 347 345 345 344 342 344 345 344 338 335 340 339 340 333 334 332 330 330 331 333 333 332 332 331 331 331
338 339 337 337 338 340 341 339 337 339 344 343 344 344 345 346 344 344 346 343 344 344 343 342 342 344 336 334 338 339 341 338 337 337 335 335 338 338 337 338 337 334 332
339 337 338 338 339 341 342 338 339 343 343 344 343 342 342 344 344 344 345 343 345 343 343 343 343 344 346 338 337 339 340 340 342 341 337 338 339 340 339 338 339 338 336
338 339 337 338 342 342 343 343 342 344 344 346 346 344 343 346 343 344 343 344 343 344 344 344 343 342 345 344 342 339 339 341 342 342 339 339 338 338 338 337 338 338 338
339 338 340 343 342 343 343 344 345 343 341 342 343 341 344 345 345 345 343 343 343 343 344 341 343 344 343 345 345 344 341 340 340 340 340 341 340 340 339 338 338 338 340
343 342 344 343 344 345 344 342 341 341 340 341 343 343 343 339 340 340 342 342 343 343 345 344 343 342 342 342 343 339 335 342 341 340 339 341 341 339 340 340 340 340 341
343 344 342 343 344 343 340 342 343 344 345 342 342 342 343 343 343 342 342 344 345 343 343 344 343 341 343 344 341 339 341 340 338 337 338 338 338 339 339 340 341 342 343
344 343 342 340 339 341 341 343 345 343 341 340 342 341 342 343 342 342 343 344 342 344 342 336 343 343 341 341 339 333 339 339 338 337 338 338 338 340 339 338 337 339 337
341 338 338 340 340 341 341 341 340 341 341 341 341 341 341 341 342 341 342 343 343 343 342 343 341 340 340 340 340 337 334 337 336 338 339 339 340 338 335 335 335 335 335
342 337 342 341 340 340 341 341 341 341 342 342 342 341 342 341 341 341 343 342 342 342 340 340 342 339 339 340 340 339 339 338 339 339 339 337 336 335 335 335 335 335 335
338 336 341 341 342 342 341 341 341 341 341 341 342 342 341 342 343 342 344 342 341 341 340 340 340 340 339 338 338 338 339 338 338 336 336 335 336 335 335 334 332 332 332
339 337 339 340 341 341 341 341 340 341 341 341 341 341 343 342 344 341 342 343 341 340 339 337 337 337 337 336 337 336 336 336 336 336 334 334 333 333 332 331 330 329 329
337 335 335 340 341 340 342 341 339 339 341 341 341 340 340 342 342 342 342 342 341 340 337 337 336 336 336 336 336 336 336 335 333 332 332 332 332 331 329 328 327 327 327
335 336 337 337 335 340 338 337 333 336 337 339 340 341 340 340 339 342 341 341 342 341 338 337 335 336 335 335 335 335 335 333 331 331 331 330 329 328 327 325 325 326 325
338 338 338 338 338 337 337 336 332 334 336 338 336 336 339 340 340 340 341 340 342 341 340 336 335 334 335 335 335 333 332 331 331 331 330 329 328 326 324 323 324 324 323
337 339 337 336 335 336 337 335 331 333 330 331 333 334 334 337 337 340 340 340 340 340 340 336 334 334 334 333 333 332 331 330 330 329 328 327 325 323 322 322 321 321 321
335 335 336 335 334 335 335 335 333 329 327 328 331 333 334 335 336 335 337 339 340 338 338 337 335 334 333 332 332 331 331 330 329 327 326 324 322 321 321 320 320 319 318
334 333 333 334 334 331 332 332 332 329 323 322 324 328 331 332 333 332 331 335 334 335 335 335 335 333 333 332 332 331 330 328 327 325 323 322 321 321 318 315 311 310 309
335 333 332 335 333 331 329 331 329 328 323 323 323 322 323 325 327 331 331 330 334 334 334 333 333 332 332 331 329 328 327 325 324 323 322 321 320 319 319 316 313 307 305
334 335 337 335 332 327 329 330 327 326 325 326 326 325 324 323 324 325 326 327 328 329 331 331 330 328 326 324 324 323 323 323 323 322 322 321 320 319 317 315 312 312 309
335 337 337 335 333 326 327 327 327 325 325 327 327 326 325 324 322 322 322 323 324 326 327 328 327 327 326 324 324 324 323 324 324 320 320 322 320 319 318 316 315 313 312
337 336 335 335 333 327 327 327 327 327 327 325 327 326 324 323 321 319 319 319 319 320 325 325 324 322 317 323 323 321 321 322 320 321 320 322 320 319 317 316 315 314 313
340 338 335 335 334 327 327 326 328 329 328 327 325 323 322 322 322 320 318 316 315 314 312 312 311 312 310 305 311 318 319 316 317 323 321 321 320 319 317 316 315 315 315
339 338 336 335 335 332 327 327 330 330 329 327 324 324 323 322 322 322 323 322 320 316 316 315 314 314 313 313 312 307 315 313 320 322 320 318 315 316 319 315 316 315 316

GFSMA_850_thetae_054.txt.gz
Theta_e
342 342 334 342 337 342 342 341 341 337 340 343 344 343 345 343 341 344 343 345 345 343 343 343 341 339 339 337 330 327 327 326 327 328 329 328 327 329 333 330 329 330 328
339 339 343 340 339 339 341 338 338 338 336 340 340 344 341 343 342 343 345 346 344 344 344 343 343 339 338 339 340 335 329 328 328 328 329 328 328 328 329 331 332 333 334
338 339 339 337 337 339 341 339 339 339 339 339 343 344 343 346 345 346 344 345 345 345 342 342 343 342 340 336 339 341 339 332 330 329 330 332 332 333 333 332 332 331 332
338 337 337 336 335 336 337 340 341 336 340 340 342 344 344 343 343 343 344 343 346 343 343 342 342 342 342 341 335 339 339 341 339 337 336 336 336 337 338 337 338 338 335
340 338 338 338 337 338 338 341 340 339 337 339 343 343 342 342 343 345 345 343 344 344 344 343 344 343 343 343 344 336 338 340 340 340 340 339 337 339 339 339 338 339 339
340 339 338 337 337 338 340 342 343 343 343 343 343 344 344 343 341 341 343 343 342 342 343 344 342 345 343 341 344 343 338 339 340 341 341 341 339 339 338 339 338 337 338
338 338 339 338 337 342 342 343 342 344 343 340 341 343 343 340 343 344 343 342 341 342 343 343 342 341 342 343 342 343 344 341 340 341 340 340 340 341 340 340 340 339 339
342 342 342 344 343 343 343 342 343 342 339 340 342 343 342 339 337 338 340 342 343 343 342 342 344 342 342 342 342 340 341 341 340 340 341 340 339 340 340 339 340 341 339
343 343 343 343 344 345 343 341 341 342 341 342 342 343 342 341 341 342 341 342 343 342 343 343 342 342 342 342 339 341 341 339 337 337 337 337 337 337 337 339 340 340 341
340 341 341 341 339 340 340 340 342 344 344 341 341 341 341 343 342 341 343 343 344 343 343 339 340 340 341 340 340 341 338 338 339 338 338 337 337 337 339 339 337 337 336
341 336 337 338 339 340 340 340 339 339 340 341 341 341 341 341 343 343 342 344 342 341 342 342 340 341 340 339 340 338 337 337 337 337 337 338 339 339 337 335 335 335 334
339 341 341 339 338 339 340 340 340 341 342 341 341 341 341 341 341 341 342 343 341 341 341 343 341 340 339 339 339 335 338 336 337 338 339 338 337 335 335 335 335 334 333
338 340 341 340 340 340 341 341 340 340 340 340 341 342 341 341 343 343 343 341 341 340 340 340 338 338 339 339 338 338 339 338 338 337 336 335 335 334 333 332 332 331 330
338 337 340 341 340 340 340 340 340 340 340 340 340 341 342 341 342 341 342 342 340 338 338 337 337 337 336 336 336 336 336 336 336 335 334 333 333 332 331 330 328 327 327
336 336 340 339 339 341 340 339 336 338 340 340 340 340 340 342 342 342 342 342 341 338 337 336 336 336 336 336 336 336 336 336 334 332 331 331 331 329 328 326 325 325 325
336 337 336 337 339 338 337 333 333 336 337 338 340 340 339 339 341 342 342 342 342 340 337 336 336 335 335 335 334 334 334 333 331 331 330 329 328 327 325 324 324 324 324
336 337 336 337 337 336 335 330 331 332 332 332 336 340 340 339 339 341 340 341 340 340 340 336 334 332 334 335 334 334 332 331 330 330 329 328 327 325 323 323 322 322 322
334 336 335 335 336 336 334 329 329 330 331 333 333 335 337 337 339 339 339 340 341 341 340 336 333 332 334 334 333 331 331 330 329 328 327 326 324 322 321 321 320 319 318
336 335 335 334 333 333 331 330 327 327 329 331 333 333 335 334 335 337 339 339 340 340 340 337 334 333 333 333 332 331 330 329 328 327 325 323 321 320 319 317 314 313 311
333 333 332 332 332 332 331 330 325 323 323 326 329 331 332 333 329 331 334 335 337 338 336 335 334 333 333 332 331 330 329 328 326 324 323 321 321 319 317 315 312 307 305
335 332 330 333 333 330 331 330 328 322 322 322 324 325 324 326 330 330 330 332 333 334 333 333 333 333 332 332 330 329 328 325 323 323 322 321 319 317 313 311 311 310 310
335 333 332 332 330 328 330 329 327 324 324 324 323 323 323 325 326 326 326 327 330 332 332 332 331 331 331 329 327 326 325 323 323 321 321 321 319 317 315 314 312 312 310
335 335 336 335 334 327 329 328 326 325 326 326 326 325 323 322 322 322 322 322 324 326 328 328 328 326 325 324 323 323 323 323 324 320 320 321 320 317 317 316 314 313 312
337 335 336 336 334 326 327 327 327 326 326 326 326 325 324 322 321 320 320 320 320 323 325 326 325 324 322 323 322 323 322 321 320 321 319 321 319 317 316 316 314 315 314
338 337 335 336 334 327 326 327 327 327 326 325 324 323 323 322 320 318 317 316 314 316 312 310 310 309 308 306 310 320 320 322 319 320 320 321 319 319 318 317 316 314 315
334 336 337 336 335 333 326 326 328 329 329 327 325 324 323 322 322 321 320 319 317 315 313 313 313 312 311 311 310 307 312 316 314 319 321 320 317 314 316 316 314 316 315

GFSMA_850_thetae_057.txt.gz
Theta_e
344 343 341 339 341 339 343 343 342 339 341 342 341 341 343 337 339 342 344 343 344 344 341 343 342 341 339 338 335 329 327 326 326 326 327 330 328 329 334 335 330 328 327
341 341 340 335 342 339 341 338 339 339 337 340 343 344 343 344 339 341 344 342 344 343 343 343 342 342 340 338 339 339 333 328 327 327 329 329 331 329 332 331 334 331 332
343 340 340 342 341 339 339 341 339 338 339 339 338 338 343 342 343 342 342 344 345 344 343 342 341 342 342 341 337 338 341 339 333 329 329 331 331 330 331 331 332 332 332
341 338 340 339 338 336 338 339 339 341 340 337 339 342 344 342 343 343 342 343 345 346 345 341 341 341 342 342 342 336 337 340 340 337 338 336 335 335 336 338 339 338 338
341 339 338 338 336 336 336 337 338 341 339 338 338 342 343 343 343 342 342 342 344 344 345 344 343 342 343 342 342 343 339 336 339 341 340 340 340 338 338 339 339 338 338
340 340 340 338 338 338 338 338 339 342 342 340 341 343 343 341 340 341 341 343 344 343 342 343 344 345 344 343 342 342 343 339 338 340 340 341 341 339 339 339 338 338 338
341 341 339 339 337 337 337 342 342 343 344 343 343 341 342 344 343 341 343 344 342 344 342 340 341 342 342 343 341 342 341 343 341 340 341 341 340 340 340 340 340 340 340
339 339 338 338 338 338 342 342 343 344 344 341 340 340 338 338 339 339 339 340 341 343 342 342 342 341 342 341 342 342 343 341 340 341 340 339 340 340 339 338 338 337 340
342 342 343 343 343 343 344 343 342 341 340 341 341 341 341 340 342 342 341 340 341 341 341 342 342 342 342 341 342 342 340 340 342 339 339 338 339 337 337 336 339 339 338
340 341 342 342 342 343 343 342 340 340 340 340 342 341 340 341 342 341 341 342 343 343 343 343 342 341 341 341 340 340 339 341 339 339 339 338 337 337 338 339 338 336 336
340 339 338 337 338 338 336 337 336 336 337 338 339 340 341 341 342 343 342 341 342 342 342 342 338 338 340 339 339 339 340 337 338 337 338 337 337 339 338 335 334 335 335
339 339 342 341 339 338 338 338 339 339 339 340 340 340 341 341 340 342 342 340 339 340 341 342 342 341 339 338 338 338 336 337 335 336 337 338 337 335 335 335 334 332 331
336 338 340 341 340 340 340 340 340 340 340 339 339 341 342 341 340 341 341 339 339 338 338 339 338 338 338 338 339 337 337 339 338 338 336 335 335 334 333 332 331 329 328
338 336 340 341 341 340 340 339 339 339 339 339 339 340 342 341 342 342 341 340 339 339 339 338 338 338 337 337 337 336 336 336 335 335 334 333 332 332 330 328 326 326 326
335 336 339 340 339 341 341 339 338 337 339 339 339 339 340 342 341 342 342 342 340 338 337 336 336 334 336 336 335 335 335 335 334 332 332 331 330 328 327 325 324 324 324
334 337 339 339 339 339 336 332 334 336 337 338 340 339 339 340 342 343 342 342 341 340 337 337 335 335 334 335 334 334 334 333 331 331 330 329 328 326 324 323 323 323 322
336 336 335 336 337 335 333 329 332 334 335 335 338 340 339 338 340 342 342 342 341 339 339 336 336 334 334 334 333 333 332 331 330 329 328 327 325 323 322 321 321 320 320
336 336 336 335 334 333 329 329 331 332 334 334 334 335 338 338 339 341 340 341 339 339 339 338 335 334 334 334 334 332 331 330 329 328 326 324 322 321 320 319 317 314 313
335 335 334 333 332 332 330 328 328 329 331 332 333 334 333 334 338 339 339 341 340 340 340 339 334 333 333 332 332 331 330 329 328 326 323 321 320 319 316 314 313 310 307
335 335 333 332 332 331 330 327 323 324 328 331 331 332 332 330 333 336 338 339 339 339 339 336 334 331 333 332 330 330 330 328 326 324 322 321 318 317 313 310 309 308 306
334 333 332 331 331 329 330 328 324 322 323 325 328 326 327 329 328 328 331 332 335 337 335 333 333 331 332 331 330 329 329 327 324 322 321 320 318 312 311 311 311 310 308
336 333 332 333 330 328 329 329 327 323 323 322 323 323 325 326 326 326 328 332 333 333 333 332 332 332 332 331 330 328 327 324 322 321 321 320 318 316 314 312 312 312 309
337 335 333 333 332 330 328 328 326 325 324 325 325 323 323 323 323 322 323 325 328 330 331 331 331 330 330 328 326 326 323 323 323 319 320 320 319 317 316 315 314 313 312
335 337 336 336 335 333 327 328 327 326 325 326 326 325 322 321 321 321 321 321 322 325 327 326 326 325 324 323 323 323 323 323 323 321 319 320 319 317 315 314 314 314 314
333 336 336 336 336 334 327 327 327 327 326 326 326 325 323 322 321 320 319 318 318 320 322 322 321 318 314 320 321 321 319 320 320 320 319 320 319 318 317 316 316 315 314
334 334 334 335 335 335 329 326 327 327 327 327 325 323 323 322 321 320 317 318 317 314 312 311 311 310 308 308 309 311 313 318 318 316 316 321 319 317 314 314 316 315 315

GFSMA_850_thetae_060.txt.gz
Theta_e
339 339 342 341 339 336 335 338 340 340 339 338 340 335 335 334 335 339 342 343 343 343 343 343 343 342 340 338 335 331 328 326 326 326 331 336 332 327 330 335 335 330 328
338 343 341 340 338 338 342 342 341 339 338 342 341 339 340 342 339 338 340 344 342 343 343 343 343 341 342 339 338 339 338 331 328 327 326 327 329 330 329 335 332 335 332
340 340 340 340 336 340 340 340 338 338 338 338 337 341 344 343 344 340 339 342 342 343 343 342 342 340 341 342 341 337 338 340 337 330 329 329 330 331 330 330 330 331 332
340 341 339 339 341 341 339 338 341 339 339 340 339 338 339 341 342 343 342 343 342 341 343 342 341 341 341 341 341 341 338 336 341 340 337 335 334 334 333 334 338 338 339
338 341 339 339 341 339 337 337 338 337 340 339 338 338 340 342 343 342 343 342 342 342 344 343 344 341 341 341 342 341 342 341 337 339 340 341 340 339 339 338 339 339 338
340 342 340 339 339 337 336 336 337 338 340 341 341 337 338 343 342 343 343 342 342 343 343 342 343 343 344 343 343 342 341 342 341 338 339 341 340 341 340 339 339 338 339
343 342 341 341 339 338 337 338 338 340 341 342 342 341 343 343 343 342 342 341 341 341 343 343 341 341 341 341 342 342 341 342 341 342 339 340 341 341 341 339 338 340 339
341 341 340 338 338 339 337 337 339 342 342 343 343 341 340 340 340 340 340 340 343 343 342 343 342 341 341 342 342 340 341 342 341 340 341 340 341 339 340 340 339 337 336
340 340 340 339 338 338 338 340 343 342 342 342 340 339 339 339 341 341 340 339 339 339 341 343 342 342 341 341 342 341 342 341 341 341 340 340 340 339 339 338 336 339 339
342 342 342 342 343 343 343 343 343 342 342 341 341 341 341 341 341 341 342 342 342 342 343 342 342 341 341 341 341 341 341 339 340 341 338 339 339 338 338 338 338 336 336
335 335 340 341 341 341 340 342 341 340 341 341 342 341 340 341 341 342 340 340 340 341 342 342 341 337 339 340 340 339 340 340 338 337 338 337 338 339 339 336 335 334 334
338 337 339 340 339 339 339 339 339 338 338 338 339 340 340 340 340 341 341 340 339 339 340 339 341 340 340 339 339 338 337 337 336 335 336 337 338 336 335 334 333 332 331
337 335 340 340 339 339 339 339 340 340 340 340 341 340 340 341 341 341 342 340 338 339 339 339 338 339 338 340 338 336 336 337 338 338 337 336 335 334 333 331 330 328 331
338 335 338 339 340 340 341 340 340 340 339 339 339 339 341 342 341 341 340 341 337 337 337 336 337 338 337 337 337 337 337 336 335 335 334 333 332 331 329 327 326 325 325
336 334 338 339 340 340 340 339 338 338 338 339 339 339 341 341 341 342 341 341 339 337 335 334 335 335 334 335 335 335 335 334 333 333 332 331 329 328 326 324 324 324 324
333 335 337 339 339 340 338 334 333 334 336 338 339 339 339 340 341 341 342 342 341 339 337 336 335 335 335 335 333 334 334 333 331 330 329 328 327 325 324 323 322 322 322
334 334 334 336 338 336 335 331 332 334 335 336 337 339 339 339 341 342 343 342 341 339 339 336 336 334 333 333 332 332 332 330 330 329 328 326 324 323 321 321 320 319 319
334 336 335 336 335 334 331 330 332 333 333 333 334 337 338 338 339 341 342 342 340 340 339 338 335 334 333 333 332 332 330 329 328 327 325 324 323 321 320 318 315 314 313
333 334 334 334 333 333 330 328 328 329 331 332 334 334 334 335 338 340 340 340 340 340 339 339 336 334 333 332 332 331 330 329 327 326 324 322 320 318 316 313 310 307 305
334 335 335 334 332 332 330 327 323 325 329 331 332 333 332 332 336 338 339 339 339 338 339 337 336 334 333 332 331 331 330 328 326 324 323 321 318 314 310 309 309 308 305
334 333 332 333 331 330 330 328 324 323 324 326 328 328 328 328 330 333 334 336 338 339 339 336 334 333 331 332 331 330 329 327 326 323 322 320 314 311 311 311 310 309 308
335 334 332 331 332 330 329 329 326 322 322 323 323 324 326 327 327 328 330 331 333 335 336 333 332 331 330 331 331 330 329 327 324 323 321 319 316 313 312 312 312 310 308
335 332 334 333 332 331 329 330 328 325 324 324 323 323 324 324 323 323 325 329 331 332 332 331 330 330 331 331 331 329 327 325 323 321 320 320 318 316 315 314 313 313 310
336 335 336 334 334 333 332 329 328 326 325 326 325 324 322 322 322 321 321 322 324 327 329 330 330 330 328 327 325 325 325 323 323 320 319 320 319 317 316 315 314 314 313
338 336 336 336 335 334 334 328 328 327 326 326 326 325 323 321 321 321 320 320 320 323 325 326 325 325 324 323 321 322 322 322 323 321 319 319 319 318 316 315 315 315 314
334 336 334 334 334 334 333 328 327 327 327 327 325 325 323 322 321 320 318 316 317 318 317 317 317 314 311 312 316 320 320 319 320 320 319 318 320 317 317 317 317 317 316

GFSMA_850_thetae_063.txt.gz
Theta_e
337 338 337 340 341 339 338 338 338 340 339 338 341 337 334 332 339 340 340 343 342 342 343 344 344 343 340 339 336 333 332 330 327 327 326 334 335 330 327 332 334 335 330
335 336 338 341 340 338 336 337 341 341 339 340 340 340 336 335 334 334 336 340 342 342 343 343 342 343 340 342 339 338 338 334 330 328 327 327 332 333 330 329 334 334 334
334 336 339 341 340 339 339 343 340 341 338 338 339 341 341 340 343 342 339 339 343 343 341 342 341 342 340 341 342 340 338 339 340 336 329 329 328 329 332 334 331 330 331
335 337 338 341 341 340 339 340 340 339 339 338 339 338 338 341 343 341 344 340 340 342 342 343 341 341 341 341 341 342 342 339 337 340 341 336 331 331 333 335 333 335 339
339 341 340 341 339 337 340 340 338 340 339 337 339 339 338 338 339 342 343 343 343 343 343 344 344 343 341 341 341 341 341 342 342 338 339 340 340 340 340 339 337 339 339
341 341 340 340 340 341 340 338 336 336 336 337 339 340 341 339 340 342 343 343 343 343 342 342 343 344 343 343 343 342 342 341 341 342 339 337 339 341 340 340 339 339 338
343 340 341 340 340 339 338 337 336 336 337 338 341 342 340 338 339 343 342 342 343 342 341 342 343 342 343 342 342 341 342 342 341 341 341 339 339 340 341 341 339 339 338
340 341 342 342 341 341 339 338 337 338 337 341 342 342 343 342 342 343 343 343 343 342 343 343 342 343 342 340 341 341 341 340 341 341 341 341 340 340 341 339 339 340 338
342 341 340 339 338 338 338 339 338 337 339 341 340 343 340 341 341 339 338 339 339 340 340 343 343 343 342 342 341 341 342 341 342 341 341 341 340 340 339 339 339 337 337
341 341 342 342 343 343 339 339 339 341 343 342 342 341 340 340 343 342 340 342 342 342 342 342 343 342 342 341 342 342 342 341 340 339 341 339 339 339 339 339 337 338 338
339 338 339 338 340 341 342 342 344 342 341 341 340 342 342 342 342 343 342 340 340 340 341 342 342 342 340 341 341 341 340 341 340 339 338 338 338 338 338 339 338 336 335
339 340 331 333 339 338 339 339 339 339 339 339 340 341 341 341 341 342 342 341 340 340 339 340 340 340 339 340 339 339 339 338 337 335 338 338 339 338 336 335 334 332 331
338 336 335 336 340 340 339 339 339 339 339 340 340 340 341 341 341 341 342 341 339 338 339 339 339 339 340 339 338 337 336 337 337 337 337 337 336 335 333 331 331 334 335
337 338 334 339 341 340 341 341 340 341 341 341 341 340 341 341 342 342 341 341 339 337 337 337 337 336 338 339 337 336 337 337 337 335 334 334 333 331 329 328 326 326 326
337 335 335 338 340 341 340 340 339 339 338 339 339 339 339 341 342 341 341 342 340 337 336 334 335 335 336 335 335 335 335 334 333 332 331 330 329 327 326 325 324 324 324
333 333 336 337 338 339 340 337 334 334 336 336 338 339 339 340 342 342 341 341 341 338 336 336 335 335 335 335 334 335 333 332 331 330 329 328 327 325 324 323 323 322 323
333 334 334 336 338 336 335 334 331 333 335 336 336 339 339 339 340 342 341 342 341 338 338 336 335 335 334 334 333 332 332 330 329 329 328 327 325 323 322 321 321 320 320
332 333 333 335 334 334 333 329 331 332 332 332 333 336 339 338 339 342 342 342 340 340 338 337 335 335 333 333 332 332 331 329 328 326 325 324 323 322 320 318 316 315 315
332 332 332 333 332 332 331 328 328 329 331 332 333 334 334 335 338 340 341 341 341 340 339 339 336 334 334 333 332 331 330 329 327 324 323 322 321 318 317 315 312 309 306
333 332 331 330 330 330 331 329 324 325 330 332 332 333 332 332 335 338 340 340 340 340 340 338 337 334 333 332 332 331 329 328 325 323 322 320 319 315 311 309 308 307 306
335 334 333 331 330 330 330 329 326 324 327 330 330 329 328 328 334 337 339 339 338 338 338 338 336 334 333 332 331 330 329 327 324 322 320 319 314 311 310 310 309 308 307
335 334 334 332 331 331 329 329 328 322 323 326 327 325 327 328 328 329 331 333 336 339 339 338 336 334 333 333 332 330 328 327 323 323 320 319 313 312 312 312 311 309 308
337 336 335 334 332 332 331 328 329 326 324 323 323 325 326 325 324 325 328 330 331 333 335 336 333 332 332 331 332 330 329 328 327 324 321 321 316 317 313 312 312 311 309
338 338 336 334 334 333 332 330 329 327 325 325 325 323 323 323 322 322 323 324 327 329 330 331 331 330 330 331 331 330 329 327 325 322 321 323 320 321 317 315 313 313 312
337 337 337 336 336 334 334 332 329 328 327 326 326 325 324 322 322 322 321 321 322 324 326 328 330 330 329 327 327 326 325 325 325 323 320 323 322 322 320 319 314 314 314
332 332 336 334 333 335 335 333 329 328 327 327 326 326 325 323 322 321 321 319 319 320 322 323 325 325 325 324 322 322 324 324 326 326 322 321 323 322 320 317 317 316 316

GFSMA_850_thetae_069.txt.gz
Theta_e
348 348 348 346 347 348 349 348 348 351 346 348 347 346 346 346 345 346 346 346 345 343 342 342 343 343 342 339 338 336 333 334 330 328 328 327 329 335 332 328 329 331 334
346 348 348 346 348 348 349 349 348 346 348 348 347 348 347 347 345 345 345 346 345 342 341 341 342 343 342 343 339 338 338 337 335 335 330 328 327 330 337 337 332 329 331
350 347 347 347 346 347 345 348 348 350 345 346 347 349 347 347 346 346 346 345 346 346 345 340 341 342 342 342 341 341 342 339 338 338 339 336 332 328 327 330 331 333 334
346 346 348 347 346 349 348 348 348 344 347 347 346 347 347 346 347 347 346 346 347 349 348 347 346 342 341 341 342 341 341 342 342 340 338 339 340 339 337 332 333 335 340
338 339 342 341 345 347 348 347 347 347 349 346 345 344 345 345 346 345 347 348 346 348 348 349 348 348 344 342 341 341 341 341 341 341 342 340 338 341 341 337 336 340 340
337 341 339 334 335 337 345 347 347 347 347 346 345 345 345 345 346 346 346 346 346 350 343 342 349 349 347 345 343 342 341 341 341 341 341 340 342 338 339 337 337 340 340
340 338 339 343 336 339 342 346 344 345 346 345 344 346 345 346 344 347 348 351 348 346 345 343 347 348 352 349 348 345 343 342 342 341 342 342 341 341 341 338 338 340 341
345 344 343 339 340 341 340 340 339 342 344 345 345 347 343 345 342 347 345 346 348 347 344 349 350 346 344 348 347 343 344 343 341 341 341 341 341 341 342 341 340 341 341
344 344 343 340 340 341 340 340 339 341 342 345 345 345 341 343 342 343 345 345 344 345 348 349 348 346 344 344 345 344 343 341 341 342 341 341 341 339 340 341 341 341 340
342 342 344 341 341 340 340 342 342 343 344 344 345 343 340 340 342 345 347 346 344 343 343 346 343 343 343 342 342 342 342 341 341 341 342 341 341 341 339 339 339 341 339
342 342 341 341 341 342 344 344 344 342 342 343 344 343 342 340 341 338 340 345 343 341 341 342 342 342 343 343 344 342 342 342 341 341 340 340 340 339 339 338 338 337 337
340 340 339 330 333 340 337 338 341 341 342 342 342 342 340 342 344 343 344 344 343 343 340 340 340 341 342 342 342 341 341 340 339 340 340 338 338 338 338 338 337 337 336
343 342 342 337 328 333 338 339 339 338 338 339 340 342 341 345 344 344 343 342 343 341 339 341 341 340 341 341 340 338 338 338 338 337 338 339 338 338 336 335 333 334 335
344 343 343 343 339 338 333 338 340 339 339 339 340 340 341 342 341 341 342 342 344 340 338 339 340 340 340 340 339 337 336 337 337 337 337 337 338 336 334 332 335 336 336
343 340 343 344 341 341 342 338 335 335 339 340 340 340 340 342 346 345 342 342 343 340 338 338 339 338 339 338 337 337 337 338 338 338 337 335 334 333 331 330 332 332 331
343 343 342 342 345 343 342 343 342 340 338 344 345 343 341 341 340 343 342 343 343 343 339 338 338 337 337 337 337 336 336 335 335 334 333 332 331 330 328 326 326 326 326
344 343 343 342 343 342 342 343 342 342 342 341 341 342 343 341 341 342 341 343 342 343 342 337 337 337 336 336 335 335 334 334 333 332 330 329 328 327 326 325 324 324 324
342 343 342 342 341 342 341 341 341 340 341 341 341 340 343 344 343 342 341 343 342 342 342 339 337 337 336 335 334 333 332 330 330 329 328 327 325 324 323 323 322 321 320
344 343 343 342 341 341 340 340 340 340 340 340 341 340 340 340 341 341 341 343 342 343 341 340 338 337 335 335 333 331 330 329 329 328 326 325 324 323 322 320 318 317 315
344 344 343 342 342 341 340 338 337 337 339 339 340 340 340 340 339 339 340 342 343 342 340 340 338 337 335 334 333 332 330 330 328 326 325 324 322 320 318 316 314 310 307
344 343 342 342 341 340 339 339 337 337 338 339 339 339 338 333 331 336 341 340 340 342 341 340 339 337 335 333 333 331 328 328 326 325 323 323 322 320 316 312 310 309 308
343 343 344 342 340 339 337 337 331 337 337 338 338 338 335 327 327 333 337 339 339 339 340 340 340 339 336 336 333 332 329 327 327 326 324 322 320 318 316 312 311 310 308
344 344 344 344 341 338 334 332 330 331 335 336 336 337 336 334 328 330 329 332 337 338 338 337 337 338 338 336 334 332 330 329 329 328 325 325 323 321 319 318 316 311 310
346 346 344 346 340 339 338 334 331 329 331 334 334 335 336 336 335 336 333 334 333 332 334 335 336 336 336 336 334 333 333 330 328 327 326 327 325 322 321 320 318 313 311
348 347 344 346 338 336 336 336 333 330 330 333 334 333 333 335 332 324 334 335 331 332 330 331 334 333 332 332 332 333 330 330 329 328 327 328 326 324 322 320 320 318 313
333 339 338 337 339 335 333 334 334 332 331 334 332 331 326 326 326 322 324 333 333 333 331 326 328 331 332 330 330 330 329 330 329 329 329 328 327 325 324 323 321 320 318

GFSMA_850_thetae_072.txt.gz
Theta_e
342 347 346 346 347 346 347 345 348 347 348 347 349 350 347 347 346 345 346 345 346 346 341 342 341 342 341 338 336 335 332 330 328 327 327 327 329 332 333 330 327 329 330
345 346 347 347 345 346 348 347 345 346 345 346 346 345 345 344 344 344 346 347 346 346 344 342 340 340 343 343 342 339 337 337 337 334 333 328 327 326 328 336 336 333 329
349 347 345 346 344 348 346 347 349 347 345 346 347 349 347 345 345 348 344 346 348 347 346 346 341 339 340 342 342 340 341 340 339 338 338 337 333 328 327 328 330 335 334
346 345 350 349 345 346 344 347 348 348 344 344 345 347 346 346 346 345 346 344 345 347 348 347 347 345 344 341 341 341 340 341 341 341 339 338 339 339 338 337 333 333 335
341 343 345 347 347 346 348 344 344 343 340 346 347 344 345 346 344 345 346 346 345 345 345 346 347 347 343 344 343 341 341 341 341 341 341 342 341 338 338 341 340 336 336
341 337 341 338 342 346 347 347 345 345 343 347 347 346 345 345 346 345 346 347 347 348 348 348 344 345 339 340 345 343 342 341 341 341 340 341 341 340 341 339 339 338 337
345 342 336 340 338 334 341 344 345 346 344 345 346 345 345 346 347 344 344 347 347 348 334 346 345 343 345 346 343 347 346 344 342 342 342 342 342 342 341 341 340 338 338
343 345 340 340 339 341 335 338 342 344 340 344 342 344 344 343 342 342 346 347 348 348 346 345 344 348 349 345 346 347 346 343 339 342 342 341 341 341 341 342 342 341 340
344 344 343 343 341 341 339 341 340 340 339 339 342 344 344 340 340 342 342 344 345 345 343 346 345 345 343 343 342 343 342 343 342 341 340 341 341 341 341 339 340 340 341
344 343 344 344 342 339 340 342 340 340 341 341 342 343 344 342 340 342 342 343 346 343 342 344 344 344 343 342 341 340 340 342 341 342 342 341 342 341 340 339 339 340 340
340 344 342 343 341 341 340 341 343 343 342 343 342 344 344 342 341 340 341 333 336 338 341 341 342 342 342 343 342 343 342 341 341 341 341 341 340 340 339 338 337 339 337
336 338 341 341 337 336 342 342 341 342 344 343 343 344 343 342 340 340 340 339 342 342 342 341 340 340 341 343 343 342 341 342 341 341 340 340 339 338 338 338 337 337 337
342 341 336 334 332 332 336 337 338 334 335 339 341 341 341 340 338 341 344 344 344 341 342 341 340 340 341 341 341 339 339 339 339 339 339 338 338 338 337 335 335 336 336
343 344 341 338 339 333 333 337 339 337 336 339 338 338 337 339 343 345 343 340 343 342 341 339 341 341 340 339 340 338 337 337 337 336 339 338 337 337 336 334 336 337 336
345 343 343 341 341 340 339 338 334 336 337 338 340 340 340 341 341 342 343 343 343 342 340 339 339 339 339 339 338 337 336 336 338 338 338 337 337 334 333 332 334 336 335
341 346 343 343 342 342 340 340 341 341 338 336 334 331 342 340 340 340 343 343 341 343 341 339 338 338 337 337 335 336 337 337 337 336 335 334 332 331 330 329 331 330 329
341 340 343 341 342 342 340 340 340 340 340 338 338 341 340 341 340 340 340 341 342 343 342 340 338 338 337 337 336 336 335 334 334 333 332 331 330 328 327 326 325 325 325
339 342 345 343 340 340 340 341 340 341 341 341 339 340 339 341 342 341 340 340 342 343 343 342 337 337 336 335 335 335 334 334 332 331 330 329 328 326 325 324 324 323 323
344 344 343 342 341 341 339 340 339 341 341 340 339 339 340 339 339 342 340 341 343 342 342 341 339 337 336 335 334 334 332 331 331 329 328 327 325 324 323 322 321 320 319
344 343 343 342 341 341 342 340 340 337 338 340 339 338 338 339 338 339 339 341 343 342 342 340 339 337 336 335 334 332 332 331 331 329 327 325 325 323 321 320 318 316 313
343 343 342 341 341 340 341 339 339 337 337 336 337 336 339 338 331 332 339 342 342 341 342 340 339 338 336 334 334 333 331 331 330 328 326 325 324 323 321 319 314 310 309
343 343 341 341 341 340 338 338 338 336 337 337 336 337 337 335 329 329 336 339 340 339 339 338 339 338 338 336 335 333 331 329 328 327 327 326 325 324 322 316 312 311 309
343 342 343 342 341 341 339 337 334 331 335 336 336 336 335 337 330 331 329 334 337 337 337 337 338 337 338 338 336 333 332 331 329 329 327 326 324 323 322 321 315 312 310
344 342 342 341 342 341 338 337 336 334 329 334 335 335 335 335 334 335 333 333 336 334 336 335 335 334 334 335 336 335 334 331 329 329 328 326 325 323 322 321 321 319 316
344 342 345 342 341 340 336 333 336 333 330 329 332 334 333 334 335 328 335 335 333 330 329 330 332 333 333 333 333 332 332 331 330 330 329 326 327 326 323 323 321 320 321
346 341 341 340 341 337 335 333 334 335 332 330 331 333 332 328 328 325 327 334 334 332 331 328 327 329 332 332 331 330 332 332 330 329 329 328 327 327 324 323 321 321 321

GFSMA_850_thetae_075.txt.gz
Theta_e
346 346 347 346 346 345 345 345 346 346 346 346 346 347 346 344 347 345 346 346 345 345 344 342 341 341 340 337 334 331 329 328 326 326 328 328 327 332 336 331 327 327 331
341 344 346 347 344 343 345 346 345 345 346 347 346 344 345 346 346 346 347 345 346 345 345 344 343 340 340 342 343 339 337 336 334 334 331 329 327 333 329 332 335 335 331
344 343 346 345 346 343 346 347 347 346 345 343 345 346 345 345 345 344 345 345 344 347 346 346 345 342 340 340 342 342 342 339 339 337 337 336 334 330 328 327 329 333 337
341 345 345 344 345 347 346 344 347 347 347 343 343 345 345 344 342 343 344 344 345 345 344 345 346 346 345 343 340 341 341 342 341 341 339 338 338 338 337 334 334 332 335
345 343 346 344 345 345 345 342 345 347 346 341 342 346 344 343 343 344 343 345 345 345 345 344 345 346 347 345 338 341 341 341 341 341 342 341 341 340 338 339 340 340 339
342 342 342 346 340 344 343 346 345 345 342 341 346 346 346 344 345 344 345 346 346 346 346 346 345 345 346 345 342 339 341 341 341 341 341 340 340 341 339 340 340 339 340
346 342 339 337 340 343 344 341 342 345 344 342 342 344 345 345 344 345 343 345 343 344 347 341 343 343 345 344 340 340 339 343 343 342 341 341 341 342 342 341 341 341 340
343 343 341 341 339 336 337 338 343 339 341 345 343 344 343 342 343 344 342 341 342 344 346 345 344 343 344 345 343 340 342 344 345 344 342 342 341 341 341 341 341 342 341
343 342 342 343 340 338 339 339 336 337 340 341 340 342 343 342 341 341 340 341 342 346 346 344 343 344 344 343 342 340 340 342 343 343 340 342 341 341 341 341 340 340 340
342 343 344 343 340 340 341 340 339 340 340 340 340 339 341 343 341 339 339 343 343 339 336 340 342 342 343 342 342 340 339 340 341 342 341 341 340 341 341 340 340 339 340
338 343 342 343 341 343 341 339 341 341 340 341 341 341 342 343 343 341 340 339 334 336 336 335 341 341 340 340 341 342 342 341 341 340 341 341 341 341 340 339 337 339 339
336 340 341 341 341 340 341 341 342 343 343 344 345 343 342 344 343 342 339 339 340 340 341 341 341 340 340 340 342 342 341 341 341 341 341 340 340 340 338 337 337 337 337
342 338 336 335 331 330 334 337 338 336 335 336 341 343 343 343 342 340 339 341 344 344 341 341 340 340 340 340 341 340 339 340 340 340 339 339 338 338 338 337 336 337 337
344 344 340 339 338 332 330 334 336 335 334 335 333 334 337 336 338 341 342 344 344 342 341 341 339 341 341 339 339 338 338 338 338 338 338 338 338 338 337 335 334 337 336
344 343 341 339 341 340 338 338 334 335 338 338 338 339 340 340 340 339 339 340 341 341 342 340 338 340 339 340 339 337 336 336 337 338 338 337 336 337 334 333 336 336 336
343 344 344 342 341 340 339 339 340 338 336 335 333 333 331 332 334 339 340 337 340 342 343 340 339 338 339 338 337 336 338 336 336 336 336 336 335 334 332 331 335 335 335
343 341 342 338 339 341 339 339 340 339 339 339 338 339 340 340 339 340 339 339 341 342 343 341 340 337 337 337 336 336 336 335 335 334 334 332 331 330 329 328 328 328 328
338 336 340 339 340 340 338 339 338 339 341 341 340 339 339 339 339 340 341 340 340 340 342 342 340 337 336 336 336 335 334 334 333 333 332 330 329 328 327 326 325 325 325
339 339 342 342 338 339 339 339 338 336 339 340 338 338 338 339 340 339 340 340 340 341 341 342 341 337 336 335 334 333 333 332 331 331 330 329 328 326 325 324 323 323 322
341 343 344 342 341 340 339 339 338 338 333 336 338 337 337 337 337 337 338 338 341 341 342 340 341 337 336 335 334 334 332 332 331 330 329 327 326 325 324 323 322 321 319
342 342 342 341 341 340 339 339 338 339 334 335 335 337 335 337 336 327 332 340 341 341 341 341 340 338 336 335 333 333 332 332 331 330 329 327 327 326 324 323 320 318 313
342 343 342 342 340 340 339 339 339 338 336 337 336 336 336 335 332 327 333 338 339 340 338 338 339 338 338 337 335 334 333 331 331 331 330 328 327 326 325 323 319 313 312
343 342 342 341 341 340 340 339 337 337 334 336 335 335 333 335 334 333 328 335 337 337 336 337 336 338 338 338 336 334 333 332 332 331 329 329 328 327 325 322 320 315 313
343 343 342 342 341 340 339 337 336 335 331 336 335 335 335 334 334 334 332 331 330 334 335 334 334 334 333 334 336 336 334 332 331 330 329 329 328 328 325 323 321 320 320
343 343 343 342 341 341 337 335 335 336 333 332 333 331 334 334 334 333 331 335 335 330 328 330 331 332 332 333 333 333 334 331 330 330 330 329 329 326 324 325 323 322 321
344 343 343 342 340 339 335 333 333 335 332 330 329 332 332 332 330 329 327 329 332 331 331 331 326 327 326 330 330 331 331 331 331 330 329 329 329 326 326 326 325 323 322

GFSMA_850_thetae_078.txt.gz
Theta_e
344 346 346 346 344 339 339 344 344 343 337 332 342 344 342 342 344 344 345 345 344 345 344 342 341 341 341 338 332 329 328 327 326 326 327 327 327 330 336 332 327 326 329
344 344 344 344 346 345 343 343 343 344 346 345 344 344 345 345 346 346 345 346 344 346 345 345 343 341 340 340 342 341 336 335 333 332 329 328 327 328 336 336 334 332 331
343 341 342 343 342 344 345 346 346 344 344 345 345 345 344 345 345 346 345 345 344 344 345 345 345 344 342 340 340 342 342 342 339 337 337 337 334 331 328 329 333 334 335
341 343 344 345 345 343 344 343 347 346 345 345 343 345 345 344 344 345 346 343 343 343 345 344 344 344 345 343 341 339 341 341 341 340 341 339 337 337 337 336 331 331 332
343 341 341 342 342 345 346 345 342 345 343 344 340 344 345 343 344 343 343 343 344 344 345 346 345 344 344 344 345 344 338 339 341 341 341 341 341 340 339 338 338 339 339
344 346 342 345 343 343 343 345 343 344 345 341 342 341 344 343 343 343 342 342 344 345 346 344 344 346 345 344 345 344 344 340 338 341 341 340 341 340 341 341 339 339 339
345 343 342 342 343 342 338 342 342 344 343 343 339 343 343 342 345 344 344 344 344 345 344 344 345 345 343 339 344 344 344 339 341 342 341 341 340 340 341 341 341 341 341
344 344 344 343 340 337 341 343 342 341 340 341 342 342 342 341 342 344 341 343 343 340 340 343 344 344 342 342 342 343 345 343 339 343 342 342 341 341 341 341 341 341 341
343 343 343 344 341 339 340 339 339 340 340 338 337 342 343 342 341 340 341 342 340 342 342 343 345 342 342 344 344 343 342 341 342 344 344 343 341 341 341 341 341 341 340
339 342 343 343 341 342 340 338 339 339 337 337 340 340 340 341 342 340 340 340 342 343 342 336 336 339 341 342 342 340 339 337 339 340 342 342 341 342 341 341 341 340 339
336 341 342 343 343 341 340 338 339 340 339 340 340 339 340 339 341 342 342 341 339 338 338 334 335 339 340 340 340 341 341 341 340 340 341 341 341 341 340 341 340 338 339
335 340 342 342 343 340 339 340 341 339 341 341 341 342 341 341 341 342 343 341 339 338 337 338 339 341 340 339 340 342 342 342 342 341 340 341 340 340 340 339 337 337 338
341 336 336 340 338 334 336 339 341 341 341 340 340 343 343 343 342 343 342 341 339 340 340 341 340 340 339 340 341 340 340 340 341 341 341 340 339 339 338 337 336 337 338
343 342 340 336 333 332 333 334 336 338 336 335 333 333 340 342 341 341 341 339 341 342 342 339 340 339 338 339 339 339 338 339 339 339 339 338 338 338 337 336 335 337 338
344 343 340 339 340 338 336 337 336 336 337 337 337 337 337 336 335 337 338 340 342 342 341 340 340 339 339 339 339 338 337 337 337 337 338 338 338 337 336 335 335 337 337
344 343 341 339 340 341 338 338 339 336 334 334 334 333 337 340 338 338 338 338 339 342 341 340 340 339 338 339 338 337 336 335 336 336 335 336 336 336 333 333 335 336 336
344 343 343 342 339 340 339 339 339 339 340 341 337 336 337 337 336 335 335 336 337 340 341 342 340 339 337 338 337 335 336 336 336 335 336 336 334 333 332 331 333 335 334
345 345 342 341 338 340 338 338 339 337 339 339 339 338 339 339 339 339 340 340 339 340 340 342 341 338 337 336 337 336 336 335 334 334 333 332 331 330 329 328 328 327 327
340 341 339 340 339 339 338 339 339 336 337 340 339 338 338 338 339 339 339 339 340 340 341 340 341 339 336 336 336 334 333 333 333 332 332 330 329 327 326 326 325 325 324
341 339 339 340 340 338 339 338 337 338 337 338 338 337 336 336 337 337 336 336 337 340 340 341 340 339 337 335 334 334 333 332 332 331 330 328 328 326 325 324 323 323 322
343 339 340 341 340 340 339 339 339 339 338 333 337 337 336 335 336 334 327 332 339 342 340 339 339 338 336 335 334 334 333 333 332 331 329 328 327 326 325 324 323 322 319
345 341 341 341 341 340 340 339 339 340 339 335 335 334 335 335 332 326 329 336 339 338 338 338 339 338 336 335 334 333 333 332 331 331 330 328 327 326 325 324 322 320 316
345 341 342 342 341 341 340 340 340 338 339 336 336 335 335 334 335 333 328 335 336 336 335 335 335 336 337 337 336 334 334 334 333 332 331 330 328 327 326 324 323 318 313
345 343 342 342 341 340 338 339 339 338 337 336 336 335 334 334 334 333 328 329 332 334 334 334 335 336 336 336 337 337 335 334 332 332 331 330 329 329 328 325 322 321 318
345 344 343 342 341 340 340 340 337 335 335 332 336 335 334 334 333 332 331 331 331 328 331 334 332 331 333 332 332 332 333 333 332 330 331 330 330 329 329 327 324 323 322
326 341 343 343 341 340 339 338 334 333 335 334 333 334 332 334 332 332 330 331 332 331 330 329 326 329 331 332 332 332 332 331 332 331 330 330 328 329 329 327 327 325 324

GFSMA_850_thetae_084.txt.gz
Theta_e
337 339 340 342 341 339 337 338 334 331 329 333 335 336 336 340 343 343 344 344 343 343 343 343 341 341 339 336 331 327 326 325 325 326 326 328 327 327 327 327 325 325 324
340 340 345 344 344 339 336 336 340 338 333 330 334 334 338 340 341 341 343 343 343 344 345 344 342 342 340 340 340 339 335 330 329 327 326 327 328 327 327 327 331 333 328
341 342 344 345 344 343 340 338 341 344 342 335 330 335 343 343 340 339 343 345 344 344 344 344 342 343 342 342 341 340 340 341 340 336 335 335 333 330 328 327 329 336 336
343 344 343 344 344 344 344 343 342 342 344 343 339 335 341 341 343 344 344 343 344 344 344 343 342 343 343 342 343 344 340 340 341 342 342 340 337 338 337 336 334 330 330
344 344 344 342 342 344 344 343 344 345 343 343 343 343 342 343 344 344 345 344 344 344 344 344 344 344 343 343 343 344 344 343 343 340 340 340 341 340 341 339 338 337 337
341 343 342 341 341 342 343 342 342 344 343 343 344 343 342 342 343 344 343 342 342 344 342 342 344 345 344 343 343 343 344 343 344 343 340 340 339 340 341 341 340 340 339
341 344 341 341 342 341 341 342 342 342 341 341 342 342 342 339 340 343 343 343 343 341 341 342 342 342 343 343 343 343 344 343 340 340 344 344 341 340 339 341 341 340 340
344 344 342 341 342 344 342 341 341 341 341 342 340 342 342 339 338 340 341 341 342 342 342 342 343 343 342 339 341 343 344 344 341 342 343 344 343 341 340 341 341 340 341
342 343 342 343 343 344 343 339 340 342 341 341 341 340 341 339 338 339 340 341 341 342 342 341 340 340 341 342 342 343 344 343 342 343 343 342 341 340 341 342 341 341 341
340 342 340 342 343 343 343 343 340 339 340 340 340 340 340 339 338 340 340 340 340 341 341 340 339 341 341 342 341 341 341 341 340 341 341 340 341 343 342 342 341 341 341
341 338 338 337 339 342 342 344 343 339 341 340 340 341 340 339 338 340 340 340 339 339 340 340 339 338 335 336 338 340 340 339 339 340 340 338 338 339 343 342 341 341 340
339 334 334 339 341 342 343 345 344 342 338 339 339 339 338 338 339 339 340 339 339 339 339 340 341 337 336 335 338 340 339 339 340 341 341 340 339 339 340 341 341 340 340
336 338 336 337 341 342 342 342 342 341 339 337 339 340 340 340 340 340 340 340 340 340 341 342 338 337 337 339 340 340 340 340 341 341 341 341 340 340 340 340 340 339 337
337 341 339 335 335 336 339 340 340 339 339 339 339 340 340 339 339 342 343 341 341 341 341 341 339 340 339 339 339 338 339 339 339 340 341 340 340 340 339 339 337 336 337
337 341 342 340 337 334 332 332 334 336 337 339 340 337 336 336 335 337 343 343 343 341 341 338 340 341 339 339 338 337 338 337 338 339 339 339 338 338 338 337 336 335 338
336 340 341 339 336 337 336 333 333 334 334 335 335 337 337 337 338 337 336 337 339 341 341 339 336 339 339 338 339 337 338 337 337 337 337 337 337 337 337 336 335 335 337
339 338 342 340 337 338 339 338 337 336 336 337 336 334 334 333 333 336 335 337 338 337 337 337 338 339 340 339 338 336 337 335 335 335 335 335 335 335 335 334 334 336 337
340 340 341 342 342 342 339 338 337 337 337 336 337 338 338 336 335 336 338 337 335 337 334 334 333 335 336 339 338 337 336 335 335 334 334 334 335 334 333 333 333 334 335
341 337 341 341 342 339 338 339 337 338 337 335 335 337 337 337 335 336 336 336 337 337 337 337 334 332 336 339 337 336 336 335 334 334 334 334 333 331 331 331 332 333 331
340 339 341 339 340 338 337 339 337 338 338 336 337 336 336 336 335 335 333 336 337 335 337 339 339 338 339 339 337 337 336 335 335 334 333 332 330 330 329 328 328 328 327
341 341 341 341 337 334 338 336 337 337 338 337 336 336 333 336 335 335 335 335 333 327 331 338 336 337 338 338 337 336 335 334 333 332 332 331 330 328 327 326 325 324 324
332 336 339 339 338 337 336 338 338 337 337 338 339 337 333 334 336 335 332 326 327 333 335 335 337 337 337 338 337 335 335 335 333 333 332 331 330 328 327 325 324 323 323
331 330 329 338 342 339 339 340 339 339 339 338 338 338 335 334 334 335 333 331 332 335 335 334 335 336 337 337 336 336 335 334 333 333 332 331 330 328 327 325 324 324 323
340 331 330 329 334 342 339 340 340 340 340 339 338 337 336 335 334 334 334 331 331 333 333 333 332 333 333 336 337 336 335 334 333 332 332 331 330 330 328 326 326 325 323
345 335 329 329 327 338 340 339 340 341 341 339 338 336 336 334 334 333 332 330 329 332 333 332 331 332 333 335 334 333 334 334 333 332 331 331 331 331 330 329 328 327 326
347 331 330 332 328 337 331 335 339 341 341 339 338 335 334 335 334 333 332 330 330 331 328 331 331 331 332 332 332 333 333 332 330 330 330 330 330 330 329 329 328 329 328

GFSMA_850_thetae_087.txt.gz
Theta_e
337 337 337 337 340 341 340 335 331 333 330 328 330 337 337 339 338 342 343 344 344 343 343 343 341 340 339 336 332 327 325 326 326 326 326 327 328 327 327 326 326 326 327
337 337 340 341 341 340 337 338 337 330 329 329 331 331 333 336 337 342 342 343 343 343 343 344 342 342 341 341 340 339 336 331 328 327 326 327 327 328 327 328 328 330 329
340 340 339 345 344 344 340 336 337 339 337 333 331 334 336 335 340 341 340 341 343 343 344 344 344 342 343 342 342 341 340 340 340 337 332 331 331 331 328 328 328 327 334
338 340 341 344 344 344 342 340 337 341 343 342 337 331 332 338 343 342 340 339 343 344 345 343 343 342 342 343 342 343 343 343 340 341 342 342 340 340 336 337 335 332 330
340 342 342 342 343 344 344 343 342 340 342 343 342 341 335 336 341 341 342 343 343 343 344 344 344 343 343 343 342 343 343 343 343 343 342 341 341 341 341 340 340 338 338
342 339 343 344 343 342 343 344 343 343 342 342 342 345 342 342 342 342 343 344 344 344 343 343 343 343 344 343 343 342 342 343 343 343 343 343 339 339 340 340 341 341 340
342 341 336 339 342 342 340 342 342 342 341 342 342 341 342 342 341 340 343 344 343 342 343 342 342 342 341 342 343 343 342 341 342 344 342 340 343 343 343 340 339 340 341
342 340 341 342 341 340 341 341 341 342 342 342 340 340 343 344 342 339 338 342 342 342 341 342 342 342 342 343 343 340 340 342 343 344 344 341 341 343 344 342 339 340 340
344 342 343 343 342 342 342 343 343 340 340 341 343 341 341 341 342 338 338 338 339 340 340 341 341 342 341 340 340 343 342 342 342 343 343 342 342 343 341 341 340 341 341
341 342 341 342 343 342 343 342 343 343 337 338 340 341 341 341 341 341 340 338 339 340 340 340 341 341 340 340 339 339 339 340 342 342 341 340 340 340 340 342 342 342 341
341 340 340 338 338 336 335 339 342 344 343 338 339 340 340 340 340 342 340 341 340 339 340 340 340 340 340 338 336 335 335 338 340 339 339 340 340 339 340 342 342 343 341
343 341 337 333 334 340 341 342 342 342 343 340 339 340 340 340 339 340 342 342 342 342 342 339 339 339 341 338 336 336 339 340 340 339 340 341 340 339 338 339 342 341 341
341 337 335 334 337 341 342 342 342 343 342 342 339 340 339 339 340 340 340 342 344 342 341 340 340 340 341 337 338 339 339 339 340 340 341 341 340 340 340 340 341 341 340
340 337 340 339 335 338 337 340 340 341 341 340 339 337 337 337 339 340 339 341 342 342 341 341 340 341 340 339 339 339 338 338 339 339 340 340 340 340 340 340 340 340 337
338 339 342 342 341 337 333 331 334 339 340 340 340 339 339 340 338 336 335 337 342 342 342 342 341 338 340 340 340 339 337 338 338 339 340 340 340 339 339 339 338 336 337
341 336 340 342 339 336 336 336 330 331 334 336 339 339 338 336 336 337 338 337 338 338 339 340 339 337 337 339 338 339 338 338 338 338 338 338 338 338 337 337 336 336 337
338 336 338 340 338 336 336 338 339 337 338 336 335 335 335 334 334 333 336 335 336 338 338 337 337 336 338 339 339 340 337 337 336 336 336 336 337 337 336 336 335 335 338
339 336 336 338 339 339 339 337 337 337 337 337 338 338 337 336 336 334 335 336 337 335 336 337 333 335 335 337 335 338 337 336 335 335 335 334 334 335 335 334 335 336 338
342 340 336 336 337 337 337 335 337 338 337 337 335 335 337 338 337 337 337 337 336 337 336 335 336 334 332 332 336 338 336 335 335 334 334 334 334 334 333 333 334 335 336
342 340 337 333 333 332 334 334 336 338 336 337 337 336 335 336 337 335 335 334 335 337 337 337 338 338 337 337 336 338 336 335 335 335 335 334 333 332 331 332 333 333 332
345 342 338 337 338 336 335 334 336 337 337 337 336 336 336 335 335 335 335 334 336 335 334 331 336 338 338 339 338 338 336 335 335 335 333 332 331 331 330 329 328 332 330
344 341 340 341 342 339 336 335 337 335 336 337 337 337 338 336 333 336 335 334 328 328 331 334 335 336 336 336 338 337 336 334 333 334 332 331 331 329 328 327 326 325 325
345 342 341 342 341 342 339 337 337 338 337 337 338 338 337 337 334 335 335 334 331 332 335 335 336 337 337 336 336 337 335 335 334 334 332 331 330 329 327 326 325 324 324
344 345 341 342 341 341 340 340 338 340 339 339 339 339 338 336 336 335 334 334 333 332 334 333 333 333 334 334 335 336 336 335 334 333 333 331 331 329 328 327 326 325 325
345 346 345 337 334 335 334 340 340 340 340 340 339 340 338 336 335 334 334 333 332 332 333 333 332 332 332 333 335 335 335 334 333 333 332 332 331 331 331 329 328 328 326
345 346 346 345 340 335 335 334 338 341 340 340 340 340 338 335 336 334 333 332 330 331 333 332 332 330 331 333 334 334 333 334 334 333 333 331 331 331 331 330 330 329 328

GFSMA_850_thetae_093.txt.gz
Theta_e
348 347 348 347 349 344 348 346 344 343 344 345 344 345 345 345 345 346 346 347 342 342 342 341 342 340 339 338 334 330 327 326 325 326 326 326 327 327 329 327 327 325 325
348 346 347 349 348 346 349 347 345 347 345 346 346 345 344 345 345 345 345 348 348 342 342 342 342 343 341 340 340 340 340 339 337 333 328 327 326 326 327 329 329 328 328
349 349 348 346 348 350 349 347 346 344 346 345 345 345 344 344 344 345 345 346 347 349 346 343 342 343 343 342 343 342 341 340 340 339 339 339 336 331 330 335 334 329 328
347 346 348 347 349 346 348 347 347 348 346 346 345 344 345 345 346 346 346 347 347 348 347 349 346 343 342 343 342 342 343 342 342 343 343 340 340 340 340 338 339 337 338
349 347 349 348 348 345 346 344 344 348 346 346 348 349 345 345 345 344 345 345 347 347 348 348 348 349 347 344 342 342 342 342 341 342 342 343 342 340 340 341 342 341 339
348 348 348 348 348 346 347 349 347 350 349 347 348 348 347 348 347 346 345 346 348 347 347 349 349 348 347 345 343 342 341 341 341 341 342 342 342 342 343 342 340 341 341
346 346 347 348 345 344 348 347 344 345 343 345 347 348 348 350 349 348 347 346 346 346 347 346 349 349 348 349 348 347 343 342 342 342 343 342 341 341 343 343 343 341 342
349 346 340 342 340 339 341 342 341 343 344 345 348 346 347 347 347 347 346 347 349 347 348 347 346 348 347 349 349 348 347 343 341 340 340 342 342 341 342 342 342 341 342
347 348 347 340 343 345 337 342 341 340 342 345 348 346 346 345 345 346 347 347 346 347 346 347 347 347 348 350 348 349 346 343 339 340 342 342 342 342 342 343 343 342 342
348 348 347 348 347 346 346 345 344 345 344 346 345 346 346 346 346 346 346 347 347 348 348 349 348 347 350 345 347 348 346 341 338 337 336 339 340 343 343 343 342 342 343
349 352 348 348 348 344 344 340 341 343 344 344 346 346 347 347 347 346 347 346 348 348 347 347 346 347 348 347 347 348 345 341 339 336 336 338 339 339 339 339 340 340 340
351 350 349 346 345 345 344 339 340 341 342 343 343 346 347 345 343 345 345 344 344 345 345 347 345 344 344 346 347 345 344 341 338 337 337 340 340 340 339 340 340 340 340
348 348 345 346 345 343 342 344 343 342 342 343 342 343 344 344 343 339 344 344 345 346 345 347 346 345 345 345 346 345 342 341 339 338 339 339 340 340 341 341 340 339 339
347 347 349 348 343 348 346 344 343 343 343 343 344 346 343 342 343 340 341 343 341 345 344 343 343 346 346 346 345 345 341 340 339 339 338 339 340 340 341 340 340 339 339
347 349 350 347 346 347 347 341 334 334 340 343 341 341 341 341 341 340 340 344 341 343 344 345 344 343 344 345 342 343 342 340 341 338 339 339 340 340 340 340 340 340 341
349 350 348 348 349 347 348 346 345 343 336 343 343 340 340 341 341 340 340 339 341 343 344 342 344 342 342 341 341 340 340 342 340 338 338 339 339 340 340 340 340 340 339
349 349 349 350 349 347 347 347 345 345 344 343 345 345 343 343 341 340 342 342 342 340 339 340 344 341 340 339 339 338 339 340 339 338 338 337 338 338 338 338 338 337 337
349 349 349 348 348 346 346 347 347 345 344 344 344 345 345 345 342 341 341 342 341 340 341 341 341 341 340 340 338 339 339 339 339 338 337 336 337 337 337 337 336 336 337
350 349 349 348 348 347 347 345 346 346 346 345 344 343 344 342 344 343 343 341 343 340 340 341 342 341 341 337 337 337 338 338 339 338 336 336 335 335 336 336 336 335 337
351 350 349 348 348 347 347 345 345 347 345 344 344 345 343 342 342 341 342 341 342 339 342 339 340 341 340 339 335 336 336 337 338 337 335 336 335 334 335 335 335 336 337
350 349 349 348 347 347 345 345 344 343 343 344 344 344 344 342 342 343 341 342 342 342 342 342 342 340 340 339 339 336 333 335 337 336 335 335 334 334 334 334 335 338 337
350 351 349 348 349 346 346 345 345 347 343 344 342 342 343 342 341 339 336 336 338 339 340 339 339 340 340 338 336 338 338 337 335 336 335 335 334 334 333 332 336 336 336
350 350 351 353 351 349 346 346 345 344 345 343 342 341 341 343 341 342 339 336 335 334 333 338 340 340 340 339 338 337 337 338 337 335 335 335 333 333 333 332 334 335 334
350 349 350 349 352 350 347 342 337 339 345 343 344 343 343 341 343 343 340 340 336 337 334 332 333 338 337 337 338 337 337 337 335 335 334 334 333 333 333 333 332 329 333
347 337 342 347 350 350 343 343 343 341 343 343 344 343 345 344 342 341 341 340 341 340 340 336 335 337 337 335 336 335 336 336 334 335 334 333 333 333 334 332 331 328 327
335 336 338 348 351 351 348 345 345 344 344 343 343 344 344 343 343 342 339 339 341 341 340 337 333 332 331 331 332 333 335 335 334 334 334 333 333 333 332 332 332 329 328

GFSMA_850_thetae_096.txt.gz
Theta_e
342 344 346 346 345 344 343 343 344 343 341 344 344 347 343 344 346 347 347 345 346 342 340 340 339 339 338 336 332 329 327 326 325 325 326 326 326 332 327 328 327 327 326
346 341 344 346 347 346 347 345 345 344 345 343 344 342 342 344 343 345 347 346 347 347 343 341 341 342 342 340 339 339 339 338 337 335 330 327 326 326 326 327 328 328 328
349 344 344 347 348 347 347 348 346 347 345 344 346 346 342 338 343 343 343 346 346 344 348 346 344 342 342 342 341 342 341 340 340 340 339 339 338 337 331 331 331 338 329
349 346 347 347 347 348 348 346 345 344 344 345 343 344 345 346 343 342 344 342 348 344 346 347 347 345 343 342 341 342 341 342 342 342 342 343 341 340 341 339 339 337 339
345 346 347 347 345 348 346 346 347 345 346 345 346 345 344 345 345 345 347 342 347 347 348 347 348 348 348 347 345 343 341 342 342 341 341 342 342 342 341 339 339 341 341
345 344 345 348 347 347 344 343 344 344 346 346 345 348 347 346 345 345 346 345 346 344 347 348 348 348 347 347 346 344 342 341 340 341 341 341 342 342 342 342 342 342 341
346 340 343 346 349 349 346 344 345 344 347 349 348 347 347 348 346 347 346 345 346 344 346 346 345 345 346 346 349 345 348 346 342 341 341 341 342 342 342 341 342 343 343
346 346 342 347 347 346 345 346 346 344 343 344 346 343 343 345 347 346 344 346 347 345 346 346 346 345 346 347 349 349 348 347 347 343 341 339 340 341 342 342 341 342 342
347 347 346 344 348 349 343 342 342 340 339 339 342 346 345 346 345 347 350 347 344 347 347 347 348 348 346 346 347 347 347 348 346 343 339 337 339 340 342 342 341 342 342
347 345 343 346 345 342 339 342 337 338 342 341 341 341 345 344 346 345 346 348 346 349 347 347 349 348 348 347 345 347 344 345 346 342 340 336 336 337 339 342 342 342 343
346 348 347 345 345 346 345 345 345 343 343 343 344 344 344 343 342 344 346 346 346 347 345 344 343 347 346 346 345 345 344 346 347 341 340 335 336 339 339 339 340 340 340
351 348 347 349 346 346 346 343 343 339 337 339 341 339 342 343 343 343 344 342 345 345 346 348 346 347 346 345 345 346 347 344 345 342 339 338 337 339 340 340 339 340 340
350 351 344 346 346 344 343 341 341 341 340 339 339 339 341 341 344 344 342 341 340 337 346 346 346 347 346 345 346 347 345 346 344 341 339 338 339 339 340 340 341 341 340
347 348 346 344 343 343 342 341 341 339 341 341 342 343 344 343 342 343 344 343 342 341 341 344 346 344 343 346 346 345 345 344 343 340 339 339 338 339 340 340 340 339 339
350 347 346 345 346 342 345 345 341 342 343 343 343 344 343 343 342 342 343 343 341 341 342 341 341 342 343 343 346 345 345 344 344 340 339 339 339 340 340 340 340 340 340
351 349 348 346 342 346 345 346 344 342 341 342 345 347 344 343 344 341 341 341 340 341 340 341 342 342 342 342 343 343 341 342 340 343 338 338 338 339 340 340 340 340 340
347 350 350 347 346 345 346 343 343 345 346 343 342 345 343 343 342 340 340 340 340 340 342 339 340 340 341 340 340 340 340 339 339 340 338 338 337 338 338 339 339 339 338
347 345 349 346 349 346 345 343 343 342 344 342 343 343 345 345 343 341 340 341 340 339 340 337 340 340 340 340 340 340 339 339 340 339 338 337 337 337 338 337 337 337 337
348 349 346 348 345 348 347 346 344 343 343 343 343 342 342 342 342 341 342 341 342 341 341 339 339 339 340 339 338 338 339 339 340 338 339 336 336 336 337 337 336 336 336
350 348 347 348 346 346 348 345 345 344 343 344 344 342 342 342 342 342 341 340 341 341 341 338 339 339 341 341 339 336 336 338 337 336 338 337 336 335 335 336 336 335 336
348 347 347 348 348 346 348 347 346 343 343 342 342 342 342 342 341 341 341 341 339 340 340 341 340 339 340 341 338 338 335 337 334 336 337 336 335 335 335 335 335 335 335
345 347 348 347 348 346 347 346 344 344 344 343 342 341 340 341 343 342 341 339 336 339 340 341 341 340 340 339 339 338 336 336 334 336 336 336 335 335 334 334 334 335 338
348 349 347 347 347 347 347 347 346 344 343 347 343 341 341 341 341 341 341 338 337 335 334 336 337 338 339 340 340 337 336 336 337 336 336 335 335 335 334 333 333 335 337
346 346 345 344 345 346 348 347 346 345 344 341 341 341 340 341 341 343 343 343 340 339 337 333 333 333 332 335 338 338 337 336 337 337 336 335 335 335 333 333 333 335 335
343 343 346 346 345 342 344 347 343 341 337 336 335 336 336 341 342 341 341 342 341 339 339 339 337 334 334 336 336 337 337 336 334 334 335 333 334 334 333 334 334 332 335
344 344 340 337 334 337 345 343 343 344 343 343 343 341 337 340 341 344 341 338 340 339 340 340 340 337 337 337 334 332 334 335 335 334 335 334 333 333 333 333 334 332 330

GFSMA_850_thetae_102.txt.gz
Theta_e
342 344 341 339 337 328 322 336 332 333 335 340 342 343 343 345 346 346 343 344 344 341 341 339 336 334 333 329 324 323 324 325 325 325 325 324 325 327 328 336 332 328 326
344 343 345 345 338 336 323 326 325 331 330 336 343 344 345 345 345 345 346 346 344 345 345 340 340 340 341 340 337 335 332 329 327 326 325 325 325 325 327 332 328 328 328
341 342 344 346 342 338 336 338 338 339 334 342 341 342 343 344 343 344 345 346 346 345 345 344 343 341 340 341 340 340 340 339 338 338 338 337 336 333 328 328 327 327 329
344 344 342 345 344 343 343 344 343 343 344 342 341 344 345 345 344 340 342 344 346 345 345 345 343 344 344 342 341 341 341 341 341 341 341 341 341 341 339 338 338 334 335
344 345 343 343 345 346 345 345 347 345 346 345 344 345 343 341 341 342 339 342 343 343 343 345 347 346 346 346 345 344 343 342 341 341 341 341 341 341 342 342 342 340 340
344 344 346 342 346 347 347 347 346 347 346 346 345 344 343 343 343 343 344 343 342 345 343 340 347 347 346 345 345 345 345 343 342 341 341 341 341 341 341 342 342 342 342
345 344 347 344 345 346 347 348 347 347 347 345 345 344 343 344 344 344 344 344 343 344 346 344 344 344 345 346 345 346 346 345 345 345 345 342 341 342 342 342 342 342 342
347 343 344 344 347 346 346 346 346 345 343 345 344 344 344 343 344 345 345 345 344 344 344 346 345 345 344 345 346 346 346 345 346 346 346 347 346 343 340 339 340 342 342
346 345 344 342 344 345 346 345 346 347 346 342 343 344 344 343 342 342 343 342 343 344 345 346 345 346 346 346 346 346 346 345 346 346 345 344 345 345 341 337 336 337 340
347 346 347 346 344 342 344 346 347 347 346 343 344 343 343 343 343 343 342 343 345 344 345 345 344 347 346 347 346 345 345 346 346 345 345 344 344 343 340 338 335 336 338
346 347 347 347 346 344 342 343 343 343 345 344 342 342 341 339 341 345 344 341 343 342 343 345 346 345 345 345 347 348 347 346 344 345 343 343 344 344 341 340 336 336 338
345 345 345 346 347 345 343 342 343 345 344 340 339 340 337 341 339 339 340 340 340 338 339 344 344 344 342 344 345 347 346 347 343 343 344 344 344 343 340 339 337 337 339
346 346 347 347 346 346 345 343 342 342 341 341 343 342 341 342 341 341 342 341 342 340 340 340 341 343 343 346 345 345 345 343 342 342 346 345 345 343 340 338 338 338 339
349 347 347 347 344 346 346 344 343 343 344 344 342 342 341 339 340 340 343 343 343 343 343 342 341 341 339 341 343 345 345 343 342 344 346 345 343 342 339 338 338 339 340
348 347 347 347 345 344 346 346 344 343 344 342 341 340 339 340 341 342 342 343 342 344 343 342 342 342 341 343 344 342 342 342 343 345 345 343 342 339 338 339 339 339 339
347 348 347 346 346 344 344 345 344 342 342 341 340 340 337 340 343 343 343 343 343 344 344 342 342 341 340 340 341 341 341 341 343 344 344 341 340 339 338 338 339 340 339
349 349 348 348 347 346 344 345 343 342 341 339 338 339 339 341 339 338 340 339 340 340 340 340 342 341 340 340 340 341 340 341 344 343 341 340 339 338 337 337 339 339 340
350 350 348 346 347 347 343 343 343 344 342 340 338 341 337 342 341 340 340 340 339 339 339 339 339 340 342 340 340 339 339 339 339 339 338 339 338 337 336 337 338 338 339
346 347 347 345 347 346 342 341 343 343 342 341 343 340 339 340 341 341 340 339 337 338 339 339 338 339 338 339 339 338 337 338 339 338 339 338 338 337 336 336 337 337 337
340 340 331 346 346 346 343 342 343 344 342 339 340 342 342 341 341 341 340 340 340 340 338 338 339 339 340 338 338 339 338 337 335 335 337 337 337 337 336 336 337 337 338
336 333 333 346 346 345 344 344 344 345 344 341 343 343 341 342 342 341 341 340 340 341 339 339 340 340 339 337 336 336 338 339 337 338 338 338 337 336 336 335 335 337 337
336 334 333 334 344 345 344 342 343 344 346 343 344 343 342 341 341 341 342 340 340 341 339 338 338 338 338 339 339 339 339 340 338 336 333 337 334 336 335 335 335 336 336
338 340 336 337 344 345 345 342 342 343 344 344 344 343 343 342 340 340 341 342 342 341 340 338 336 335 336 337 339 338 339 339 339 338 334 334 334 334 336 335 334 335 335
336 335 334 338 342 342 343 343 343 343 347 347 347 346 344 343 343 340 340 340 340 341 341 341 339 336 335 335 335 336 338 339 338 337 335 335 335 335 335 334 334 334 335
334 339 339 341 338 333 341 343 342 343 343 345 345 345 345 343 344 344 342 340 340 341 341 341 341 338 338 336 334 334 334 334 335 336 335 335 334 336 336 334 334 333 333
336 337 336 339 339 339 340 339 338 338 339 341 342 344 343 341 340 339 338 340 341 341 340 339 341 339 337 336 336 335 333 335 335 337 335 335 334 335 335 335 334 333 333

GFSMA_850_thetae_105.txt.gz
Theta_e
333 334 332 329 334 327 327 326 328 332 336 334 334 337 339 343 344 345 344 344 342 340 339 338 333 331 329 325 323 323 324 325 325 325 324 325 325 327 326 332 333 327 332
338 342 336 336 333 329 323 335 331 332 335 335 343 342 342 344 344 345 344 343 344 343 343 341 339 338 339 339 336 331 326 325 326 326 325 325 325 325 327 328 333 336 331
344 342 342 341 340 334 327 325 332 333 334 337 342 343 344 344 344 344 344 345 346 344 343 343 343 342 340 340 341 339 338 336 334 335 335 333 331 328 327 326 334 333 329
342 343 343 345 341 337 332 326 328 328 330 331 337 342 342 343 343 344 341 343 344 345 346 344 344 343 343 342 341 341 341 340 341 340 340 340 339 339 339 337 336 334 332
343 342 342 342 344 341 339 339 338 338 337 336 340 341 343 345 345 344 342 340 340 343 343 343 345 345 345 345 344 343 342 342 342 341 341 341 341 341 341 341 342 342 341
345 344 344 342 343 344 342 344 344 343 342 345 344 342 342 342 342 340 342 343 340 341 341 343 343 343 346 345 345 344 344 344 343 342 341 341 341 341 341 341 341 341 341
347 345 344 344 342 345 346 345 344 345 344 344 346 345 344 343 343 342 343 343 344 344 343 343 346 342 343 345 345 346 345 344 345 344 344 344 343 342 342 342 342 342 342
347 346 343 344 346 343 346 347 346 346 345 347 346 346 345 344 343 342 342 343 344 344 343 343 344 345 344 344 344 345 346 345 345 344 345 345 345 346 346 344 341 338 338
347 346 345 344 346 344 344 345 345 346 346 345 344 346 344 344 343 342 342 342 344 344 344 344 344 344 345 345 345 345 345 345 345 344 344 344 344 344 344 344 341 338 336
346 348 347 343 343 344 345 345 345 344 344 346 345 343 343 343 342 341 341 341 341 342 342 342 344 345 345 343 345 346 344 345 346 345 345 343 344 344 343 344 341 340 336
346 347 347 346 346 345 344 342 344 345 346 346 346 343 342 342 343 343 342 340 341 341 344 343 342 344 345 344 344 345 345 343 344 346 346 344 343 343 343 343 341 339 337
347 346 347 346 346 346 346 346 343 343 344 344 344 343 343 341 342 340 339 338 338 339 339 340 339 343 344 345 344 344 344 346 346 346 345 342 343 344 344 343 342 339 338
346 345 345 346 345 345 346 347 345 342 343 344 344 341 340 339 340 338 342 342 342 341 340 340 339 339 340 340 343 342 342 345 346 346 343 342 343 345 345 343 342 338 337
345 341 345 345 345 346 347 347 346 344 342 341 340 341 341 343 342 341 341 340 342 341 340 338 338 339 341 341 341 341 340 343 344 344 342 342 344 344 342 341 339 338 338
340 344 346 347 347 347 347 345 346 347 346 343 343 343 343 341 341 341 339 339 340 342 342 342 342 341 341 341 340 340 342 344 344 343 342 342 343 343 341 339 338 339 339
347 348 349 347 346 346 347 346 346 346 345 344 343 344 342 340 339 340 341 343 343 343 343 343 341 341 341 341 340 340 341 342 341 341 341 343 342 342 340 339 338 339 339
346 349 348 347 347 345 344 344 343 345 344 344 343 342 341 339 338 342 342 341 341 342 342 341 341 341 341 340 340 340 340 341 341 341 341 341 341 340 339 337 337 338 339
348 350 349 346 348 347 346 346 344 344 343 341 341 340 339 339 340 342 341 341 341 339 340 339 340 340 340 340 339 338 339 339 339 340 340 340 339 339 338 336 336 338 338
347 347 350 348 348 348 345 346 346 344 343 341 342 339 337 340 336 340 341 342 341 339 339 339 339 339 339 339 338 339 339 337 338 339 339 338 338 338 337 337 336 337 337
342 347 346 346 346 346 343 344 344 340 340 342 341 341 342 341 338 338 339 340 341 341 339 339 337 337 338 339 338 338 338 338 336 338 337 338 338 337 337 336 336 336 337
339 339 340 343 344 343 341 344 343 341 342 343 342 341 340 342 341 341 341 340 340 340 341 340 339 340 341 340 339 337 338 341 340 336 338 338 337 337 336 336 335 335 337
337 340 339 339 338 332 334 343 344 342 342 343 343 342 342 343 342 342 342 340 340 338 339 340 339 339 338 338 339 338 338 339 341 335 337 336 333 336 335 336 335 334 336
340 343 339 334 337 334 342 344 343 342 343 343 344 344 343 343 343 341 341 341 341 340 340 341 341 339 337 336 338 339 339 338 338 338 337 336 334 332 334 336 335 334 335
341 342 338 335 335 333 334 340 341 342 341 341 341 342 342 343 343 343 342 341 340 339 339 339 339 339 339 336 335 337 338 338 338 338 338 336 333 334 333 334 335 334 334
338 338 338 337 337 336 335 340 341 340 340 341 341 340 341 342 343 344 344 343 343 341 339 339 339 340 340 338 337 336 336 337 338 336 334 334 334 334 334 334 335 334 333
335 336 338 336 336 340 339 337 339 337 340 339 339 342 342 341 341 342 341 340 338 338 337 338 339 338 338 339 338 336 335 334 334 334 333 333 333 333 332 334 334 334 333

GFSMA_850_thetae_108.txt.gz
Theta_e
335 338 334 335 333 323 336 332 327 326 329 336 341 338 337 341 341 344 345 342 343 341 338 336 333 329 327 325 323 323 324 325 324 324 325 325 325 325 326 326 330 328 328
334 333 333 332 334 327 329 330 327 328 332 333 333 334 337 341 343 344 344 342 343 343 342 341 339 338 337 337 337 332 327 325 324 325 325 325 325 325 325 327 327 336 336
333 333 331 331 330 331 325 333 331 329 334 336 334 340 340 341 343 343 344 343 343 344 343 343 342 341 340 339 340 340 339 336 334 333 332 331 329 328 327 327 329 331 334
333 340 341 337 337 335 328 324 335 332 333 335 339 343 343 343 344 342 343 344 344 344 344 344 342 342 342 342 342 340 341 340 340 340 340 339 339 339 338 338 337 334 332
335 343 343 343 345 341 335 326 326 332 332 334 335 341 343 342 342 342 343 342 341 342 343 343 343 343 343 344 344 344 342 342 341 341 341 341 341 341 340 341 341 341 341
341 340 342 343 344 344 339 334 329 330 330 333 333 333 341 341 344 345 344 342 342 341 340 342 342 342 342 342 344 344 344 344 344 344 343 342 341 341 341 340 341 341 341
342 343 343 342 342 343 344 340 340 339 340 340 343 343 341 340 342 341 340 340 341 342 342 340 342 343 344 341 342 344 344 344 344 344 344 344 344 343 343 343 342 343 343
342 344 344 344 344 342 343 344 342 343 344 343 343 344 344 343 343 343 342 342 342 342 343 343 344 343 343 345 344 344 344 344 345 345 344 344 345 345 345 345 345 345 342
343 345 346 345 343 344 342 344 345 345 345 344 343 344 345 344 343 342 341 342 341 341 342 343 344 344 343 344 343 344 344 345 344 344 344 343 344 344 344 344 344 343 342
345 345 346 345 343 343 346 343 344 345 345 344 344 343 343 344 343 342 341 340 340 341 341 342 343 343 342 343 344 344 344 345 346 345 345 345 344 343 343 343 343 344 343
344 345 346 344 345 343 344 344 344 344 343 343 343 343 345 345 343 343 343 341 340 340 340 343 344 343 343 342 344 345 343 344 345 345 344 345 345 343 343 343 343 343 342
344 346 345 346 346 345 344 344 343 343 342 343 344 344 343 345 343 342 342 341 341 336 335 337 338 339 340 339 344 345 345 345 344 344 345 345 344 342 341 343 344 344 343
344 347 346 345 346 346 345 345 345 345 345 343 342 342 343 343 343 342 341 340 340 337 341 340 339 339 339 338 339 341 340 342 343 344 345 346 344 342 341 344 344 343 341
344 346 345 345 344 345 345 344 345 346 345 345 343 342 343 342 341 341 340 342 340 342 339 337 336 337 338 336 338 340 342 342 344 342 344 345 344 342 343 344 342 340 338
347 345 346 345 343 344 345 344 345 346 347 346 345 342 341 340 340 341 342 341 340 342 341 339 340 341 341 341 341 340 340 339 339 343 344 343 342 341 342 343 341 339 338
347 345 345 345 344 344 346 346 346 346 346 345 346 344 343 342 342 342 340 340 340 341 343 343 342 342 341 341 341 341 341 341 341 342 344 341 341 342 341 342 339 338 338
348 346 344 342 344 347 347 346 346 346 346 346 346 344 344 343 343 342 340 339 341 342 342 344 341 340 341 341 340 340 340 340 340 341 341 341 341 342 342 340 338 337 336
345 347 347 347 348 347 346 346 344 345 343 343 345 344 342 343 342 340 340 341 339 340 341 340 340 339 340 341 340 340 339 339 340 340 340 343 341 341 340 338 337 336 337
339 346 346 347 349 348 345 346 346 346 344 344 344 343 340 340 338 338 340 341 340 339 339 339 339 339 339 339 339 338 338 338 338 337 338 339 339 338 338 337 336 336 336
343 344 347 346 348 348 345 345 345 344 344 346 344 341 341 338 337 339 337 338 341 341 339 338 338 338 338 337 338 337 337 337 338 337 335 334 334 337 337 337 337 336 336
338 341 338 342 347 346 346 345 345 343 343 343 341 342 341 340 341 341 340 339 340 341 341 340 340 340 338 339 339 338 338 337 336 337 336 335 335 335 335 337 336 336 335
336 336 338 341 345 344 340 342 340 341 343 342 342 342 341 339 339 341 341 341 342 341 340 339 338 339 338 338 337 337 339 338 338 337 335 335 336 335 333 336 335 336 335
334 337 337 340 341 340 338 339 339 338 337 340 340 341 341 341 342 342 341 341 342 341 340 341 340 338 337 338 337 336 337 338 338 337 338 338 337 335 334 331 335 335 335
340 339 337 341 341 335 336 336 335 336 338 341 341 341 341 343 343 343 341 342 341 340 340 340 340 340 339 339 339 336 335 338 337 338 337 337 337 335 332 332 333 335 335
337 339 340 341 338 336 338 334 334 334 338 336 338 340 340 340 340 342 342 342 343 342 341 341 340 339 338 339 341 339 336 335 335 333 335 337 333 332 330 332 333 333 335
337 337 338 338 336 336 337 338 334 336 339 339 338 337 338 338 338 338 339 341 341 339 339 338 338 337 337 338 339 340 338 337 336 335 333 334 333 332 331 331 333 334 334

GFSMA_850_thetae_111.txt.gz
Theta_e
338 342 338 341 329 335 340 339 340 337 325 333 335 342 341 340 343 342 344 344 342 342 339 336 333 329 327 324 323 323 324 325 325 324 324 325 325 326 328 326 331 328 326
336 342 339 337 341 323 336 339 337 327 324 326 331 341 340 338 342 343 345 343 342 343 343 341 338 336 336 335 336 333 330 326 324 324 325 325 325 325 325 325 326 327 337
333 335 336 333 337 331 329 337 336 329 328 330 336 339 336 337 341 343 344 342 343 342 343 342 342 341 339 339 339 340 340 338 336 334 332 331 331 329 328 327 326 327 331
330 333 333 333 332 335 334 329 332 331 329 332 334 334 334 339 341 343 342 343 343 343 344 344 343 342 341 341 342 342 340 341 340 340 340 340 339 339 338 338 337 337 335
332 333 334 335 334 334 332 329 328 333 337 333 335 335 340 342 342 343 342 341 342 343 343 343 343 343 342 342 342 344 344 342 341 341 341 341 341 340 341 340 340 340 341
330 333 340 342 339 342 341 336 329 327 334 335 335 340 339 342 343 342 341 341 342 342 341 340 340 342 343 342 341 342 343 343 343 344 344 343 343 342 341 340 340 337 339
333 335 338 343 343 344 345 338 337 328 325 330 332 337 334 334 340 340 341 343 343 340 341 342 341 339 341 342 344 341 342 343 343 344 344 344 344 344 344 343 344 343 344
337 340 341 341 341 342 343 344 341 342 340 334 341 344 343 342 344 343 340 341 340 339 342 342 342 343 343 343 343 344 344 343 343 344 344 345 344 344 344 345 345 344 344
338 341 342 343 343 343 342 342 343 341 343 341 343 342 342 344 344 346 342 342 343 344 343 342 342 343 343 344 343 343 343 344 344 344 344 344 344 343 344 344 344 344 344
336 341 343 343 345 345 344 343 342 344 344 344 342 344 343 343 342 344 344 341 341 341 341 342 342 342 342 344 344 343 343 343 343 344 345 345 344 344 344 343 343 343 342
340 340 344 344 346 346 344 343 344 343 343 345 343 342 342 343 343 344 346 345 345 343 340 340 340 341 343 343 343 342 342 343 345 343 345 345 345 345 345 344 342 342 343
343 341 344 345 345 346 343 343 343 345 343 343 343 342 343 345 346 345 346 346 345 344 343 340 337 335 336 338 338 339 339 342 345 343 344 345 345 345 346 344 341 342 344
343 343 342 343 345 346 344 345 343 343 343 342 343 342 343 343 343 342 344 345 345 343 342 343 340 341 338 338 338 338 338 339 342 342 342 344 344 345 346 344 342 342 344
346 345 342 342 345 345 345 346 345 344 344 344 344 344 345 343 342 341 343 344 345 342 345 344 342 337 336 339 341 340 337 338 340 341 344 343 344 346 345 343 341 342 343
348 347 346 344 343 345 345 345 344 343 343 343 343 344 344 344 344 341 341 340 340 343 344 344 344 340 341 341 341 341 341 340 341 340 341 342 344 343 342 342 341 342 342
349 349 346 346 344 343 345 344 342 343 343 343 344 345 345 345 344 341 341 342 343 344 343 343 345 343 341 341 340 341 341 341 341 341 341 343 344 344 341 341 342 341 340
346 349 349 347 346 343 343 344 344 343 343 345 344 345 345 345 344 343 343 343 342 341 340 340 342 340 339 339 341 341 341 341 340 340 340 341 341 341 341 342 341 341 338
348 346 346 346 345 344 341 341 344 346 345 346 345 346 345 346 344 344 343 342 341 338 341 341 339 338 338 339 341 341 340 339 339 339 340 341 341 341 341 340 340 338 337
342 340 346 346 341 344 342 344 345 345 344 342 342 343 343 344 343 343 342 342 339 340 341 341 341 337 338 338 338 338 339 338 338 337 336 335 338 339 339 339 338 337 337
336 338 339 337 340 345 344 344 344 345 344 343 344 344 344 343 342 340 339 338 338 341 341 342 340 339 338 338 337 337 337 337 338 337 337 336 335 334 333 337 338 337 337
334 338 340 339 343 344 346 345 346 343 344 344 343 343 345 343 341 339 340 340 337 338 341 342 341 341 340 339 338 338 339 338 338 337 337 336 335 334 333 333 337 337 336
335 337 337 339 342 343 345 345 344 344 344 343 343 344 343 340 342 340 341 341 339 340 341 341 341 340 339 339 339 337 337 338 340 337 336 337 336 336 335 335 333 336 335
335 335 337 338 338 338 338 343 344 344 345 343 342 341 341 342 342 340 339 341 342 341 341 341 340 339 338 338 338 338 336 335 338 338 338 337 337 336 336 334 333 332 335
337 338 336 337 338 338 339 339 339 340 340 341 342 339 340 341 341 340 340 341 341 341 341 341 339 339 338 338 339 340 340 337 335 338 337 338 338 336 337 335 332 331 334
337 337 335 338 337 339 337 335 336 338 340 337 337 333 336 340 339 339 339 341 340 340 342 341 340 340 339 340 340 340 340 340 337 335 335 336 336 335 334 333 330 332 332
337 338 338 340 340 339 334 336 337 336 334 336 336 336 336 338 338 338 337 338 338 339 339 340 340 340 339 339 339 339 341 340 340 339 336 335 334 334 337 335 333 331 332

GFSMA_850_thetae_114.txt.gz
Theta_e
342 342 342 345 342 342 339 344 344 348 344 344 344 346 346 345 346 347 347 346 342 342 341 337 334 329 326 324 323 323 323 324 325 325 324 325 326 325 325 326 326 333 328
346 343 342 342 345 342 343 344 346 348 344 341 343 344 347 346 347 349 348 350 342 341 343 342 339 337 336 334 334 333 331 328 325 324 325 325 325 325 325 325 325 327 327
348 348 349 345 346 344 343 346 340 345 342 341 341 343 346 346 346 348 349 350 349 342 342 342 341 341 340 339 339 339 339 339 338 335 333 332 330 330 330 328 328 327 327
347 346 346 345 344 347 342 344 345 344 341 341 341 343 344 345 346 348 348 349 348 349 347 343 343 343 342 341 341 342 342 340 340 340 339 339 339 339 339 339 338 338 338
348 347 345 345 346 344 344 341 342 343 342 342 342 343 343 343 345 345 347 348 349 348 347 348 345 343 343 342 342 342 343 344 343 341 341 341 341 341 341 340 341 340 337
350 347 346 347 346 343 343 342 342 341 341 342 343 342 343 342 343 345 347 348 347 348 348 347 348 348 345 341 342 342 341 343 344 344 344 344 344 343 343 342 341 341 340
345 346 346 347 345 346 345 346 344 343 341 340 342 342 343 343 344 345 346 345 346 347 347 348 348 347 346 345 343 341 343 341 342 343 343 344 344 344 344 344 344 343 344
344 344 345 347 346 344 347 349 348 343 341 339 341 340 340 340 341 342 343 344 344 345 346 346 347 348 348 347 348 347 342 344 344 343 343 343 344 344 344 344 344 345 344
345 338 337 342 349 348 346 347 346 347 344 343 344 338 340 340 341 343 346 347 346 346 348 348 349 349 350 349 349 349 346 344 343 343 344 344 344 344 344 344 344 344 344
344 344 340 345 345 347 347 347 349 346 346 346 347 346 343 343 339 341 346 348 349 347 349 348 348 349 350 350 350 347 345 344 342 343 344 344 344 345 344 345 344 344 343
335 340 344 346 347 343 345 347 347 347 347 347 346 347 346 346 346 345 346 345 347 346 347 348 348 347 348 349 349 349 345 343 342 341 343 344 344 344 345 345 345 345 342
348 345 346 346 347 347 342 346 347 345 347 346 346 346 345 346 346 345 346 347 346 344 345 346 346 345 345 345 346 342 340 338 339 339 341 345 343 345 345 345 344 344 343
350 350 347 347 348 348 348 346 346 345 343 345 346 348 348 347 346 346 347 345 344 343 345 345 345 346 346 347 346 346 345 338 338 338 341 343 344 344 344 344 345 345 343
350 350 350 349 349 349 348 347 345 343 346 344 343 346 346 347 346 347 346 344 344 344 342 343 347 346 346 346 346 344 342 341 339 336 338 340 342 343 344 344 346 346 343
352 351 351 349 350 349 348 347 348 346 345 345 346 345 344 348 346 346 346 345 346 345 341 342 346 346 346 346 346 342 341 345 344 340 341 341 342 342 344 345 343 342 342
352 353 354 353 351 349 348 345 347 348 348 348 348 346 343 345 346 346 346 345 346 344 344 345 346 345 344 347 346 344 342 342 341 341 341 340 339 341 343 343 343 342 341
351 351 352 353 353 352 351 348 345 349 350 350 348 346 342 343 344 345 345 345 344 343 344 346 345 343 345 343 344 346 344 343 343 342 341 341 341 341 342 341 341 341 341
351 350 346 351 354 353 352 352 351 350 350 350 349 349 350 350 347 346 346 345 344 346 347 347 343 345 344 346 346 342 342 341 340 340 339 340 340 341 341 341 341 341 340
350 351 350 349 352 351 354 351 352 352 350 351 350 351 351 349 348 347 347 345 345 345 345 344 344 345 344 345 345 341 338 338 337 337 337 335 337 338 340 341 340 339 339
342 346 347 347 350 352 349 349 352 351 351 350 351 350 350 350 349 348 347 346 344 346 345 343 345 345 341 344 345 344 343 338 340 336 336 337 336 336 338 337 337 338 338
339 338 341 344 348 348 348 346 349 350 351 351 350 346 349 348 344 349 348 345 344 345 347 343 344 345 340 342 344 344 343 343 343 341 343 341 339 338 335 334 332 335 337
334 337 338 339 340 342 342 342 345 351 347 343 344 348 349 344 344 343 343 342 344 343 343 344 344 344 344 344 345 345 344 343 342 343 341 343 341 342 339 339 340 336 335
333 337 337 338 339 341 341 342 344 345 346 347 347 349 347 344 343 342 340 339 341 342 341 343 344 346 346 345 344 345 344 343 341 341 341 343 342 341 341 340 339 333 332
337 337 335 335 338 339 339 340 340 342 345 347 348 346 343 342 340 340 340 339 339 341 341 342 343 345 345 345 342 342 340 342 343 342 341 341 340 341 341 341 339 334 331
338 339 339 337 337 337 338 338 337 338 342 343 342 343 342 341 339 340 339 339 339 342 343 341 339 340 340 339 339 341 342 342 343 343 340 340 339 340 340 340 340 337 329
338 339 338 337 339 340 340 339 336 336 339 339 339 339 341 339 336 338 337 337 338 338 344 344 342 340 339 340 339 340 341 343 343 341 342 340 340 339 339 340 339 339 334

GFSMA_850_thetae_117.txt.gz
Theta_e
343 342 342 346 344 345 341 339 345 344 344 344 344 343 344 344 345 344 349 348 344 342 342 337 335 330 327 324 323 323 323 324 324 325 325 324 325 326 325 325 327 326 334
349 344 346 347 347 345 338 339 345 346 345 342 343 345 345 345 344 345 348 348 350 339 342 342 339 337 336 335 334 334 332 329 327 325 324 325 325 325 325 325 325 325 327
346 346 342 346 348 345 345 341 341 344 347 343 342 343 346 346 345 347 349 349 351 348 341 342 341 340 339 340 339 339 339 339 339 338 335 333 332 331 331 331 329 329 328
350 345 346 343 348 346 344 348 347 346 344 343 341 342 344 346 347 348 348 347 348 349 349 347 342 342 342 342 341 341 342 343 341 340 340 340 339 339 339 338 339 338 339
346 347 347 346 344 347 345 343 344 345 345 342 342 342 344 345 345 345 347 347 347 346 348 351 349 348 345 343 342 341 341 341 343 344 342 341 341 341 341 342 341 340 341
346 346 345 345 346 344 344 343 341 342 343 343 342 342 344 344 343 343 345 345 346 348 348 347 348 346 346 347 345 342 341 341 341 343 343 344 344 344 344 343 343 341 341
348 347 346 346 346 345 343 343 344 343 343 342 343 343 345 344 344 343 343 345 346 346 348 348 347 347 347 347 346 345 342 339 341 340 341 342 343 344 344 344 344 344 344
349 348 347 347 348 345 345 347 344 344 343 343 341 341 341 342 342 343 344 343 345 346 346 346 348 347 348 348 348 348 347 346 342 343 343 343 343 343 344 344 344 344 344
349 348 348 347 348 346 344 344 344 343 345 343 341 340 339 339 340 342 343 345 344 345 346 345 348 348 350 350 349 350 350 349 349 345 343 343 343 343 343 344 344 344 343
348 349 346 347 346 350 349 346 346 346 346 346 345 344 341 346 346 345 346 347 349 349 347 349 349 349 350 352 350 349 349 349 350 347 343 343 343 343 343 344 344 344 344
347 348 347 346 345 346 349 350 348 347 346 345 346 347 346 346 344 345 346 344 344 348 349 350 349 349 349 351 350 350 350 349 346 343 342 341 341 343 344 344 344 345 345
350 348 348 345 343 348 348 349 348 347 345 345 346 346 346 348 347 349 348 347 348 347 347 346 348 347 347 348 347 346 346 346 345 342 338 339 339 341 345 344 344 344 345
350 350 347 347 347 342 347 349 349 348 348 347 345 346 347 349 347 344 345 347 348 346 345 345 344 345 346 347 347 348 347 347 346 342 339 338 339 341 344 344 344 344 345
350 349 350 348 346 347 345 344 345 348 349 348 348 347 349 350 348 348 349 348 346 344 343 343 344 343 348 344 347 347 346 346 345 342 341 338 337 338 341 342 342 344 344
353 351 350 351 350 348 349 348 349 349 347 348 347 346 348 348 349 349 348 348 347 346 345 344 343 345 345 347 348 346 346 343 344 343 342 342 339 340 341 342 343 343 345
352 353 352 351 351 351 350 350 350 349 348 349 350 348 349 349 350 350 349 349 347 348 347 346 347 347 346 346 347 346 345 346 343 343 341 341 341 340 340 340 342 344 344
352 350 341 349 351 351 351 350 350 351 350 349 347 349 348 349 350 349 350 350 349 347 348 348 348 346 347 345 343 343 344 347 348 344 342 341 341 341 341 342 342 343 343
351 352 349 342 347 350 351 351 351 352 349 350 350 348 348 350 348 347 348 348 349 347 346 347 347 348 346 346 342 343 345 346 346 345 340 339 339 340 340 341 341 341 341
350 349 351 348 348 339 354 353 351 351 351 351 348 349 348 348 348 349 349 348 348 347 347 348 348 348 345 346 345 345 344 342 338 337 337 337 335 335 335 335 338 340 341
346 349 347 350 349 343 349 350 351 350 350 350 349 348 349 348 349 349 347 347 348 349 349 349 348 344 344 347 344 345 345 346 345 343 339 336 336 337 336 335 334 335 336
345 346 344 346 348 350 349 348 349 350 350 349 349 349 350 350 350 348 349 346 347 347 348 347 345 344 346 345 345 345 344 344 344 344 343 343 342 341 339 335 334 333 331
343 343 344 344 344 345 346 347 347 350 349 350 349 349 349 350 349 349 346 343 345 346 345 347 346 344 343 345 345 346 343 342 344 344 345 344 343 343 342 343 339 338 335
342 341 342 342 341 343 344 344 344 343 343 345 348 348 350 350 349 347 344 344 343 347 344 344 344 343 344 344 344 345 345 344 344 342 344 344 343 343 341 341 341 340 339
341 340 343 343 344 345 342 342 341 342 343 343 346 349 347 344 349 348 346 346 342 341 340 340 340 340 338 341 344 344 342 343 342 340 344 343 341 341 341 340 340 341 339
340 340 340 340 341 340 340 339 338 340 342 344 346 346 346 346 347 346 343 345 343 340 338 338 336 339 339 338 339 341 341 343 344 343 343 344 342 342 340 342 341 341 340
339 339 339 338 338 339 338 337 338 338 339 339 341 344 344 344 343 342 341 341 341 339 335 333 333 334 334 335 338 339 339 340 342 343 342 342 344 343 341 340 340 342 341

GFSMA_850_thetae_123.txt.gz
Theta_e
340 335 340 340 341 336 336 337 337 336 337 344 344 345 345 346 345 344 347 346 347 348 342 340 335 327 323 323 323 323 323 324 324 325 324 324 325 330 326 325 325 326 327
345 337 338 338 339 340 339 337 341 342 341 340 343 346 344 344 346 343 344 342 347 345 340 340 341 336 331 329 328 328 327 326 325 324 324 324 324 324 324 325 324 325 332
343 342 342 339 340 345 342 340 339 345 341 342 343 344 342 343 345 348 343 343 347 349 347 341 341 340 338 337 338 337 336 337 337 337 335 334 331 329 330 331 331 329 327
340 340 348 341 344 346 346 343 336 344 343 343 341 339 340 340 343 345 346 344 346 348 346 346 345 340 341 341 341 340 340 340 340 341 339 339 339 338 338 339 339 338 338
344 340 343 341 342 346 346 343 339 340 344 341 343 337 337 338 340 343 343 344 343 344 344 347 346 347 344 343 342 342 341 341 340 340 341 343 342 340 340 340 340 341 341
346 346 341 339 340 342 343 343 342 340 341 338 342 340 340 338 338 341 344 344 345 344 342 344 342 342 341 342 347 347 346 345 343 340 340 340 342 343 343 343 344 343 343
346 347 345 339 346 344 344 342 342 341 346 342 343 342 343 343 342 341 340 343 345 346 345 345 344 346 347 346 344 345 346 346 346 345 341 340 340 342 342 342 343 344 343
349 347 347 340 343 348 347 344 348 343 344 344 346 345 343 341 344 343 344 342 342 342 345 346 345 346 347 347 346 346 345 345 346 347 346 344 343 342 342 342 342 342 343
346 346 345 345 339 345 348 345 344 346 342 342 343 343 343 343 343 342 342 343 342 342 344 346 346 347 347 348 349 347 348 348 346 346 347 349 347 347 344 343 342 343 343
347 346 345 345 341 343 346 345 343 343 346 344 342 339 341 342 342 342 345 344 342 342 342 343 344 348 348 350 349 349 349 349 347 345 345 347 346 346 347 347 345 344 343
349 349 347 347 346 343 345 345 345 345 343 344 343 342 342 341 341 341 342 345 343 343 343 344 344 343 346 346 346 346 348 347 347 349 346 346 347 345 344 342 341 340 341
347 348 348 347 347 344 344 346 346 346 343 343 344 345 346 345 341 341 340 345 346 346 345 344 343 344 346 346 342 340 344 344 344 347 349 348 346 346 345 343 342 340 338
350 348 348 347 348 347 343 344 345 345 345 344 343 343 342 345 345 344 343 341 342 341 343 343 347 347 347 346 346 344 342 342 346 344 346 347 347 346 345 345 341 339 338
352 352 350 349 348 348 347 343 343 344 344 346 346 344 344 344 344 344 345 344 342 343 343 343 341 343 347 347 346 344 344 345 344 344 346 345 345 345 345 345 343 340 337
349 350 350 352 350 349 349 348 346 344 343 343 344 345 345 345 343 342 344 344 343 345 346 345 347 348 346 346 345 345 345 345 345 346 346 342 341 339 340 341 341 341 338
350 350 349 349 350 351 349 349 348 347 343 342 345 345 345 344 344 343 343 343 344 347 348 347 342 344 346 349 348 347 346 345 346 346 343 340 345 341 341 340 341 340 340
349 349 349 349 349 351 350 349 348 347 346 344 346 346 345 343 344 346 344 344 344 347 348 347 345 342 342 344 347 347 346 345 345 340 336 342 343 339 339 338 340 340 340
343 345 349 349 349 349 351 349 349 349 348 347 347 348 347 346 345 344 344 345 344 345 348 348 346 344 344 344 345 347 346 346 343 339 340 340 339 336 336 335 336 338 340
342 343 343 346 348 348 345 341 341 338 344 349 348 348 347 347 347 346 344 345 345 345 346 348 345 345 344 345 346 345 346 344 343 341 342 343 341 337 335 334 335 335 335
342 343 344 344 348 347 340 335 332 334 334 335 339 351 349 347 347 346 346 345 345 346 346 347 347 346 346 345 345 345 347 345 344 340 342 340 341 342 340 339 339 338 336
343 343 343 344 344 344 340 332 334 332 333 334 335 343 349 349 348 347 346 347 345 346 347 347 347 346 346 346 345 346 344 344 344 343 343 341 341 342 339 340 340 339 339
342 341 342 344 344 345 345 343 342 338 338 338 335 334 335 347 346 347 345 346 347 346 346 346 347 347 346 344 346 344 346 345 342 343 341 341 342 341 341 339 339 340 339
341 341 342 344 343 344 345 344 341 339 337 337 337 335 336 343 342 344 347 346 344 346 347 347 346 345 345 344 343 346 345 344 341 340 340 342 341 339 340 340 341 340 340
341 342 341 342 343 344 344 344 343 342 340 338 337 335 334 335 337 336 345 346 344 346 346 343 343 342 342 344 342 343 342 342 339 336 337 341 340 338 338 341 339 339 339
338 339 339 339 340 341 343 343 342 343 344 344 343 341 344 337 338 341 345 344 344 342 343 342 342 343 343 342 341 341 339 341 337 335 336 337 337 338 339 338 340 340 341
337 337 339 339 338 339 340 341 342 341 342 342 342 342 343 344 345 344 343 342 343 341 342 342 342 343 343 341 341 339 338 336 335 335 334 337 338 338 341 338 340 340 339

GFSMA_850_thetae_129.txt.gz
Theta_e
334 337 336 340 339 335 335 336 330 325 333 333 333 338 342 341 344 345 343 342 344 344 341 339 336 330 324 323 323 323 324 324 324 324 324 324 325 325 329 340 326 325 326
338 344 343 343 342 339 332 335 333 328 334 334 335 339 342 342 344 344 345 343 345 344 343 341 338 339 334 326 324 323 323 323 323 323 323 324 324 324 324 326 326 325 325
339 345 340 339 341 340 337 335 335 331 331 337 341 344 343 343 344 345 345 345 343 343 345 342 340 340 339 334 333 332 331 331 331 331 331 328 327 326 325 326 326 326 328
341 342 345 342 340 339 339 339 334 335 329 327 337 341 342 343 344 343 345 344 343 344 346 345 345 342 341 338 337 338 338 338 338 338 339 339 338 337 337 334 333 334 334
342 343 342 341 342 342 339 342 342 336 335 337 331 341 341 343 344 343 343 344 343 344 344 345 344 345 345 341 340 343 342 340 339 340 340 339 339 340 341 340 339 339 339
348 347 346 343 342 343 342 339 344 342 339 334 340 340 339 341 341 340 341 343 343 342 343 344 343 344 344 344 344 343 342 342 343 343 343 343 341 339 339 340 342 342 342
350 348 348 347 344 342 343 340 341 344 343 339 336 340 344 340 339 339 338 340 342 342 343 342 344 344 342 344 345 344 344 344 345 344 343 343 344 343 341 339 340 341 342
349 347 347 346 346 345 344 343 341 342 344 342 341 338 340 338 340 336 337 336 335 338 340 343 344 344 345 345 345 345 347 347 345 345 345 345 345 344 345 343 342 341 341
348 347 345 346 346 347 346 345 342 341 342 343 341 340 342 341 340 340 340 339 340 340 338 339 341 343 344 343 344 345 346 346 347 347 346 346 346 344 346 347 348 347 346
346 348 347 346 345 345 348 347 344 342 343 343 345 342 344 343 342 341 339 337 338 341 342 342 342 341 342 342 344 344 346 346 346 347 348 347 348 347 344 345 348 346 345
347 346 347 347 347 346 346 347 346 343 344 345 343 345 343 344 345 344 343 341 342 342 342 343 341 342 342 342 342 343 343 344 347 348 347 348 348 347 347 346 345 345 345
348 348 348 345 345 346 345 347 347 345 343 342 345 345 343 343 343 344 343 341 339 336 340 342 342 341 342 342 343 343 344 342 345 344 344 343 343 343 345 345 344 345 345
348 348 348 347 347 346 347 346 347 347 346 345 342 343 345 344 344 344 342 342 339 339 339 339 342 343 342 342 343 341 345 345 345 347 347 344 342 344 345 344 344 344 344
339 340 348 348 347 347 348 349 347 347 347 347 346 342 343 345 344 344 344 344 343 343 343 341 340 341 344 344 340 342 342 341 342 346 344 343 344 344 344 345 343 338 340
342 343 343 345 348 346 346 346 346 347 348 347 347 346 344 341 343 344 344 344 343 344 343 342 343 342 341 340 340 345 346 344 344 346 343 344 345 344 345 343 338 343 340
344 343 343 344 343 344 346 345 346 346 346 347 348 347 347 345 341 342 344 343 343 343 344 342 342 342 341 340 344 345 346 346 345 345 345 345 345 345 344 338 341 343 338
338 341 344 344 343 342 341 344 344 345 348 347 346 347 347 346 345 342 342 342 342 342 344 343 342 341 341 341 344 344 345 343 343 346 347 346 346 344 339 338 339 339 337
334 337 339 341 343 343 339 341 342 344 345 340 338 336 347 345 344 343 343 340 338 340 342 345 342 342 342 341 342 345 345 344 343 342 344 346 345 341 340 341 338 336 335
334 334 335 340 341 339 340 339 338 341 340 331 328 329 333 336 345 344 344 341 337 340 342 344 343 342 342 343 342 343 344 344 343 344 345 346 344 342 340 340 339 339 337
333 335 335 336 341 342 340 337 338 341 342 330 327 328 331 333 338 341 345 343 340 342 343 343 345 344 342 341 344 344 344 343 343 343 344 345 344 343 341 339 340 337 338
329 330 333 336 336 338 338 338 338 341 343 331 329 328 327 332 341 343 344 345 345 344 344 345 347 346 344 343 343 343 345 344 343 343 342 344 343 343 341 336 340 338 339
330 329 330 332 336 336 336 336 340 342 342 340 336 330 328 332 331 335 339 344 342 345 346 346 346 347 344 344 344 343 343 344 343 342 343 343 342 343 342 337 340 337 338
333 331 332 336 339 337 338 338 341 341 341 341 340 336 332 329 331 331 332 337 337 348 348 346 346 346 345 344 344 344 344 344 343 341 342 342 343 343 339 336 337 339 337
332 335 338 338 341 340 340 341 341 341 341 342 341 338 334 333 333 335 334 336 335 335 337 340 345 345 344 342 342 343 343 343 343 342 344 343 343 341 338 335 335 336 337
332 333 336 338 339 340 340 341 342 341 341 341 342 340 338 332 336 334 336 337 336 334 335 336 345 341 342 342 341 343 342 341 341 341 342 343 340 338 336 334 335 336 337
334 334 336 338 339 339 338 338 339 340 340 340 341 343 337 333 332 332 337 337 338 338 334 338 341 336 343 345 343 343 341 341 342 341 342 341 338 337 335 333 333 335 336

GFSMA_850_thetae_132.txt.gz
Theta_e
335 334 334 335 336 335 335 337 334 328 327 326 335 340 339 342 342 343 344 343 342 344 343 339 337 332 327 323 323 324 325 326 325 324 325 325 325 326 330 334 338 330 325
333 334 336 340 340 340 338 335 337 332 327 330 331 337 338 342 342 345 345 342 342 344 343 343 339 339 337 332 326 323 323 323 323 323 323 324 324 324 324 324 326 329 327
333 335 340 342 342 342 340 336 334 335 329 331 335 333 339 341 341 344 344 344 344 343 342 344 339 339 340 340 334 332 330 329 331 331 331 330 329 327 327 327 326 327 328
333 335 338 343 337 339 341 339 335 334 335 332 333 335 340 342 341 341 343 344 342 342 343 344 344 343 341 341 339 336 337 337 338 338 337 338 338 338 337 337 336 333 333
339 339 340 340 342 342 342 342 339 338 336 336 331 331 339 342 341 342 342 342 343 343 343 344 345 345 344 344 343 339 341 341 341 339 339 340 340 339 339 339 341 340 339
341 342 343 345 344 342 341 342 342 340 342 340 336 339 336 339 340 341 343 343 342 343 342 342 343 344 344 343 343 342 342 342 341 342 342 342 342 342 341 339 339 339 341
348 347 347 346 346 346 344 341 343 341 341 344 342 339 335 340 340 340 341 341 342 341 342 342 342 342 342 344 343 343 343 344 344 344 344 344 344 344 343 343 341 340 340
345 345 347 346 345 345 346 345 343 343 341 342 345 345 343 336 336 342 339 337 339 337 339 341 342 342 342 342 344 344 344 344 345 346 346 346 345 345 346 344 345 344 343
347 345 345 346 346 345 345 344 345 345 344 341 341 345 342 339 337 336 335 338 336 336 337 335 336 337 339 341 343 343 343 345 345 346 346 347 347 346 347 346 345 346 347
348 348 347 344 345 345 344 344 344 346 346 344 341 342 343 342 342 341 340 340 339 338 339 340 341 342 340 338 339 343 343 343 343 345 346 346 347 347 347 348 347 345 345
347 345 347 347 346 347 347 345 344 344 346 346 343 342 342 343 342 342 343 342 340 338 340 338 341 342 342 341 339 341 342 341 342 343 343 347 344 346 347 346 345 344 345
347 349 349 347 347 347 347 346 345 345 345 345 346 343 343 344 343 344 343 342 341 338 339 337 338 339 343 342 340 340 342 343 342 343 342 345 344 345 342 343 344 344 344
340 338 339 344 348 346 346 346 347 345 345 345 346 346 344 343 344 345 343 343 343 342 342 340 339 337 340 343 342 342 343 342 344 345 346 346 345 344 343 344 344 344 344
343 343 342 341 340 341 347 347 346 346 347 347 346 346 346 345 345 342 345 344 343 342 342 341 341 341 340 340 341 343 342 340 341 342 342 341 345 343 343 344 343 344 340
337 343 343 342 342 342 343 347 348 347 346 345 345 347 346 346 346 345 342 343 344 344 343 342 341 341 341 342 342 342 341 341 344 345 344 343 344 343 345 344 344 339 336
327 329 337 340 343 343 342 343 344 347 347 346 345 345 345 344 346 346 345 343 343 344 344 343 340 340 340 341 341 341 342 346 346 345 345 344 344 345 345 344 339 336 338
331 332 329 331 337 340 343 343 342 342 344 345 345 345 344 345 345 343 345 345 344 343 344 341 340 340 340 341 340 341 342 344 344 343 341 342 345 346 345 341 338 339 339
330 331 333 333 332 334 338 343 343 341 343 343 342 344 343 339 333 330 339 343 344 344 343 342 338 337 338 340 341 342 342 343 345 344 341 342 346 346 345 339 339 339 339
328 328 329 330 334 333 334 337 340 341 339 339 339 342 339 330 328 327 334 345 344 342 343 344 338 336 339 340 342 342 341 341 341 343 341 342 343 344 344 341 340 340 338
327 327 328 328 329 334 335 337 339 340 340 339 338 340 338 335 326 333 335 338 341 343 343 343 340 337 339 340 341 342 341 341 341 342 342 342 343 345 343 343 341 339 339
327 328 329 330 329 329 334 336 339 341 341 337 338 341 341 338 330 329 334 338 339 337 343 343 341 340 341 342 342 340 342 343 342 341 341 342 343 344 342 342 341 335 339
327 326 330 330 331 331 330 334 336 338 339 338 337 340 341 327 330 330 332 334 338 339 344 344 343 343 341 342 343 343 344 345 344 341 340 341 342 342 343 342 341 338 339
325 328 330 330 333 331 330 331 335 336 336 337 338 341 342 331 330 331 330 339 336 343 344 344 344 345 344 343 343 342 343 345 345 344 343 342 341 341 342 343 341 338 338
325 330 331 330 331 333 335 339 339 336 336 337 341 342 342 339 336 336 332 332 332 332 333 336 343 346 345 344 344 343 343 345 345 344 343 343 341 340 342 341 339 336 335
322 330 332 332 334 336 338 340 337 338 341 341 341 341 340 340 339 335 333 331 332 333 335 335 334 335 340 341 344 343 343 343 343 341 341 342 341 341 342 338 336 334 334
321 322 331 334 339 337 337 339 339 339 340 339 339 340 339 340 339 337 334 334 335 336 336 337 337 334 335 337 342 339 340 342 343 342 341 342 341 342 341 339 337 336 333

GFSMA_850_thetae_135.txt.gz
Theta_e
330 331 334 334 335 336 336 337 336 336 335 328 330 338 341 340 343 342 343 343 342 343 342 342 339 337 332 326 323 323 325 325 326 326 326 325 325 326 328 334 334 340 337
335 335 334 334 339 340 340 340 337 336 336 332 328 329 337 338 341 342 344 344 341 342 343 342 342 340 339 338 332 326 324 323 324 324 324 324 324 325 325 325 325 325 333
333 333 333 334 337 341 343 342 340 335 337 333 329 331 333 337 340 342 344 344 344 343 343 342 343 341 339 339 340 336 332 331 330 330 331 331 331 331 330 329 329 327 327
331 332 333 335 341 338 339 340 340 339 335 335 332 331 335 335 337 341 341 344 344 343 342 342 343 343 343 342 341 340 337 337 337 338 338 338 338 338 339 339 338 338 337
334 335 336 337 339 341 342 342 342 341 339 337 336 334 332 335 338 341 342 340 341 342 342 343 343 344 346 344 343 343 340 340 341 341 340 340 340 340 341 340 339 339 340
342 340 339 338 341 342 343 342 342 344 342 340 341 341 337 336 333 335 341 340 340 341 342 343 341 342 342 344 343 343 342 341 341 342 343 343 343 342 342 342 341 340 339
345 344 345 344 346 346 346 346 345 343 342 343 340 345 345 341 336 337 334 337 341 341 343 342 342 342 341 342 342 344 343 343 344 345 345 345 345 345 345 345 344 343 343
347 346 346 347 346 346 346 344 345 345 344 343 343 346 345 344 344 337 335 337 337 340 339 340 341 341 341 342 342 341 343 344 344 343 345 345 346 347 347 346 346 345 345
348 348 348 347 346 345 345 346 343 345 345 345 344 344 345 343 342 342 336 335 335 337 336 338 335 334 339 336 337 337 341 343 343 344 345 346 347 347 347 347 347 347 346
346 347 347 346 347 346 345 344 345 343 343 343 345 345 344 344 344 343 342 340 340 340 339 338 337 337 338 341 341 340 336 341 343 344 343 343 343 346 347 347 347 347 347
349 350 347 346 345 345 346 346 344 344 344 344 344 345 346 344 344 345 344 344 345 340 339 339 340 339 340 341 341 341 339 337 342 342 342 342 343 345 345 344 346 345 343
344 343 346 346 346 347 347 347 347 346 345 345 343 344 344 347 346 345 344 345 345 346 345 344 341 339 340 341 340 342 340 339 341 342 343 341 343 344 344 346 343 343 344
344 344 342 342 341 340 339 344 347 346 346 346 345 343 345 346 347 346 346 345 345 345 346 345 344 341 338 336 338 342 341 341 342 342 342 343 344 345 345 345 343 343 344
324 324 328 338 343 344 344 342 341 343 347 346 346 346 344 346 347 347 347 346 346 344 345 345 345 343 340 340 339 339 342 342 343 342 341 340 340 342 341 344 343 344 343
325 326 328 327 326 334 343 344 343 342 343 346 347 346 346 346 346 347 348 345 346 346 342 342 345 346 343 340 340 341 342 341 341 341 341 343 344 341 344 343 343 344 344
328 328 329 330 331 330 329 337 343 344 343 343 346 348 347 346 346 346 346 346 346 346 347 345 343 345 344 341 340 340 340 341 341 343 344 345 345 344 344 343 345 345 341
328 328 328 328 329 330 333 335 334 339 344 344 343 345 347 347 346 346 346 344 345 345 345 345 346 345 344 340 339 340 340 340 341 341 344 344 343 341 343 344 345 344 338
326 326 326 327 328 328 328 330 335 334 338 343 342 342 343 343 346 345 341 338 341 343 342 343 344 347 345 342 339 338 339 341 341 343 344 344 343 341 343 345 344 343 338
326 326 328 327 327 327 328 329 329 335 335 339 342 341 340 341 342 344 344 336 338 336 340 337 345 346 344 346 342 337 339 341 341 341 340 342 343 341 342 344 344 341 338
325 328 325 326 325 325 326 329 331 332 335 336 340 340 339 339 339 340 341 338 337 335 337 338 341 345 347 346 344 342 346 341 341 341 341 341 342 342 342 343 344 342 340
327 322 321 324 325 328 328 329 331 332 335 336 339 338 338 339 338 340 341 335 330 329 335 341 347 344 346 346 344 340 345 346 347 340 345 347 346 340 341 342 344 342 340
324 319 321 325 331 331 330 330 331 331 333 336 337 340 339 339 337 339 342 342 338 330 330 334 344 345 346 344 343 344 347 348 346 347 343 346 346 347 345 345 343 341 341
323 321 321 328 331 330 330 330 331 333 332 336 336 339 339 339 338 340 341 338 330 330 331 332 335 340 344 344 344 343 344 347 346 347 343 346 347 343 347 346 342 342 342
323 320 319 325 329 332 332 332 333 332 332 332 338 337 338 339 338 340 340 330 331 332 331 337 340 341 344 345 346 345 344 345 344 346 344 346 347 347 346 346 342 342 340
318 320 318 321 324 330 333 335 335 336 335 339 340 338 336 337 339 342 340 333 335 334 335 335 335 334 337 341 346 347 345 346 346 347 346 345 346 346 346 346 345 341 339
318 320 322 318 323 328 334 335 336 338 339 339 338 337 336 339 339 339 339 337 337 335 332 332 334 334 335 335 337 340 342 344 345 345 347 344 345 346 345 345 342 341 337

GFSMA_850_thetae_138.txt.gz
Theta_e
346 345 345 346 346 338 341 343 345 344 335 344 342 343 344 346 346 344 347 346 343 342 343 342 343 339 337 332 327 323 324 325 327 327 326 326 326 325 326 329 337 334 340
348 347 347 346 344 347 349 344 343 345 346 344 343 342 342 345 346 347 346 348 346 341 342 342 342 340 339 339 338 333 326 324 324 324 324 324 324 324 325 325 325 325 325
347 345 347 346 342 346 347 342 345 342 339 345 344 342 340 341 344 347 347 347 349 347 342 342 342 343 342 339 339 339 336 333 331 331 332 333 333 334 334 333 332 331 330
344 346 346 346 346 345 347 345 340 347 348 346 344 343 340 341 342 346 347 347 347 347 348 344 342 342 343 343 341 340 340 338 337 338 338 338 338 338 338 339 339 339 339
344 345 347 346 347 346 348 349 348 347 345 348 347 343 342 342 344 343 344 346 347 347 346 346 344 343 343 343 344 343 342 340 341 341 341 340 341 341 341 341 341 340 339
346 341 348 347 347 348 348 349 346 346 347 344 348 346 346 344 343 343 343 344 345 346 347 347 349 347 342 341 343 343 342 342 341 341 343 343 344 344 344 344 344 343 342
345 348 349 349 346 349 350 350 349 346 348 348 348 348 346 347 347 346 343 342 342 342 344 345 346 345 347 346 341 342 342 343 342 343 345 345 346 346 346 346 346 346 345
347 349 349 351 350 348 346 347 348 348 347 350 348 347 346 345 344 345 346 344 343 342 342 344 345 347 348 346 347 345 342 342 343 344 343 343 345 345 345 346 347 347 347
349 346 346 347 347 347 347 347 347 349 349 347 347 349 346 345 342 343 344 344 343 342 343 344 345 345 346 347 345 346 342 338 340 343 343 343 345 345 346 347 347 347 347
348 348 347 344 345 347 347 348 349 349 348 348 348 348 347 346 346 342 342 346 347 344 345 343 343 344 345 343 343 341 343 342 336 340 343 343 343 342 343 345 345 345 347
349 349 350 348 345 348 347 346 346 347 348 348 348 347 347 348 349 349 345 342 347 347 346 346 345 344 345 345 345 347 343 341 341 337 340 342 342 342 342 343 345 344 343
345 347 350 348 348 347 348 348 347 345 347 348 348 348 348 347 348 348 348 346 343 344 346 347 345 345 344 344 346 344 342 340 342 339 338 342 342 343 341 343 344 345 343
333 334 338 342 342 345 347 348 346 343 343 347 347 348 348 348 347 346 346 345 345 344 345 347 347 347 346 345 343 343 342 339 342 339 340 341 342 342 342 344 344 345 344
334 334 329 337 338 339 340 340 345 345 347 346 346 345 346 349 348 348 347 347 346 344 344 344 346 347 347 347 347 345 342 338 342 341 341 342 342 342 340 340 343 343 344
334 334 333 331 336 337 338 339 341 341 343 345 345 344 341 347 347 349 349 347 347 346 343 343 345 346 347 348 348 348 346 345 339 341 341 342 341 340 341 344 342 343 344
326 328 330 333 334 334 335 337 338 340 340 339 343 344 343 345 346 348 348 348 348 347 346 344 344 343 345 348 348 348 347 346 341 340 340 340 340 340 342 344 343 344 343
326 327 328 332 332 332 333 334 335 336 336 338 337 337 343 342 344 347 347 346 348 347 347 347 347 345 345 347 348 347 346 346 346 343 340 339 339 340 342 344 343 343 344
329 331 332 332 332 333 333 331 333 333 334 335 335 336 335 343 343 345 347 348 347 346 347 347 348 348 347 348 349 349 345 344 346 347 346 342 340 342 341 341 341 343 345
332 333 333 333 332 329 327 327 328 329 330 331 334 333 335 337 343 345 345 347 347 347 348 347 348 349 348 348 349 350 349 348 346 346 346 344 340 342 342 341 339 343 345
333 333 331 329 327 327 326 327 329 330 331 332 333 335 334 336 339 342 345 345 345 346 346 345 344 345 345 345 348 348 348 349 347 347 347 346 346 342 341 341 339 340 343
332 331 330 326 325 325 324 331 332 333 332 331 332 335 337 337 337 341 345 344 344 345 344 342 341 342 341 340 344 346 347 346 346 348 347 346 347 347 342 339 338 340 341
331 330 327 325 325 323 325 330 331 330 330 330 332 335 338 337 337 338 341 339 343 342 343 339 337 338 339 337 345 344 347 346 345 346 349 347 345 347 348 348 345 339 341
328 329 325 325 325 322 325 328 331 331 330 331 331 335 336 338 339 341 339 338 339 340 341 341 343 336 338 338 338 341 344 345 346 346 348 347 346 346 347 347 347 345 341
327 327 324 323 322 324 325 328 331 334 332 332 332 335 336 337 338 340 341 343 338 338 341 341 334 333 339 341 337 339 341 345 345 347 349 348 345 346 347 347 347 346 342
328 325 324 321 323 326 325 327 332 334 335 335 333 335 336 337 338 340 341 340 340 341 340 333 332 335 332 334 341 344 343 345 345 346 348 347 345 346 346 345 346 346 342
325 323 323 320 323 324 325 323 335 336 336 336 337 335 335 335 338 338 338 340 340 342 342 341 340 335 336 335 337 338 338 347 346 346 348 347 346 346 346 345 346 347 346